     2.11           OBSERVATION DATA    G (GPS)             RINEX VERSION / TYPE
teqc 2010Oct21 OPUS Account 20111027 16:53:12UTC            PGM / RUN BY / DATE
L 1525                                                      MARKER NAME
3015                                                        MARKER NUMBER
CSMIDDLETON NGS                                             OBSERVER / AGENCY
0220390624 TRIMBLE R7 2.32                                  REC # / TYPE / VERS
60125046 TRM41249.00 NONE                                   ANT # / TYPE
  -761989.8943 -5549276.3366  3040422.2918                  APPROX POSITION XYZ
        2.0040        0.0000        0.0000                  ANTENNA: DELTA H/E/N
     1     1                                                WAVELENGTH FACT L1/2
     5    L1    L2    C1    P1    P2                        # / TYPES OF OBSERV
    15                                                      LEAP SECONDS
  2011     8    16    18    11   30.0000000     GPS         TIME OF FIRST OBS
                                                            END OF HEADER
 11  8 16 18 11 30.0000000  0  7G07G08G11G13G19G24G28
   -424723.94958   -315097.05156  20292042.3914                   20292041.0594
   -617484.39858   -457268.22355  21167053.1094                   21167051.6094
   -541461.05557   -407270.33255  21881166.5314                   21881165.1844
     88234.53957     65119.06354  22051800.1254                   22051800.5514
     16892.48057     12250.41055  22187099.4534                   22187096.0634
   -630307.13757   -449689.73853  23210986.2344                   23210989.0594
   -479361.68057   -355749.76255  22483964.5634                   22483962.9574
 11  8 16 18 12  0.0000000  0  9G07G08G11G13G17G19G23G24G28
   -523974.44548   -392435.13746  20273155.7504                   20273154.1134
   -761946.91448   -569836.42645  21139562.4694                   21139561.2664
   -668531.50847   -506286.28145  21856985.5634                   21856984.7504
    108315.92247     80766.73844  22055621.4774                   22055621.9844
   -225196.44556   -131626.82053  24319398.1254                   24319403.4344
     20605.22347     15143.37945  22187806.3984                   22187803.0904
     43023.20756     25886.03152  24073350.8134                   24073352.7974
   -779605.76646   -566026.20743  23182575.9534                   23182577.6724
   -591945.85247   -443477.69944  22462540.1724                   22462538.8984
 11  8 16 18 12 30.0000000  0  9G07G08G11G13G17G19G23G24G28
   -623164.66048   -469726.24246  20254280.6884                   20254278.8954
   -906533.57847   -682501.36745  21112048.1024                   21112047.1764
   -795469.51647   -605199.05145  21832830.1884                   21832829.1684
    128369.46947     96392.73844  22059437.7974                   22059438.2624
   -408970.07446   -274826.71943  24284427.1254                   24284433.4384
     24378.23047     18083.34045  22188524.5634                   22188520.3674
     77583.77046     52815.96142  24079927.6174                   24079930.4184
   -929040.50046   -682468.77743  23154138.9144                   23154141.8444
   -704694.23047   -531333.59045  22441085.2664                   22441084.0084
 11  8 16 18 13  0.0000000  0  9G07G08G11G13G17G19G23G24G28
    853142.15248    680642.66446  20535212.2194                   20535210.4574
    524194.66047    432351.79345  21384306.9694                   21384306.1604
    653163.39847    523605.79345  22108495.0944                   22108494.8284
   1723823.07847   1339603.19544  22363042.3984                   22363042.9964
    982522.29346    809453.42243  24549219.3134                   24549225.5084
   1603640.53147   1248677.28945  22489047.8284                   22489044.5634
   1687280.44546   1307124.72342  24386243.1174                   24386246.4344
    496828.63347    428598.16043  23425472.7034                   23425475.8874
    757827.43447    608293.67644  22719393.7114                   22719392.2584
 11  8 16 18 13 30.0000000  0  9G07G08G11G13G17G19G23G24G28
    754106.30148    603471.84446  20516366.6174                   20516364.8674
    379394.92648    319520.80945  21356752.6484                   21356751.6214
    526526.29747    424927.54345  22084397.2194                   22084396.2734
   1743840.31647   1355200.87544  22366851.8284                   22366851.7384
    798435.32446    666009.34443  24514188.5394                   24514194.8284
   1607554.35547   1251726.98445  22489792.6484                   22489789.5594
   1721277.51246   1333615.53942  24392713.1094                   24392716.1804
    347159.71547    311973.11343  23396991.9304                   23396994.2504
    644776.10247    520201.73044  22697880.7194                   22697879.1994
 11  8 16 18 14  0.0000000  0  9G07G08G11G13G17G19G23G24G28
    655170.67648    526379.12546  20497539.5474                   20497537.7894
    234512.20348    206625.15645  21329182.5784                   21329181.1644
    400063.28947    326384.93845  22060332.2664                   22060331.2384
   1763855.21147   1370796.74244  22370660.8134                   22370660.8284
    614214.82846    522461.21143  24479131.8284                   24479137.7504
   1611554.43447   1254843.88345  22490553.8444                   22490550.6094
   1755009.22746   1359899.68042  24399131.6954                   24399135.6994
    197398.38347    195276.02344  23368493.3364                   23368495.7504
    531592.00847    432006.34044  22676342.7504                   22676341.0474
 11  8 16 18 14 30.0000000  0  9G07G08G11G13G17G19G23G24G28
    556347.57848    449374.06646  20478734.3524                   20478732.5234
     89559.23048     93674.77045  21301598.5474                   21301597.0984
    273788.12147    227988.69545  22036303.4694                   22036302.0864
   1783875.20347   1386396.58644  22374471.0004                   22374470.9344
    429873.59046    378819.00843  24444052.3284                   24444058.1764
   1615648.99247   1258034.37945  22491332.8134                   22491330.1884
   1788483.00846   1385982.80942  24405502.1564                   24405505.5474
     47558.59047     78517.80143  23339980.2034                   23339982.3634
    418284.98447    343715.14544  22654780.3594                   22654779.4344
 11  8 16 18 15  0.0000000  0  9G07G08G11G13G17G19G23G24G28
    457642.20348    372460.75846  20459951.2114                   20459949.5124
    -55458.04747    -19325.73045  21274002.7894                   21274001.7154
    147706.39847    129743.19145  22012310.3524                   22012309.5044
   1803900.53547   1402000.59444  22378281.2504                   22378281.2424
    245417.52746    235087.27343  24408951.9064                   24408957.2814
   1619838.70747   1261299.05945  22492130.0164                   22492127.9414
   1821699.64146   1411865.57443  24411823.4454                   24411826.3014
   -102353.19947    -38296.48043  23311452.4614                   23311455.1724
    304857.68847    255330.23044  22633196.7034                   22633194.9694
 11  8 16 18 15 30.0000000  0  9G07G08G11G13G17G19G23G24G28
    359064.70748    295647.09446  20441192.4924                   20441190.8754
   -200529.03548   -132368.09045  21246396.6724                   21246395.6374
     21828.68047     31656.67644  21988356.5004                   21988355.4694
   1823936.55147   1417612.91444  22382093.9534                   22382094.5744
     60856.49246     91273.76243  24373830.9454                   24373836.2464
   1624128.52747   1264641.71544  22492946.1024                   22492943.4844
   1854664.98846   1437552.50843  24418096.4224                   24418099.9694
   -252325.60947   -155158.04343  23282913.5474                   23282915.9734
    191317.59847    166857.45344  22611590.6254                   22611589.1024
 11  8 16 18 16  0.0000000  0  9G07G08G11G13G17G19G23G24G28
    260618.02748    218935.35246  20422458.8674                   20422456.8404
   -345650.69148   -245449.92245  21218780.9774                   21218779.7584
   -103841.55147    -66268.18045  21964442.4224                   21964441.7344
   1843981.34847   1433232.07844  22385908.8444                   22385909.2304
   -123806.42646    -52619.10943  24338689.5394                   24338695.8634
   1628516.87147   1268061.15244  22493781.5704                   22493778.6804
   1887377.18846   1463042.17243  24424321.5084                   24424325.4064
   -402354.40647   -272063.50843  23254363.5164                   23254366.7544
     77664.41447     78296.53945  22589962.9844                   22589961.4804
 11  8 16 18 16 30.0000000  0  9G07G08G11G13G17G19G23G24G28
    162304.09448    142327.07046  20403750.7194                   20403748.6644
   -490820.09847   -358568.95745  21191156.3834                   21191155.3674
   -229300.93447   -164028.73445  21940568.2974                   21940567.5864
   1864032.35247   1448856.07044  22389724.3054                   22389724.7074
   -308568.21946   -196589.07043  24303531.1094                   24303536.5904
   1633001.57847   1271555.66045  22494634.3444                   22494632.5084
   1919834.10246   1488332.96143  24430497.5634                   24430501.9104
   -552435.65246   -389009.85943  23225804.5634                   23225807.5354
    -36101.97347    -10352.59045  22568314.1174                   22568312.6334
 11  8 16 18 17  0.0000000  0  9G07G08G11G13G17G19G23G24G28
     64123.69148     65822.82846  20385067.5784                   20385065.4144
   -636035.88347   -471724.13345  21163522.1804                   21163521.5474
   -354548.44947   -261624.20745  21916734.4224                   21916733.5664
   1884085.58247   1464481.80944  22393540.0394                   22393541.0204
   -493427.90246   -340635.30943  24268353.5634                   24268358.9264
   1637578.80947   1275122.26245  22495506.0314                   22495503.8094
   1952032.09046   1513421.93843  24436625.7274                   24436629.4884
   -702567.77746   -505995.88743  23197234.5084                   23197237.6644
   -149983.44947    -99091.38745  22546642.3834                   22546641.8244
 11  8 16 18 17 30.0000000  0  9G07G08G11G13G17G19G23G24G28
    -33921.49648    -10576.06246  20366409.8594                   20366408.2704
   -781296.09847   -584913.93445  21135880.4144                   21135879.7544
   -479582.01647   -359052.94945  21892941.4224                   21892940.6564
   1904137.45347   1480106.47344  22397356.2504                   22397357.2814
   -678383.96546   -484756.66043  24233157.2974                   24233162.5944
   1642245.25447   1278758.38745  22496394.1484                   22496391.8484
   1983968.30546   1538306.94943  24442703.2974                   24442707.0394
   -852747.90646   -623019.25443  23168656.0394                   23168659.8364
   -263981.15247   -187920.75444  22524949.6024                   22524948.8874
 11  8 16 18 18  0.0000000  0  8G07G08G11G13G17G19G24G28
   -131831.47348    -86869.57046  20347778.3364                   20347776.5664
   -926600.26248   -698137.96945  21108229.7274                   21108228.9844
   -604400.93047   -456314.42245  21869188.7894                   21869187.9064
   1924183.31647   1495726.44544  22401170.9384                   22401171.8984
   -863436.14146   -628952.93043  24197942.3444                   24197947.8714
   1646996.56647   1282460.64845  22497297.5944                   22497295.9494
  -1002974.66446   -740079.00043  23140068.9694                   23140072.0084
   -378097.88347   -276842.87545  22503234.1484                   22503232.7274
 11  8 16 18 18 30.0000000  0  8G07G08G11G13G17G19G24G28
   -229605.63348   -163057.26246  20329172.7894                   20329170.5554
  -1071946.69548   -811394.94946  21080571.4924                   21080570.5594
   -729003.93447   -553407.66445  21845477.4224                   21845476.9614
   1944219.04347   1511338.52044  22404983.8134                   22404984.7734
  -1048583.08246   -773223.01243  24162710.9454                   24162715.7034
   1651828.78547   1286225.94945  22498217.7664                   22498215.3874
  -1153245.77046   -857173.31243  23111474.0474                   23111476.3284
   -492335.31247   -365859.03945  22481495.7274                   22481494.0084
 11  8 16 18 19  0.0000000  0  8G07G08G11G13G17G19G24G28
   -327236.46548   -239133.27346  20310594.3054                   20310592.3134
  -1217327.15647   -924678.44145  21052906.4694                   21052905.4844
   -853382.47347   -650326.00845  21821809.3134                   21821808.2234
   1964247.77347   1526945.14844  22408795.5084                   22408795.8014
  -1233816.75446   -917560.68743  24127461.2344                   24127466.4344
   1656745.55947   1290057.16045  22499153.7194                   22499150.9734
  -1303552.03946   -974295.00043  23082871.3134                   23082873.8444
   -606688.81647   -454965.65244  22459734.8204                   22459733.4224
 11  8 16 18 19 30.0000000  0  8G07G08G11G13G17G19G24G28
   -424724.80548   -315098.24646  20292042.7274                   20292040.8244
  -1362742.47747  -1037989.09845  21025234.8984                   21025234.1524
   -977537.47347   -747070.16445  21798183.7974                   21798182.2344
   1984263.43847   1542541.59444  22412603.7194                   22412604.9534
  -1419138.14546  -1061966.75043  24092195.0634                   24092200.5664
   1661740.41847   1293949.16845  22500103.9064                   22500101.0314
  -1453893.54746  -1091444.18443  23054262.1254                   23054264.3794
   -721161.92247   -544165.46145  22437950.7664                   22437949.8524
 11  8 16 18 20  0.0000000  0  8G07G08G11G13G17G19G24G28
   -522071.22348   -390952.62546  20273518.2734                   20273516.6134
  -1508192.77047  -1151327.00446  20997556.3594                   20997555.9804
  -1101468.68047   -843639.93045  21774600.1954                   21774599.4064
   2004260.75047   1558123.73044  22416409.7504                   22416410.2774
  -1604547.37146  -1206441.26243  24056913.4064                   24056918.3444
   1666808.67247   1297898.40645  22501068.6884                   22501066.2114
  -1604269.40247  -1208620.11343  23025646.1644                   23025649.2584
   -835757.72747   -633460.88745  22416144.2584                   22416142.9924
 11  8 16 18 20 30.0000000  0  8G07G08G11G13G17G19G24G28
   -619273.61748   -466694.78946  20255021.0234                   20255019.0864
  -1653674.99248  -1264689.78946  20969872.2344                   20969870.8834
  -1225173.41847   -940033.22745  21751060.1884                   21751059.0204
   2024237.03547   1573689.48044  22420211.7194                   22420211.6294
  -1790041.95346  -1350982.28143  24021614.5004                   24021619.9454
   1671948.14847   1301903.12545  22502046.9614                   22502044.0204
  -1754675.94946  -1325820.01243  22997024.5864                   22997027.6764
   -950476.76247   -722852.35945  22394314.1254                   22394312.4414
 11  8 16 18 21  0.0000000  0  9G07G08G11G13G17G19G26G24G28
   -716324.18048   -542318.62546  20236553.4064                   20236551.3404
  -1799180.17648  -1378070.46145  20942183.6884                   20942182.3984
  -1348643.06647  -1036243.34045  21727564.5704                   21727563.3284
   2044195.31647   1589241.22344  22424009.2344                   22424010.3484
  -1975613.85246  -1495583.50843  23986301.2974                   23986306.5394
   1677161.79747   1305965.66045  22503038.6024                   22503036.3674
   1366105.01655   1185617.10253  24125331.3674                   24125332.2854
  -1905103.96947  -1443036.57043  22968399.7274                   22968402.1994
  -1065313.54747   -812335.56245  22372461.4454                   22372460.4964
 11  8 16 18 21 30.0000000  0  9G07G08G11G13G17G19G26G24G28
   -813227.02348   -617827.37146  20218113.0784                   20218111.5904
  -1944712.44148  -1491472.23045  20914489.7734                   20914488.6604
  -1471881.30947  -1132273.14145  21704113.4144                   21704111.8984
   2064126.54747   1604771.85544  22427802.3914                   22427803.0554
  -2161266.81246  -1640247.96143  23950972.3134                   23950977.1604
   1682440.76647   1310079.09445  22504043.2194                   22504041.0084
   1193579.66046   1051181.79343  24092500.3914                   24092501.5434
  -2055556.21947  -1560272.08243  22939769.8754                   22939772.2154
  -1180275.19947   -901916.07845  22350584.5394                   22350583.5554
 11  8 16 18 22  0.0000000  0  9G07G08G11G13G17G19G26G24G28
   -909977.95348   -693217.71946  20199701.9304                   20199700.5354
  -2090266.64148  -1604891.10246  20886791.4224                   20886791.0274
  -1594883.67247  -1228119.13745  21680706.5084                   21680705.9144
   2084030.47347   1620281.23844  22431590.3914                   22431591.0704
  -2346996.13346  -1784971.87543  23915629.2504                   23915634.1374
   1687785.21947   1314243.53945  22505060.5554                   22505058.0634
   1021200.78546    916860.62943  24059697.7504                   24059698.9734
  -2206027.07447  -1677522.03943  22911136.1884                   22911138.5354
  -1295359.90247   -991592.45745  22328684.6094                   22328683.6844
 11  8 16 18 22 30.0000000  0  9G07G08G11G13G17G19G26G24G28
    568849.45748    459115.29346  20481113.7194                   20481111.6174
   -660414.20747   -490720.37546  21158883.3754                   21158882.3794
   -142222.16447    -96175.09445  21957138.7974                   21957137.7584
   3679324.78547   2863367.51644  22735164.8134                   22735164.9384
   -957372.16046   -702147.75043  24180065.1884                   24180070.1884
   3268613.75447   2546057.93045  22805882.4224                   22805879.5904
   2424398.42646   2010261.37543  24326718.0634                   24326718.6524
   -781086.82846   -567178.96943  23182292.7344                   23182295.1134
    164857.08647    146238.95745  22606554.8134                   22606553.5634
 11  8 16 18 23  0.0000000  0  9G07G08G11G13G17G19G26G24G28
    472407.94948    383966.02046  20462761.6564                   20462759.8874
   -806004.52048   -604167.37146  21131179.2814                   21131177.5984
   -264745.01647   -191647.44945  21933823.1724                   21933822.8874
   3699165.30547   2878827.47744  22738940.1174                   22738940.8094
  -1143247.63746   -846985.56243  24144694.0004                   24144699.0664
   3274081.18047   2550318.23844  22806922.3754                   22806919.4734
   2252321.34446   1876175.36343  24293972.4694                   24293973.7274
   -931584.76647   -684450.05543  23153654.0944                   23153655.3014
     49524.28947     56369.24644  22584607.6644                   22584606.2584
 11  8 16 18 23 30.0000000  0  9G07G08G11G13G17G19G26G24G28
    376126.44948    308941.44146  20444439.8444                   20444438.0084
   -951606.65248   -717623.59045  21103471.6334                   21103470.0594
   -387022.02347   -286928.24245  21910554.9844                   21910553.6804
   3718972.39147   2894261.37144  22742710.1644                   22742710.7734
  -1329190.07846   -991875.50044  24109310.8524                   24109314.7664
   3279608.59047   2554625.25044  22807974.4534                   22807971.8554
   2080402.32446   1742212.46543  24261257.2194                   24261258.3524
  -1082088.89547   -801725.94943  23125013.9924                   23125015.9104
    -65930.91447    -33595.83645  22562637.5864                   22562636.1024
 11  8 16 18 24  0.0000000  0  9G07G08G11G13G17G19G26G24G28
    280011.35948    234046.53946  20426149.7424                   20426147.9534
  -1097213.23848   -831083.26646  21075763.3284                   21075762.4184
   -509046.33247   -382012.12145  21887334.4844                   21887332.8284
   3738747.53147   2909670.38344  22746472.6174                   22746473.3364
  -1515193.44546  -1136812.94943  24073915.1334                   24073920.0234
   3285197.80147   2558980.40644  22809037.9924                   22809035.1954
   1908648.74246   1608378.50443  24228573.5234                   24228574.9844
  -1232591.32447   -919000.54744  23096374.5004                   23096376.7464
   -181504.94147   -123653.51644  22540643.9454                   22540642.9734
 11  8 16 18 24 30.0000000  0  9G07G08G11G13G17G19G26G24G28
    184067.84848    159285.33246  20407892.2734                   20407890.6604
  -1242818.72748   -944542.09846  21048055.5554                   21048054.5704
   -630812.39547   -476894.76644  21864163.5554                   21864161.6764
   3758491.30947   2925054.96544  22750230.2034                   22750231.4534
  -1701251.91846  -1281793.30543  24038509.8834                   24038513.6564
   3290849.66047   2563384.39544  22810113.7194                   22810111.0204
   1737066.79346   1474678.33243  24195922.5314                   24195923.6174
  -1383085.59847  -1036268.78943  23067735.7974                   23067738.3204
   -297194.92647   -213801.54745  22518629.4534                   22518627.8484
 11  8 16 18 25  0.0000000  0  9G07G08G11G13G17G19G26G24G28
     88298.07448     84659.49246  20389667.8754                   20389666.2424
  -1388420.02347  -1057997.64846  21020348.4614                   21020347.8204
   -752317.48847   -571574.05144  21841041.3984                   21841039.9534
   3778201.32447   2940413.23044  22753980.9614                   22753981.8324
  -1887362.85446  -1426814.59243  24003092.8284                   24003097.7384
   3296561.81346   2567835.37544  22811200.6644                   22811198.1844
   1565660.10545   1341114.70343  24163304.4064                   24163306.2074
  -1533567.95747  -1153527.71943  23039100.5084                   23039103.0164
   -413001.48447   -304040.41444  22496592.1094                   22496590.5904
 11  8 16 18 25 30.0000000  0  9G07G08G11G13G17G19G26G24G28
     -7296.15248     10170.46146  20371477.1644                   20371474.9224
  -1534014.19948  -1171447.65246  20992643.0004                   20992641.9184
   -873559.17647   -666048.08645  21817970.1174                   21817968.4774
   3797874.63747   2955742.88344  22757724.6414                   22757725.6374
  -2073523.96946  -1571874.93044  23967667.3524                   23967672.7704
   3302331.65647   2572331.30944  22812299.4224                   22812296.0664
   1394431.21945   1207689.52742  24130721.8284                   24130723.5434
  -1684035.20746  -1270774.93743  23010466.8524                   23010469.7814
   -528925.25447   -394370.61745  22474532.5704                   22474531.3014
 11  8 16 18 26  0.0000000  0  9G07G08G11G13G17G19G26G24G28
   -102706.43448    -64175.24646  20353321.1334                   20353319.2814
  -1679592.32448  -1284885.15245  20964940.2664                   20964939.3984
   -994528.80547   -760310.12545  21794949.9694                   21794948.7424
   3817514.85947   2971046.75843  22761463.1644                   22761463.0084
  -2259726.58646  -1716967.63744  23932234.0474                   23932238.8014
   3308163.17647   2576875.30144  22813408.1414                   22813405.4384
   1223389.75045   1074410.38342  24098171.7814                   24098176.4264
  -1834477.54346  -1388002.69143  22981839.3674                   22981841.4064
   -644960.20747   -484787.45744  22452451.6334                   22452450.5664
 11  8 16 18 26 30.0000000  0  9G07G08G11G13G17G19G26G24G28
   -197934.64548   -138379.07846  20335199.7114                   20335197.5864
  -1825155.98848  -1398311.39145  20937240.2034                   20937239.4574
  -1115227.63747   -854361.16045  21771981.8204                   21771980.6214
   3837115.40647   2986319.70344  22765191.7344                   22765192.9104
  -2445972.34046  -1862093.93744  23896793.1804                   23896798.0204
   3314050.00847   2581462.37144  22814528.5864                   22814526.0594
   1052535.262 5                  24065660.375
  -1984895.23847  -1505211.27744  22953216.3364                   22953217.7114
   -761110.65247   -575294.30145  22430349.0784                   22430348.3714
 11  8 16 18 27  0.0000000  0  9G07G08G11G13G17G19G26G24G28
   -292973.31248   -212435.21146  20317114.5944                   20317112.4654
  -1970696.23447  -1511719.38346  20909545.0004                   20909544.1414
  -1235647.85547   -948195.08245  21749067.0394                   21749064.9924
   3856679.35547   3001564.13743  22768915.2344                   22768917.0744
  -2632253.00846  -2007247.46144  23861344.2664                   23861349.1604
   3319995.08647   2586094.85244  22815659.7584                   22815656.9534
    881876.254 6                  24033184.953
  -2135279.10247  -1622393.46144  22924598.9774                   22924600.7934
   -877371.58647   -665887.21945  22408225.0554                   22408223.8094
 11  8 16 18 27 30.0000000  0  9G07G08G11G13G17G19G26G24G28
   -387813.46948   -286336.65646  20299066.9304                   20299065.1254
  -2116203.57447  -1625101.73046  20881856.1564                   20881854.9184
  -1355779.76647  -1041804.35945  21726206.3054                   21726205.0044
   3876210.69147   3016783.13744  22772632.6484                   22772634.2464
  -2818559.52346  -2152421.14144  23825891.7664                   23825895.9534
   3326003.25447   2590776.46144  22816802.9224                   22816800.6724
    711422.586 6                  24000749.234
  -2285618.92246  -1739541.35544  22895989.7814                   22895992.1524
   -993736.36347   -756561.07445  22386081.5784                   22386080.0234
 11  8 16 18 28  0.0000000  0  9G07G08G11G13G17G19G26G24G28
   -482447.17248   -360077.24246  20281059.1334                   20281057.1564
  -2261668.77047  -1738451.25845  20854175.1334                   20854173.9344
  -1475614.72347  -1135182.23045  21703401.8834                   21703401.5124
   3895713.05547   3031979.56644  22776343.6254                   22776345.0204
  -3004883.51247  -2297608.41843  23790435.1954                   23790439.3794
   3332078.08647   2595510.03544  22817959.6254                   22817957.2034
    541183.65246   1016940.39852  23968354.3134                   23968354.6884
  -2435905.15246  -1856647.46944  22867391.6254                   22867393.4774
  -1110200.03147   -847311.98845  22363919.5474                   22363917.8834
 11  8 16 18 28 30.0000000  0  9G07G08G11G13G17G19G26G24G28
   -576870.43048   -433653.82846  20263090.8364                   20263088.8834
  -2407087.46947  -1851764.53145  20826502.6724                   20826501.4384
  -1595148.93047  -1228325.77745  21680655.3524                   21680654.7504
   3915185.38747   3047152.59844  22780049.0084                   22780050.8244
  -3191220.62146  -2442805.94943  23754976.1884                   23754980.7774
   3338219.03547   2600295.12944  22819127.7734                   22819125.6294
    371164.05946    884457.57043  23936000.6804                   23936000.9384
  -2586132.57446  -1973707.75043  22838803.3754                   22838806.2424
  -1226760.73047   -938138.51245  22341739.2504                   22341737.3914
 11  8 16 18 29  0.0000000  0  9G07G08G11G13G17G19G26G24G28
   -671074.82448   -507059.87546  20245164.2974                   20245162.7034
  -2552449.87947  -1965033.94946  20798841.2274                   20798839.7974
  -1714373.38747  -1321227.95745  21657968.2814                   21657967.3284
   3934632.07447   3062305.63744  22783750.8364                   22783751.0744
  -3377561.70746  -2588006.60944  23719516.1954                   23719520.2584
   3344430.29747   2605135.02044  22820309.9384                   22820307.7114
    201374.05146    752153.62543  23903690.2194                   23903690.5664
  -2736290.90646  -2090714.21143  22810229.2734                   22810231.9614
  -1343411.91447  -1029035.53144  22319540.5784                   22319539.1994
 11  8 16 18 29 30.0000000  0  9G07G08G11G13G17G19G26G24G28
   -765050.19948   -580287.47346  20227281.3524                   20227279.4264
  -2697745.54748  -2078251.34846  20771192.3444                   20771191.3204
  -1833277.50047  -1413880.51645  21635341.7814                   21635340.1174
   3954058.18047   3077442.64544  22787446.8524                   22787448.1804
  -3563896.54346  -2733202.39543  23684057.9064                   23684061.8364
   3350717.53947   2610034.10544  22821506.2274                   22821504.4304
     31824.60246    620037.19943  23871425.6724                   23871426.6524
  -2886368.76646  -2207657.96144  22781670.2814                   22781672.7734
  -1460146.58247  -1119997.61745  22297327.1884                   22297325.8874
 11  8 16 18 30  0.0000000  0  9G07G08G11G13G17G19G26G24G28
   -858788.18748   -653330.06246  20209443.4384                   20209441.4654
  -2842964.56647  -2191409.03946  20743557.5084                   20743556.6844
  -1951852.22347  -1506276.41044  21612777.0084                   21612776.2304
   3973467.95347   3092566.92643  22791141.0634                   22791141.9614
  -3750216.12946  -2878386.29744  23648602.3984                   23648606.6334
   3357085.23846   2614995.87544  22822718.1724                   22822716.1884
   -137474.82446    488115.59043  23839209.3364                   23839210.3954
  -3036355.96546  -2324531.03944  22753128.7034                   22753131.8204
  -1576958.17647  -1211019.65645  22275098.4384                   22275096.9694
 11  8 16 18 30 30.0000000  0  9G07G08G11G13G17G19G26G24G28
   -952277.14548   -726178.63746  20191653.2734                   20191651.6024
  -2988094.95747  -2304497.65646  20715940.4844                   20715939.4144
  -2070086.16447  -1598406.73045  21590278.4844                   21590276.8284
   3992867.63747   3107683.33243  22794832.4304                   22794833.9454
  -3936508.75846  -3023549.18444  23613151.8754                   23613156.1524
   3363539.77346   2620025.34444  22823946.4694                   22823944.4264
   -306511.62547    356398.60943  23807042.7504                   23807042.9304
  -3186239.91847  -2441323.66844  22724606.7814                   22724609.2774
  -1693837.85547  -1302094.74245  22252856.8834                   22252855.4104
 11  8 16 18 31  0.0000000  0  9G07G08G11G13G17G19G26G24G28
  -1045511.26248   -798828.61746  20173911.4064                   20173909.7234
  -3133129.39848  -2417511.51246  20688341.8054                   20688340.4344
  -2187972.43747  -1690266.17245  21567845.1884                   21567844.3794
   4012259.35247   3122793.52744  22798522.9844                   22798524.0394
  -4122767.77046  -3168685.85244  23577708.3204                   23577712.0234
   3370083.41846   2625124.23444  22825191.4774                   22825189.5984
   -475278.47747    224891.96143  23774927.0234                   23774927.9344
  -3336012.74646  -2558029.66844  22696105.7974                   22696108.0784
  -1810781.69147  -1393219.80945  22230603.3364                   22230601.3874
 11  8 16 18 31 30.0000000  0  9G07G08G11G13G17G19G26G24G28
    436932.97748    356322.70746  20456011.2584                   20456009.1954
  -1702641.67248  -1302845.75046  20960554.4454                   20960553.2664
   -730086.44947   -554251.09844  21845272.1564                   21845269.8364
   5607058.02747   4365493.59843  23102002.8834                   23102004.1094
  -2733566.16046  -2086190.86744  23842064.2504                   23842068.2234
   4952131.98046   3857889.26244  23126245.8054                   23126244.0394
    931651.78546   1321201.26243  24042657.3364                   24042658.0554
  -1910247.48046  -1447043.68044  22967420.9384                   22967422.5634
   -352368.33647   -256793.82045  22508130.0234                   22508128.5474
 11  8 16 18 32  0.0000000  0  9G07G08G11G13G17G19G26G24G28
    344220.40248    284079.12146  20438368.8444                   20438366.5234
  -1847470.03147  -1415699.02046  20932994.4384                   20932993.1294
   -847265.05547   -645559.09445  21822973.1414                   21822972.0234
   5626431.24247   4380589.38743  23105688.7194                   23105690.8284
  -2919745.35546  -2231265.33243  23806635.0784                   23806638.5084
   4958851.98447   3863125.59044  23127525.2274                   23127522.4304
    763439.50446   1190126.77343  24010647.3674                   24010648.2734
  -2059781.99646  -1563563.99244  22938964.8834                   22938966.9884
   -469436.61747   -348015.87144  22485853.0864                   22485850.9224
 11  8 16 18 32 30.0000000  0  9G07G08G11G13G17G19G26G24G28
    251778.90648    212046.75446  20420777.8364                   20420775.7814
  -1992183.30547  -1528462.61746  20905456.2504                   20905455.1294
   -964078.63347   -736582.64845  21800744.6094                   21800743.2194
   5645798.87947   4395680.82443  23109375.8914                   23109377.1414
  -3105873.32846  -2376299.86744  23771215.7584                   23771220.0234
   4965664.72746   3868434.14544  23128821.0634                   23128818.7114
    595516.60946   1059277.82843  23978692.8914                   23978694.0744
  -2209184.67646  -1679981.61744  22910534.1024                   22910536.4574
   -586560.31247   -439281.09445  22463564.7814                   22463563.3404
 11  8 16 18 33  0.0000000  0  9G07G08G11G13G17G19G26G24G28
    159607.37148    140224.75846  20403238.2424                   20403236.3834
  -2136781.94948  -1641136.88746  20877940.2894                   20877938.8204
  -1080528.73047   -827322.97745  21778584.8284                   21778583.6254
   5665154.99647   4410763.31343  23113058.8204                   23113060.9264
  -3291951.30146  -2521295.43444  23735806.5004                   23735809.9534
   4972564.12147   3873810.25844  23130134.2894                   23130131.8094
    427882.77746    928654.05943  23946793.0944                   23946794.1134
  -2358455.43046  -1796296.40244  22882128.5004                   22882131.0664
   -703742.98447   -530592.27045  22441265.7424                   22441264.1764
 11  8 16 18 33 30.0000000  0  9G07G08G11G13G17G19G26G24G28
     67707.73848     68614.62946  20385750.0634                   20385748.0124
  -2281262.47748  -1753719.12546  20850446.4534                   20850445.1454
  -1196612.42647   -917777.81245  21756495.1334                   21756493.4884
   5684497.70347   4425835.30543  23116739.0704                   23116741.7624
  -3477976.10547  -2666249.59044  23700406.5084                   23700410.2774
   4979548.12147   3879252.28144  23131462.9774                   23131461.0984
    260541.90646    798258.59043  23914949.1484                   23914950.1604
  -2507590.00846  -1912505.10244  22853748.3204                   22853751.4384
   -820983.97347   -621948.87544  22418955.5084                   22418953.6644
 11  8 16 18 34  0.0000000  0  9G07G08G11G13G17G19G26G24G28
    -23918.76647     -2782.67646  20368314.1484                   20368312.1374
  -2425623.07048  -1866207.91046  20822975.5704                   20822974.5744
  -1312328.14147  -1007945.88345  21734474.9224                   21734473.9414
   5703822.98447   4440893.75843  23120417.5784                   23120419.0824
  -3663946.60247  -2811161.43744  23665017.3984                   23665021.5394
   4986613.89547   3884758.01245  23132808.0784                   23132805.3204
     93495.75046    668092.75843  23883160.3284                   23883162.2854
  -2656586.10546  -2028605.86344  22825396.1724                   22825398.5314
   -938285.14147   -713352.37945  22396633.7034                   22396632.2934
 11  8 16 18 34 30.0000000  0  9G07G08G11G13G17G19G26G24G28
   -115268.70748    -73964.48046  20350930.8834                   20350929.1214
  -2569859.39847  -1978599.85546  20795528.4534                   20795526.7814
  -1427672.26247  -1097824.40245  21712525.6094                   21712524.4804
   5723130.06347   4455938.00843  23124091.6254                   23124093.8874
  -3849858.52047  -2956027.63344  23629639.2114                   23629643.3754
   4993760.50846   3890326.74644  23134167.5234                   23134165.5434
    -73251.04346    538160.23443  23851430.4924                   23851431.8094
  -2805438.55946  -2144594.71544  22797070.4534                   22797072.9144
  -1055645.05547   -804801.65245  22374300.9844                   22374299.6334
 11  8 16 18 35  0.0000000  0  9G07G08G11G13G17G19G26G24G28
   -206345.57847   -144933.50446  20333599.6254                   20333597.5944
  -2713973.61348  -2090896.64546  20768104.1954                   20768103.1054
  -1542647.96547  -1187415.84045  21690646.3594                   21690644.9104
   5742411.05147   4470961.94143  23127761.2894                   23127762.5514
  -4035715.59847  -3100851.09844  23594272.3524                   23594275.8794
   5000980.17247   3895952.37945  23135542.2814                   23135539.4384
   -239701.11346    408458.94143  23819756.0084                   23819757.1644
  -2954149.52346  -2260473.32444  22768772.2584                   22768774.0084
  -1173069.87147   -896301.48045  22351955.9844                   22351954.3594
 11  8 16 18 35 30.0000000  0  9G07G08G11G13G17G19G26G24G28
   -297151.43048   -215691.33646  20316319.7034                   20316318.0274
  -2857966.52348  -2203098.91046  20740703.3834                   20740702.6644
  -1657257.00447  -1276721.56645  21668836.8754                   21668835.9924
   5761659.51247   4485960.52743  23131423.9064                   23131425.7384
  -4221519.01647  -3245632.75844  23558915.5944                   23558918.2974
   5008266.68847   3901630.13344  23136928.2034                   23136925.8714
   -405855.07846    278988.29342  23788137.8054                   23788138.0594
  -3102719.42646  -2376242.00844  22740499.1724                   22740501.7504
  -1290563.76647   -987855.15645  22329597.3134                   22329596.2584
 11  8 16 18 36  0.0000000  0  9G07G08G11G13G17G19G26G24G28
   -387684.10948   -286236.30146  20299092.0474                   20299090.0394
  -3001835.01648  -2315204.24246  20713325.8834                   20713324.8204
  -1771496.99647  -1365739.72345  21647097.9224                   21647097.0594
   5780873.08247   4500931.93443  23135080.1174                   23135082.0634
  -4407265.85547  -3390370.33244  23523568.4924                   23523571.0084
   5015618.27746   3907358.56344  23138327.1724                   23138325.0004
   -571709.41046    149751.16043  23756576.9224                   23756577.9384
  -3251144.44147  -2491897.80544  22712255.9144                   22712257.7154
  -1408126.47347  -1079462.43745  22307225.8914                   22307224.7774
 11  8 16 18 36 30.0000000  0  9G07G08G11G13G17G19G26G24G28
   -477944.60248   -356569.19946  20281916.3524                   20281913.9224
  -3145578.63748  -2427212.25446  20685972.4144                   20685971.6454
  -1885368.64847  -1454470.87145  21625429.5004                   21625428.0354
   5800046.42247   4515871.96543  23138728.7664                   23138731.2934
  -4592956.83647  -3535064.39544  23488232.0704                   23488235.0554
   5023029.51646   3913133.50444  23139737.3834                   23139734.9654
   -737264.39846     20747.32043  23725072.1884                   23725073.4964
  -3399423.83246  -2607440.10244  22684038.5004                   22684041.0744
  -1525761.03147  -1171125.71945  22284841.0314                   22284839.5204
 11  8 16 18 37  0.0000000  0  9G07G08G11G13G17G19G26G24G28
   -567933.33248   -426690.31246  20264792.0164                   20264790.1334
  -3289197.64848  -2539123.17246  20658642.7114                   20658641.5084
  -1998872.15247  -1542915.14145  21603829.9384                   21603828.9614
   5819174.76247   4530776.94143  23142369.3984                   23142371.0864
  -4778591.99246  -3679714.94544  23452907.2734                   23452909.2624
   5030495.97346   3918951.44144  23141157.8444                   23141156.0824
   -902519.01846   -108022.51643  23693625.9694                   23693626.8634
  -3547556.66846  -2722868.21144  22655849.4844                   22655852.4024
  -1643470.30147  -1262847.19145  22262441.3204                   22262440.1844
 11  8 16 18 37 30.0000000  0  9G07G08G11G13G17G19G26G24G28
   -657641.85547   -496593.09046  20247720.8134                   20247718.8954
  -3432682.18748  -2650929.31246  20631338.9064                   20631337.6604
  -2111998.64147  -1631065.63745  21582302.4454                   21582301.3054
   5838261.73447   4545649.68843  23146001.7664                   23146003.4734
  -4964162.74246  -3824315.32843  23417593.7344                   23417596.1764
   5038021.77047   3924815.63744  23142590.4454                   23142588.0204
  -1067464.29746   -236551.29743  23662238.0234                   23662238.1644
  -3695533.14846  -2838174.53544  22627690.2194                   22627692.8164
  -1761248.40247  -1354622.33245  22240029.4924                   22240027.9104
 11  8 16 18 38  0.0000000  0  9G07G08G11G13G17G19G26G24G28
   -747067.70347   -566275.60946  20230703.9924                   20230701.3284
  -3576028.10948  -2762627.43746  20604060.8134                   20604059.2034
  -2224745.57847  -1718920.38745  21560847.5314                   21560846.4844
   5857305.72747   4560488.94143  23149625.4144                   23149627.3134
  -5149665.44146  -3968862.68744  23382293.1954                   23382296.5084
   5045605.80147   3930725.19944  23144034.2274                   23144031.3524
  -1232096.32446   -364836.00443  23630909.2034                   23630910.2034
  -3843348.60947  -2953355.35243  22599562.5314                   22599563.6134
  -1879094.32047  -1446450.29745  22217604.0394                   22217602.4694
 11  8 16 18 38 30.0000000  0  9G07G08G11G13G17G19G26G24G28
   -836205.67248   -635733.79746  20213741.7664                   20213739.3984
  -3719229.21548  -2874212.72746  20576810.5004                   20576809.5394
  -2337107.45747  -1806475.07045  21539466.0314                   21539464.7624
   5876307.89547   4575295.59843  23153241.2424                   23153243.6454
  -5335094.61347  -4113352.75044  23347007.2894                   23347010.0044
   5053249.18047   3936681.00444  23145488.0314                   23145485.6644
  -1396408.60946   -492871.55143  23599641.3984                   23599642.4574
  -3990996.48046  -3068405.57844  22571465.9304                   22571466.6844
  -1997004.98447  -1538328.72345  22195166.4064                   22195164.6684
 11  8 16 18 39  0.0000000  0  9G07G08G11G13G17G19G26G24G28
   -925051.38748   -704964.26246  20196834.6954                   20196832.5864
  -3862279.88748  -2985680.78546  20549588.9224                   20549587.4064
  -2449079.23847  -1893725.80145  21518158.7424                   21518157.3954
   5895268.14146   4590069.59843  23156849.9384                   23156852.3834
  -5520445.22347  -4257781.61344  23311736.2974                   23311738.6954
   5060951.70747   3942682.89844  23146954.2194                   23146951.6024
  -1560395.86346   -620653.77043  23568435.8134                   23568437.0394
  -4138470.87146  -3183320.60944  22543402.0314                   22543403.2234
  -2114978.67647  -1630256.26245  22172716.5084                   22172714.9574
 11  8 16 18 39 30.0000000  0  9G07G08G11G13G17G19G26G24G28
  -1013610.78148   -773971.62146  20179982.4304                   20179980.4454
  -4005184.91848  -3097035.37546  20522394.6254                   20522393.7734
  -2560666.82047  -1980677.14545  21496923.9614                   21496922.9924
   5914176.10947   4604802.84443  23160447.6484                   23160450.5314
  -5705722.47747  -4402153.33244  23276479.1174                   23276481.6994
   5068703.63347   3948723.28544  23148429.5314                   23148426.8634
  -1724062.66846   -748186.35943  23537290.9144                   23537292.3404
  -4285775.80546  -3298103.60944  22515370.9224                   22515373.3754
  -2233023.18447  -1722238.98045  22150253.2734                   22150251.6564
 11  8 16 18 40  0.0000000  0  9G07G08G11G13G17G19G26G24G28
  -1101882.13348   -842754.52746  20163185.0314                   20163182.9964
  -4147941.97748  -3208274.64846  20495229.1334                   20495227.8594
  -2671868.91847  -2067328.11745  21475762.8674                   21475761.9774
   5933028.92246   4619493.09043  23164035.2894                   23164038.5084
  -5890924.87547  -4546466.71944  23241236.0864                   23241238.4574
   5076502.60547   3954800.35544  23149913.6954                   23149910.9414
  -1887406.61746   -875467.34043  23506208.0234                   23506208.5944
  -4432908.31246  -3412752.25444  22487372.9144                   22487375.1094
  -2351138.69547  -1814277.02345  22127776.4694                   22127774.8674
 11  8 16 18 40 30.0000000  0  9G07G08G11G13G17G19G26G24G28
    385564.32448    316294.63346  20446235.9844                   20446234.5664
  -2715117.56648  -2091788.10546  20767887.0164                   20767885.6454
  -1207254.34847   -926070.01245  21754469.7114                   21754468.8364
   7527249.06347   5861742.33243  23467406.0004                   23467408.0234
  -4500618.76247  -3463111.11744  23505802.5314                   23505805.3794
   6659771.24247   5188516.12144  23451200.2114                   23451197.4024
   -474994.12146    225113.84443  23774980.3204                   23774981.3404
  -3004434.47347  -2299655.73044  22759202.2974                   22759203.9884
   -893896.76247   -678763.81645  22405080.8204                   22405079.2464
 11  8 16 18 41  0.0000000  0  9G07G08G11G13G17G19G26G24G28
    297883.59848    247971.95746  20429551.6024                   20429549.5944
  -2857558.90248  -2202781.36746  20740781.0084                   20740779.8674
  -1317669.28547  -1012107.60945  21733458.5164                   21733457.4384
   7545994.22347   5876348.71943  23470973.4064                   23470975.8754
  -4685654.55547  -3607294.69944  23470590.8914                   23470593.5314
   6667667.28147   5194668.82044  23452702.3594                   23452699.7544
   -637673.53546     98350.68443  23744024.6174                   23744025.0354
  -3151201.80946  -2414019.81644  22731273.1414                   22731274.7854
  -1012146.13347   -770906.16045  22382578.2974                   22382577.0314
 11  8 16 18 41 30.0000000  0  9G07G08G11G13G17G19G26G24G28
    210505.25448    179884.91046  20412924.1094                   20412922.1564
  -2999833.50848  -2313644.70346  20713706.7274                   20713705.8714
  -1427683.50047  -1097832.96145  21712523.5944                   21712522.4804
   7564685.85947   5890913.37943  23474530.0944                   23474533.1724
  -4870599.34847  -3751407.37144  23435396.6954                   23435399.6564
   6675612.70747   5200859.98444  23454215.0164                   23454212.4494
   -800012.56646    -28147.25043  23713132.0234                   23713133.3284
  -3297777.50046  -2528234.57844  22703381.6644                   22703383.1294
  -1130458.49647   -863097.61745  22360064.0394                   22360062.5124
 11  8 16 18 42  0.0000000  0  9G07G08G11G13G17G19G26G24G28
    123426.81647    112031.55546  20396353.6254                   20396351.8484
  -3141942.61747  -2424379.09046  20686664.4384                   20686663.1134
  -1537299.04347  -1183247.68045  21691664.2664                   21691663.0744
   7583317.70747   5905431.46143  23478075.2274                   23478079.2074
  -5055454.41847  -3895450.12544  23400220.1644                   23400222.9454
   6683601.01246   5207084.56644  23455734.6254                   23455731.9924
   -962012.08246   -154380.61743  23682304.2274                   23682306.0204
  -3444161.99647  -2642300.34044  22675524.7274                   22675527.2154
  -1248838.35547   -955341.64545  22337537.1804                   22337535.9144
 11  8 16 18 42 30.0000000  0  9G07G08G11G13G17G19G26G24G28
     36656.73848     44418.48046  20379841.6334                   20379839.8484
  -3283876.57448  -2534976.98446  20659655.2034                   20659654.1914
  -1646507.27047  -1268344.99245  21670882.3054                   21670881.6454
   7601893.78547   5919906.05543  23481611.1414                   23481613.9574
  -5240210.94947  -4039416.09844  23365061.8444                   23365064.8984
   6691637.24646   5213346.48044  23457263.8594                   23457261.7034
  -1123662.44146   -280341.91443  23651542.8364                   23651544.0904
  -3590345.18446  -2756209.26644  22647707.1414                   22647708.9144
  -1367278.94947  -1047633.00445  22314999.0164                   22314997.1604
 11  8 16 18 43  0.0000000  0  9G07G08G11G13G17G19G26G24G28
    -49798.33248    -22949.12146  20363389.6094                   20363388.0044
  -3425627.64148  -2645432.37546  20632681.0944                   20632680.0514
  -1755301.34447  -1353119.59445  21650179.7664                   21650178.6994
   7620416.75046   5934339.28543  23485136.4924                   23485139.0664
  -5424862.20746  -4183300.05544  23329923.6414                   23329926.7194
   6699723.74646   5219647.55544  23458802.1094                   23458800.5084
  -1284955.87146   -406025.07443  23620849.9224                   23620851.7664
  -3736318.96547  -2869955.02744  22619929.2344                   22619931.2584
  -1485775.84047  -1139968.24245  22292449.3594                   22292448.6094
 11  8 16 18 43 30.0000000  0  9G07G08G11G13G17G19G26G24G28
   -135934.47748    -90068.21946  20346998.7424                   20346996.9804
  -3567190.41848  -2755741.03146  20605742.6644                   20605741.6684
  -1863677.10947  -1437568.24245  21629556.5314                   21629555.4304
   7638886.07046   5948730.68043  23488651.1484                   23488653.9414
  -5609403.60246  -4327098.39544  23294806.4924                   23294809.4104
   6707860.51646   5225987.83644  23460351.3204                   23460349.0204
  -1445887.49646   -531426.34043  23590226.0004                   23590227.0904
  -3882077.63347  -2983533.16844  22592192.5944                   22592194.5664
  -1604326.87947  -1232345.66845  22269890.6564                   22269888.4924
 11  8 16 18 44  0.0000000  0  9G07G08G11G13G17G19G26G24G28
   -221747.25447   -156935.34446  20330668.9304                   20330667.7704
  -3708559.13348  -2865898.48046  20578841.1564                   20578839.8834
  -1971630.12548  -1521687.46545  21609014.3054                   21609012.5044
   7657302.03546   5963080.52743  23492155.3364                   23492158.5744
  -5793829.91446  -4470807.09444  23259711.4774                   23259713.4964
   6716048.55946   5232368.05544  23461909.6094                   23461907.4024
  -1606452.08246   -656541.57843  23559671.7344                   23559672.5984
  -4027615.10546  -3096938.93744  22564497.4774                   22564499.8834
  -1722929.80547  -1324763.52345  22247320.7274                   22247319.1724
 11  8 16 18 44 30.0000000  0  9G07G08G11G13G17G19G26G24G28
   -307232.30948   -223547.10246  20314401.8674                   20314400.1094
  -3849727.74248  -2975900.00446  20551977.7664                   20551976.6054
  -2079156.07447  -1605473.91845  21588552.2114                   21588551.0704
   7675665.11346   5977389.17643  23495649.9924                   23495652.9534
  -5978136.24247  -4614422.26644  23224638.6724                   23224641.2664
   6724287.89546   5238788.21544  23463477.5704                   23463475.3754
  -1766643.91046   -781366.37543  23529188.1174                   23529189.4574
  -4172925.58247  -3210167.83244  22536845.7894                   22536848.1294
  -1841582.23447  -1417219.96145  22224742.3914                   22224740.1644
 11  8 16 18 45  0.0000000  0  9G07G08G11G13G17G19G26G24G28
   -392392.00048   -289905.32446  20298196.4614                   20298194.8164
  -3990697.36748  -3085746.46946  20525152.1254                   20525151.0164
  -2186257.03147  -1688929.19945  21568171.7504                   21568170.9844
   7693968.82046   5991651.53143  23499133.4694                   23499136.9774
  -6162324.30547  -4757945.30544  23189589.4304                   23189591.3284
   6732572.53146   5245243.71944  23465053.7894                   23465051.5204
  -1926464.32846   -905901.75443  23498774.8834                   23498776.5904
  -4318009.56247  -3323220.24244  22509236.5944                   22509238.6954
  -1960288.03947  -1509717.98445  22202153.0864                   22202151.8014
 11  8 16 18 45 30.0000000  0  9G07G08G11G13G17G19G26G24G28
   -477228.87148   -356011.99646  20282052.5634                   20282050.9304
  -4131469.72348  -3195439.21946  20498363.9144                   20498362.6524
  -2292935.59847  -1772055.34445  21547871.0704                   21547870.4304
   7712206.15646   6005862.14543  23502604.2424                   23502607.3634
  -6346396.35947  -4901377.94544  23154561.0394                   23154563.7544
   6740896.00046   5251729.47744  23466637.3984                   23466635.6294
  -2085914.70746  -1030148.83243  23468433.5004                   23468434.0274
  -4462867.89147  -3436096.80144  22481671.4614                   22481673.4224
  -2079051.68747  -1602261.08245  22179553.1254                   22179551.3754
 11  8 16 18 46  0.0000000  0  9G07G08G11G13G17G19G26G24G28
   -561737.11348   -421862.60246  20265971.5084                   20265969.7384
  -4272037.37948  -3304972.45746  20471614.7894                   20471613.4694
  -2399185.51648  -1854847.48045  21527652.6804                   21527651.5594
   7730379.19947   6020022.71143  23506062.8444                   23506066.2424
  -6530345.58247  -5044714.87144  23119556.5394                   23119558.9924
   6749260.70746   5258247.38744  23468229.7504                   23468227.7664
  -2244988.04746  -1154102.05543  23438162.7274                   23438163.0124
  -4607492.77746  -3548791.49644  22454150.2584                   22454152.2274
  -2197869.30947  -1694846.22745  22156942.7734                   22156941.0314
 11  8 16 18 46 30.0000000  0  9G07G08G11G13G17G19G26G24G28
   -645917.54348   -487457.76646  20249952.2894                   20249950.6374
  -4412399.62948  -3414345.64146  20444904.7274                   20444903.1994
  -2505007.93448  -1937306.49245  21507515.2424                   21507514.2114
   7748482.81646   6034129.15243  23509508.1254                   23509511.3754
  -6714172.34047  -5187956.35244  23084575.0474                   23084577.8794
   6757661.69946   5264793.55944  23469828.4224                   23469826.5704
  -2403684.34446  -1277761.47743  23407963.2274                   23407964.3594
  -4751883.79347  -3661303.93744  22426673.2734                   22426675.0084
  -2316743.53547  -1787475.48045  22134321.9304                   22134319.8714
 11  8 16 18 47  0.0000000  0  9G07G08G11G13G17G19G26G24G28
   -729775.05148   -552801.29746  20233994.6884                   20233993.1604
  -4552559.63748  -3523561.25046  20418232.8674                   20418231.7934
  -2610407.20747  -2019435.78545  21487458.6094                   21487457.8524
   7766508.47746   6048174.86343  23512938.6724                   23512941.6374
  -6897880.68047  -5331105.55944  23049616.9224                   23049618.9344
   6766090.69546   5271361.55944  23471432.2274                   23471430.3054
  -2562006.96946  -1401129.74243  23377835.7584                   23377837.6094
  -4896043.67647  -3773636.27744  22399240.8204                   22399242.5664
  -2435680.82047  -1880153.87145  22111688.4614                   22111687.2934
 11  8 16 18 47 30.0000000  0  9G07G08G11G13G17G19G26G24G28
   -813309.09848   -617892.78946  20218098.8134                   20218097.3554
  -4692515.85948  -3632618.05946  20391600.0634                   20391599.0514
  -2715382.87148  -2101234.98445  21467482.3984                   21467481.4104
   7784452.37146   6062156.82043  23516353.5084                   23516355.6844
  -7081469.63347  -5474161.75044  23014681.0394                   23014683.0314
   6774544.20746   5277948.65644  23473040.8754                   23473038.7074
  -2719954.55546  -1524205.75443  23347779.0704                   23347780.3714
  -5039970.54347  -3885787.04744  22371852.4774                   22371854.2584
  -2554682.89147  -1972882.74645  22089043.0474                   22089041.9064
 11  8 16 18 48  0.0000000  0  9G07G08G11G13G17G19G26G24G28
   -896521.69548   -682733.79746  20202263.9224                   20202262.4304
  -4832268.89148  -3741516.52046  20365006.2894                   20365005.5704
  -2819936.99647  -2182705.71145  21447586.6254                   21447585.4264
   7802308.47746   6076070.40643  23519750.8594                   23519754.4304
  -7264940.73847  -5617126.09444  22979767.4774                   22979769.5944
   6783016.37546   5284550.29343  23474653.4144                   23474650.8284
  -2877528.39546  -1646990.59043  23317793.8754                   23317794.3634
  -5183664.74247  -3997756.50044  22344508.3674                   22344509.9734
  -2673753.29347  -2065664.86345  22066384.7814                   22066383.8484
 11  8 16 18 48 30.0000000  0  9G07G08G11G13G17G19G26G24G28
   -979414.54748   -747325.64546  20186490.3834                   20186488.5234
  -4971819.00448  -3850256.87546  20338450.5704                   20338449.3524
  -2924071.29747  -2263849.32445  21427769.5474                   21427768.9494
   7820071.20746   6089911.19543  23523131.6884                   23523135.2074
  -7448295.24647  -5759999.61744  22944876.2274                   22944878.0864
   6791501.84046   5291162.27344  23476268.0474                   23476265.8404
  -3034728.88746  -1769484.46943  23287880.0704                   23287880.3404
  -5327126.27047  -4109544.66844  22317208.7034                   22317210.1214
  -2792895.72747  -2158503.12145  22043713.3284                   22043711.7894
 11  8 16 18 49  0.0000000  0  9G07G08G11G13G17G19G26G24G28
    513438.57448    415936.50846  20470570.4614                   20470568.5164
  -3535736.38748  -2731231.46546  20611727.9774                   20611726.8914
  -1452358.53947  -1117060.15245  21707828.0084                   21707826.9144
   9413159.44146   7331278.34843  23826286.1564                   23826289.5904
  -6056102.48847  -4675173.95344  23209801.5234                   23209803.6914
   8375420.44146   6525384.49243  23777677.5394                   23777676.5904
  -1616125.99646   -664079.64143  23557830.2274                   23557831.2464
  -3894924.89547  -2993543.55144  22589747.1484                   22589748.6804
  -1336684.20747  -1023792.81645  22320820.3364                   22320818.8094
 11  8 16 18 49 30.0000000  0  9G07G08G11G13G17G19G26G24G28
    431186.04748    351843.60246  20454918.5314                   20454916.6054
  -3674874.99648  -2839651.15646  20585251.0864                   20585250.1954
  -1555651.90247  -1197548.49245  21688171.7584                   21688170.6334
   9430724.52346   7344965.12143  23829628.8984                   23829632.7424
  -6239219.92647  -4817862.74244  23174956.0864                   23174958.0314
   8383922.90646   6532009.71943  23779295.7974                   23779293.7584
  -1772575.38746   -785988.24243  23528059.0314                   23528059.4614
  -4037914.77747  -3104964.21544  22562536.9694                   22562538.1094
  -1455974.37547  -1116746.18445  22298120.6954                   22298119.5004
 11  8 16 18 50  0.0000000  0  9G07G08G11G13G17G19G26G24G28
    349266.26648    288009.99246  20439329.3834                   20439328.2934
  -3813792.90248  -2947898.89146  20558815.6954                   20558814.6724
  -1658512.34448  -1277699.47745  21668598.0004                   21668596.9694
   9448197.46546   7358580.09043  23832953.4774                   23832957.7504
  -6422205.66847  -4960448.90644  23140134.2664                   23140136.6764
   8392440.99246   6538647.11744  23780916.2424                   23780914.9104
  -1928635.16046   -907593.26643  23498362.5704                   23498362.7584
  -4180653.73847  -3216189.34444  22535374.8444                   22535376.1954
  -1575328.87947  -1209749.68445  22275408.4454                   22275406.8324
 11  8 16 18 50 30.0000000  0  9G07G08G11G13G17G19G26G24G28
    267677.45348    224434.27046  20423803.5784                   20423801.9654
  -3952490.59448  -3055975.02046  20532422.4454                   20532421.1414
  -1760941.19948  -1357514.17245  21649106.8984                   21649105.6484
   9465572.66846   7372118.88743  23836260.9304                   23836264.5824
  -6605060.65247  -5102933.16844  23105337.7814                   23105340.2624
   8400969.41046   6545292.53543  23782538.8754                   23782537.2344
  -2084305.96946  -1028895.18743  23468738.9614                   23468740.1024
  -4323141.70347  -3327218.87944  22508260.0234                   22508261.4734
  -1694750.39847  -1302805.39545  22252683.0084                   22252681.3874
 11  8 16 18 51  0.0000000  0  9G07G08G11G13G17G19G26G24G28
    186429.30948    161124.01246  20408342.5084                   20408340.9304
  -4090956.62148  -3163870.62146  20506073.2344                   20506072.1564
  -1862928.69948  -1436984.95345  21629699.5944                   21629697.7814
   9482855.91446   7385586.01243  23839550.3834                   23839554.6414
  -6787774.35547  -5245307.35944  23070568.6724                   23070570.5784
   8409514.53546   6551951.02343  23784166.3364                   23784163.1564
  -2239577.01646  -1149885.60843  23439191.6724                   23439192.6334
  -4465366.81647  -3438043.60244  22481195.2114                   22481197.0634
  -1814230.84047  -1395907.02045  22229946.6564                   22229945.0044
 11  8 16 18 51 30.0000000  0  9G07G08G11G13G17G19G26G24G28
    105521.25048     98078.75046  20392946.1954                   20392944.4734
  -4229189.98848  -3271584.93446  20479768.4774                   20479767.2074
  -1964475.80548  -1516112.56245  21610375.3364                   21610374.4064
   9500042.72746   7398978.00843  23842820.4224                   23842824.7074
  -6970346.84847  -5387571.53144  23035826.1334                   23035828.0204
   8418071.90246   6558619.02344  23785794.2504                   23785792.2424
  -2394447.87446  -1270564.19043  23409721.1644                   23409722.1484
  -4607328.64847  -3548663.15244  22454180.9144                   22454182.2624
  -1933772.89547  -1489056.65245  22207198.6884                   22207197.0274
 11  8 16 18 52  0.0000000  0  9G07G08G11G13G17G19G26G24G28
     24956.83647     35301.26246  20377615.6254                   20377613.9064
  -4367185.59848  -3379113.98846  20453508.3364                   20453507.6334
  -2065578.80547  -1594894.12145  21591136.2274                   21591134.9454
   9517132.92646   7412294.73043  23846072.9384                   23846077.3674
  -7152773.78947  -5529722.28144  23001111.2974                   23001113.3554
   8426641.45346   6565296.53543  23787425.2974                   23787422.7544
  -2548913.95346  -1390927.34843  23380327.0164                   23380327.9534
  -4749021.46147  -3659073.05544  22427217.2664                   22427219.3714
  -2053374.34847  -1582252.58245  22184438.7584                   22184437.7544
 11  8 16 18 52 30.0000000  0  9G07G08G11G13G17G19G26G24G28
    -55254.30947    -27200.96546  20362352.0234                   20362350.1994
  -4504932.67248  -3486449.37546  20427296.1414                   20427295.0084
  -2166228.21948  -1673322.23845  21571983.2424                   21571981.8524
   9534132.24646   7425540.61743  23849308.6024                   23849312.2624
  -7335045.03147  -5671751.70344  22966425.7974                   22966427.9224
   8435229.49246   6571988.43043  23789058.4844                   23789056.5554
  -2702964.65646  -1510966.84443  23351012.0474                   23351013.0984
  -4890434.31646  -3769264.85244  22400306.8054                   22400309.1334
  -2173027.49647  -1675488.78545  22161670.2274                   22161668.2504
 11  8 16 18 53  0.0000000  0  9G07G08G11G13G17G19G26G24G28
   -135101.90248    -89419.89546  20347157.4304                   20347155.7504
  -4642419.00448  -3593581.58646  20401133.3984                   20401132.3554
  -2266413.50448  -1751388.68445  21552918.2194                   21552917.0434
   9551047.08246   7438720.69943  23852527.9694                   23852531.3094
  -7517149.56247  -5813651.22744  22931773.0554                   22931774.5124
   8443842.64346   6578699.92643  23790698.6564                   23790695.4734
  -2856588.59846  -1630673.80943  23321779.2274                   23321779.5634
  -5031555.03147  -3879229.04344  22373452.8984                   22373454.5044
  -2292723.41447  -1768758.32045  22138892.4774                   22138890.8914
 11  8 16 18 53 30.0000000  0  9G07G08G11G13G17G19G26G24G28
   -214590.44147   -151359.02746  20332031.1254                   20332029.3674
  -4779647.23848  -3700512.68446  20375019.5784                   20375018.5434
  -2366139.12147  -1829096.96145  21533941.0084                   21533940.1484
   9567869.61346   7451828.81643  23855728.9534                   23855733.2424
  -7699090.78947  -5955423.50044  22897150.2034                   22897152.0474
   8452473.44546   6585425.14843  23792341.0394                   23792338.0274
  -3009789.12746  -1750050.83443  23292625.4064                   23292626.5514
  -5172385.89847  -3988967.37144  22346654.0164                   22346655.2814
  -2412467.75047  -1862065.57445  22116105.9304                   22116104.5234
 11  8 16 18 54  0.0000000  0  9G07G08G11G13G17G19G26G24G28
   -293713.41447   -213013.31246  20316974.4064                   20316972.9264
  -4916609.78948  -3807236.75446  20348956.8834                   20348956.0474
  -2465399.10247  -1906442.38745  21515052.8054                   21515051.3954
   9584602.37946   7464867.05542  23858913.1334                   23858917.5984
  -7880861.72347  -6097063.07444  22862560.9844                   22862562.5164
   8461124.45746   6592166.15243  23793987.4774                   23793984.4384
  -3162558.65246  -1869092.01643  23263554.3834                   23263555.0164
  -5312918.99647  -4098473.62144  22319911.6954                   22319913.0474
  -2532255.82847  -1955406.92645  22093310.8364                   22093309.3954
 11  8 16 18 54 30.0000000  0  9G07G08G11G13G17G19G26G24G28
   -372466.04348   -274379.03146  20301988.8674                   20301986.9064
  -5053300.20748  -3913748.78546  20322945.2194                   20322944.2814
  -2564188.39147  -1983421.05545  21496253.4614                   21496252.7974
   9601246.06646   7477835.84842  23862080.8364                   23862085.3404
  -8062457.22347  -6238565.96144  22828004.2274                   22828005.4494
   8469797.40246   6598924.23042  23795637.8134                   23795634.6604
  -3314891.58246  -1987792.99644  23234566.5314                   23234567.2624
  -5453147.86347  -4207742.80944  22293226.9614                   22293228.2384
  -2652084.61747  -2048779.99645  22070508.7274                   22070506.7274
 11  8 16 18 55  0.0000000  0  9G07G08G11G13G17G19G26G24G28
   -450836.44948   -335446.90646  20287075.0554                   20287073.4184
  -5189705.07048  -4020038.29746  20296988.4774                   20296987.2894
  -2662495.45747  -2060023.94945  21477546.4534                   21477544.9844
   9617809.12146   7490741.83642  23865232.6644                   23865237.0394
  -8243864.35547  -6379922.04745  22793482.8284                   22793485.0664
   8478500.60246   6605705.90643  23797294.2974                   23797291.3014
  -3466775.03546  -2106143.71543  23205664.1724                   23205664.7664
  -5593059.05147  -4316764.47344  22266602.6564                   22266604.0984
  -2771943.55147  -2142176.55545  22047699.8364                   22047698.3984
 11  8 16 18 55 30.0000000  0  9G07G08G11G13G17G19G26G24G28
   -528824.07447   -396216.49646  20272234.5864                   20272232.7814
  -5325822.13748  -4126103.55146  20271086.2584                   20271084.8634
  -2760319.44147  -2136250.41045  21458931.1644                   21458929.7424
   9634288.36746   7503582.48442  23868369.4774                   23868373.5354
  -8425081.63347  -6521130.19544  22758998.8674                   22759000.1254
   8487231.34846   6612508.99643  23798955.3754                   23798953.4964
  -3618207.40246  -2224142.96143  23176847.0704                   23176847.9024
  -5732650.05547  -4425536.65644  22240039.4924                   22240041.2544
  -2891833.38747  -2235597.19545  22024885.9924                   22024883.9734
 11  8 16 18 56  0.0000000  0  9G07G08G11G13G17G19G26G24G28
   -606421.20748   -456681.82446  20257468.0394                   20257467.0164
  -5461641.57448  -4231936.89146  20245240.7424                   20245239.4774
  -2857652.62547  -2212094.43745  21440409.7344                   21440407.8524
   9650688.58246   7516361.53943  23871490.2734                   23871495.1414
  -8606100.77747  -6662183.94944  22724551.8914                   22724553.0784
   8495994.28946   6619337.17643  23800623.1644                   23800621.1024
  -3769179.21146  -2341783.31643  23148118.7344                   23148118.6134
  -5871910.94547  -4534051.60244  22213538.7034                   22213540.3674
  -3011747.28147  -2329036.58645  22002066.8834                   22002064.9454
 11  8 16 18 56 30.0000000  0  9G07G08G11G13G17G19G26G24G28
   -683617.50448   -516834.80946  20242778.3204                   20242777.3324
  -5597151.65248  -4337529.16846  20219454.2734                   20219452.8094
  -2954485.04347  -2287548.24645  21421982.4844                   21421981.4924
   9667015.55546   7529083.50842  23874597.0554                   23874602.4104
  -8786910.84847  -6803074.78944  22690144.4694                   22690146.3954
   8504796.19946   6626195.75042  23802297.7114                   23802296.3054
  -3919680.26646  -2459056.84043  23119478.5704                   23119479.9304
  -6010830.21147  -4642300.34844  22187102.9614                   22187104.8134
  -3131677.10547  -2422488.39145  21979244.5394                   21979242.7854
 11  8 16 18 57  0.0000000  0  9G07G08G11G13G17G19G26G24G28
    815010.89848    650927.57446  20527957.9144                   20527956.2894
  -4156924.63748  -3215274.35946  20493519.7584                   20493518.6994
  -1475392.14547  -1135008.30945  21703444.2424                   21703443.1764
  11258686.88745   8769346.58642  24177481.7034                   24177488.0474
  -7392083.10947  -5716195.90644  22955571.2974                   22955573.0394
  10089054.93446   7860683.02342  24103771.6804                   24103771.5594
  -2494282.52346  -1348357.28543  23390723.1414                   23390723.7854
  -4573979.89547  -3522676.70744  22460526.5474                   22460528.2464
  -1676198.76647  -1288349.41045  22256212.9144                   22256211.3714
 11  8 16 18 57 30.0000000  0  9G07G08G11G13G17G19G26G24G28
    738628.64847    591408.90246  20513423.0314                   20513421.2194
  -4291798.34048  -3320370.76246  20467854.4304                   20467853.4064
  -1571210.61747  -1209672.05145  21685210.7664                   21685209.9844
  11274869.64846   8781956.11343  24180561.3834                   24180567.1644
  -7572459.75047  -5856749.00844  22921246.7734                   22921248.0164
  10097937.42246   7867604.34843  24105461.9064                   24105461.5124
  -2643825.65246  -1464884.39843  23362265.7734                   23362266.6024
  -4712197.68047  -3630378.85544  22434224.6804                   22434226.1484
  -1796151.75447  -1381819.26645  22233387.0004                   22233385.2274
 11  8 16 18 58  0.0000000  0  9G07G08G11G13G17G19G26G24G28
    662657.58248    532210.64846  20498965.9304                   20498964.6844
  -4426347.13347  -3425213.98446  20442250.4224                   20442249.4064
  -1666518.18047  -1283937.67245  21667074.3054                   21667073.4774
  11290979.43846   8794508.86742  24183628.3444                   24183633.1884
  -7752614.78947  -5997129.45344  22886964.5004                   22886965.5704
  10106859.50046   7874556.51643  24107160.8594                   24107159.1254
  -2792883.90646  -1581033.69143  23333900.3444                   23333901.7854
  -4850058.03947  -3737802.48044  22407991.0004                   22407991.7974
  -1916113.73447  -1475296.12145  22210558.2894                   22210557.1214
 11  8 16 18 58 30.0000000  0  9G07G08G11G13G17G19G26G24G28
    587094.81348    473330.53946  20484586.9454                   20484585.3754
  -4560572.24648  -3529804.98846  20416708.2734                   20416707.2114
  -1761317.50447  -1357807.27345  21649034.7034                   21649033.1174
  11307009.66446   8806999.62543  24186678.3594                   24186683.8094
  -7932549.90647  -6137338.50844  22852723.5944                   22852725.6254
  10115815.17646   7881534.90643  24108865.1724                   24108862.9884
  -2941459.26646  -1696806.69143  23305627.9614                   23305628.8954
  -4987561.82447  -3844948.24644  22381824.4694                   22381826.1994
  -2036089.10547  -1568783.40245  22187727.9454                   22187726.9654
 11  8 16 18 59  0.0000000  0  9G07G08G11G13G17G19G26G24G28
    511940.22748    414768.49246  20470285.7194                   20470283.5554
  -4694471.73848  -3634142.26246  20391228.2114                   20391227.2034
  -1855609.03948  -1431281.18745  21631091.6804                   21631090.8914
  11322956.78546   8819425.61743  24189713.6414                   24189719.1484
  -8112264.52747  -6277375.76644  22818524.9144                   22818526.6884
  10124801.27746   7888537.00443  24110574.6254                   24110573.1604
  -3089551.03146  -1812202.85243  23277446.5474                   23277447.9414
  -5124707.36347  -3951814.85944  22355726.7814                   22355728.1724
  -2156079.32447  -1662282.25445  22164895.2584                   22164893.3634
 11  8 16 18 59 30.0000000  0  9G07G08G11G13G17G19G26G24G28
    437188.62548    356520.46546  20456060.8364                   20456059.2274
  -4828049.58248  -3738228.89846  20365808.9304                   20365807.9654
  -1949398.16447  -1504363.62145  21613243.9534                   21613242.8444
  11338811.82046   8831779.88743  24192731.3674                   24192736.4964
  -8291762.75447  -6417244.39145  22784368.0554                   22784369.3594
  10133809.35546   7895556.23443  24112288.9694                   24112287.4774
  -3237163.28946  -1927225.40243  23249357.4694                   23249358.4774
  -5261498.05947  -4058404.97344  22329696.5164                   22329698.1374
  -2276090.93747  -1755797.78945  22142057.4454                   22142055.5704
 11  8 16 19  0  0.0000000  0  9G07G08G11G13G17G19G26G24G28
    362843.88748    298589.47346  20441913.6024                   20441912.0204
  -4961300.08648  -3842060.46546  20340452.5084                   20340451.3674
  -2042681.31647  -1577051.79345  21595493.1254                   21595491.3244
  11354575.25846   8844062.78943  24195730.8834                   24195736.5204
  -8471040.60547  -6556941.30545  22750252.0164                   22750253.8634
  10142840.00846   7902593.04743  24114007.5234                   24114006.3404
  -3384291.38346  -2041870.70743  23221359.7114                   23221360.2934
  -5397928.50047  -4164714.37544  22303734.2274                   22303735.4384
  -2396121.45347  -1849328.04345  22119216.1414                   22119214.9614
 11  8 16 19  0 30.0000000  0  9G07G08G11G13G17G19G26G24G28
    288907.92248    240976.98846  20427843.9064                   20427842.1844
  -5094219.22348  -3945633.82846  20315158.7504                   20315157.7584
  -2135456.54347  -1649344.17645  21577837.9454                   21577837.0474
  11370245.87546   8856273.32442  24198712.8364                   24198718.9694
  -8650095.13347  -6696464.21145  22716178.8524                   22716180.7664
  10151892.27046   7909646.66843  24115730.0554                   24115728.9534
  -3530932.12546  -2156136.23443  23193454.8284                   23193456.1914
  -5533994.84047  -4270740.05145  22277841.6724                   22277843.1954
  -2516169.84447  -1942872.23045  22096371.3914                   22096370.3284
 11  8 16 19  1  0.0000000  0  9G07G08G11G13G17G19G26G24G28
    215376.89848    183680.05946  20413851.5084                   20413849.6844
  -5226809.49648  -4048950.93746  20289927.9304                   20289926.6604
  -2227728.02747  -1721244.03145  21560279.2664                   21560278.4024
  11385815.89546   8868405.48043  24201676.4224                   24201681.8594
  -8828929.22347  -6835815.35545  22682148.1484                   22682149.4184
  10160959.12146   7916711.64142  24117455.6094                   24117454.4264
  -3677088.48846  -2270024.30543  23165643.2894                   23165643.2114
  -5669699.22346  -4376483.68744  22252018.1414                   22252019.5634
  -2636240.98047  -2036434.14145  22073523.1094                   22073521.3444
 11  8 16 19  1 30.0000000  0  9G07G08G11G13G17G19G26G24G28
    142249.43048    126697.58246  20399935.8054                   20399934.2504
  -5359070.10948  -4152011.17246  20264759.3134                   20264758.3094
  -2319497.10247  -1792752.41045  21542816.8594                   21542815.6884
  11401281.02046   8880455.93042  24204619.3754                   24204625.3134
  -9007543.29347  -6974995.03945  22648159.3284                   22648160.6604
  10170036.27746   7923784.69542  24119183.5314                   24119182.0474
  -3822760.87546  -2383535.27043  23137922.0164                   23137922.6884
  -5805040.96147  -4481944.73844  22226263.5394                   22226265.2504
  -2756337.60547  -2130015.92645  22050669.0314                   22050667.9264
 11  8 16 19  2  0.0000000  0  9G07G08G11G13G17G19G26G24G28
     69515.16848     70021.51246  20386095.5314                   20386093.5314
  -5491009.93048  -4254821.43046  20239652.1644                   20239650.8984
  -2410774.44947  -1863877.61745  21525447.3834                   21525445.9024
  11416627.45745   8892413.79742  24207538.4144                   24207546.6564
  -9185947.05547  -7114010.84845  22614209.1884                   22614211.3874
  10179110.37546   7930855.33243  24120909.7034                   24120908.8524
  -3967958.53146  -2496676.30543  23110291.7344                   23110292.5164
  -5940028.89847  -4587130.07844  22200575.7274                   22200577.8284
  -2876471.20347  -2223626.49645  22027808.7584                   22027807.0944
 11  8 16 19  2 30.0000000  0  9G07G08G11G13G17G19G26G24G28
     -2824.83248     13652.64846  20372328.7894                   20372327.6604
  -5622625.98848  -4357379.41046  20214606.2344                   20214605.3284
  -2501559.00447  -1934618.84445  21508170.6334                   21508170.4304
  11431852.80945   8904277.39542  24210437.5944                   24210445.2194
  -9364138.72747  -7252861.39844  22580300.1174                   22580302.1454
  10188179.17646   7937921.80943  24122635.3134                   24122634.3674
  -4112679.79747  -2609446.14843  23082752.3444                   23082752.7934
  -6074660.11347  -4692037.46144  22174956.3364                   22174958.3204
  -2996642.20347  -2317266.23045  22004941.2664                   22004939.7854
 11  8 16 19  3  0.0000000  0  9G07G08G11G13G17G19G26G24G28
    -74778.89148    -42415.48846  20358636.6954                   20358635.1254
  -5753924.42648  -4459689.89146  20189621.0004                   20189619.7504
  -2591859.23447  -2004982.66045  21490987.8054                   21490986.5664
  11446945.93045   8916037.91842  24213310.0394                   24213317.0664
  -9542125.44947  -7391552.24245  22546430.6644                   22546432.0704
  10197231.92246   7944975.80942  24124358.8134                   24124357.0744
  -4256931.59046  -2721850.14543  23055301.3674                   23055302.6764
  -6208940.94547  -4796671.83244  22149403.8444                   22149405.3714
  -3116859.33247  -2410941.89845  21982064.2194                   21982063.2034
 11  8 16 19  3 30.0000000  0  9G07G08G11G13G17G19G26G24G28
   -146348.03948    -98183.68446  20345017.7274                   20345016.2934
  -5884904.89148  -4561752.60946  20164696.2424                   20164695.5234
  -2681676.47347  -2074970.12545  21473896.4614                   21473894.3834
  11461901.94146   8927691.64842  24216156.1094                   24216163.9654
  -9719907.62147  -7530083.69945  22512599.7664                   22512601.5784
  10206264.00846   7952013.77742  24126076.3594                   24126075.6764
  -4400714.51647  -2833888.76643  23027941.2274                   23027941.8364
  -6342870.99647  -4901032.87144  22123916.9534                   22123918.7034
  -3237124.91848  -2504655.33245  21959178.8524                   21959177.2274
 11  8 16 19  4  0.0000000  0  9G07G08G11G13G17G19G26G24G28
   -217534.95348   -153654.04746  20331471.1334                   20331470.1134
  -6015568.32848  -4663568.28946  20139831.7274                   20139830.7894
  -2771013.43747  -2144583.34845  21456896.0634                   21456894.7854
  11476715.14546   8939234.07042  24218976.3834                   24218982.4024
  -9897486.89847  -7668457.04345  22478807.7664                   22478808.9344
  10215270.66846   7959031.87942  24127790.6954                   24127789.7854
  -4544029.91046  -2945563.10243  23000668.8834                   23000669.6134
  -6476450.86747  -5005121.02744  22098497.8594                   22098499.5594
  -3357442.72347  -2598409.46145  21936282.4304                   21936281.2234
 11  8 16 19  4 30.0000000  0  9G07G08G11G13G17G19G26G24G28
   -288337.43048   -208824.82446  20317998.3054                   20317996.6684
  -6145910.14548  -4765133.35246  20115028.8674                   20115027.4694
  -2859868.11747  -2213820.76245  21439987.0394                   21439986.6684
  11491384.65146   8950664.54742  24221767.5164                   24221773.6644
 -10074860.18447  -7806669.87945  22445053.9694                   22445055.7544
  10224251.15646   7966029.58242  24129499.1724                   24129498.6454
  -4686874.52747  -3056870.59843  22973486.9224                   22973487.4804
  -6609676.14546  -5108932.89544  22073146.0004                   22073147.1024
  -3477811.30547  -2692203.16045  21913377.7344                   21913376.8524
 11  8 16 19  5  0.0000000  0  9G07G08G11G13G17G19G26G24G28
   -358761.62548   -263700.85546  20304596.8914                   20304595.2814
  -6275934.77048  -4866451.25446  20090285.9694                   20090284.9384
  -2948247.16447  -2282687.55145  21423169.4304                   21423168.5084
  11505901.08246   8961975.69143  24224529.9454                   24224535.4414
 -10252032.80947  -7944726.35945  22411339.8594                   22411341.0004
  10233196.10946   7972999.61342  24131202.3134                   24131201.5744
  -4829253.66847  -3167815.38343  22946392.5864                   22946393.6484
  -6742551.58247  -5212472.12144  22047860.5554                   22047861.8674
  -3598237.92647  -2786042.08645  21890461.0474                   21890459.3834
 11  8 16 19  5 30.0000000  0  9G07G08G11G13G17G19G26G24G28
   1146613.25448    909318.51646  20591060.3284                   20591058.7384
  -4830217.53148  -3739918.35246  20365396.9224                   20365395.9144
  -1460729.41047  -1123582.82445  21706234.8914                   21706234.1564
  13095678.86346  10200763.24243  24527055.0554                   24527060.3444
  -8853579.71947  -6855022.53945  22677456.4454                   22677458.0234
  11817520.67246   9207538.19543  24432689.0164                   24432688.4384
  -3395743.48447  -2050794.45343  23219180.8984                   23219181.4304
  -5299652.87947  -4088135.43744  22322434.9454                   22322436.6454
  -2143301.03147  -1652325.01645  22167326.3754                   22167324.5704
 11  8 16 19  6  0.0000000  0  9G07G08G11G13G17G19G26G24G28
   1076932.57448    855021.85546  20577800.6804                   20577799.3244
  -4959615.37548  -3840747.84846  20340773.1724                   20340772.1764
  -1548170.83247  -1191719.00045  21689594.9384                   21689593.8754
  13109866.18846  10211817.96143  24529754.4694                   24529760.9384
  -9030361.61347  -6992774.54745  22643815.9614                   22643817.7114
  11826372.98446   9214436.04743  24434373.5394                   24434372.6214
  -3537202.31647  -2161022.12143  23192261.5554                   23192262.3444
  -5431836.62146  -4191135.69144  22297281.1724                   22297282.6374
  -2263859.59447  -1746266.75045  22144384.5474                   22144382.9494
 11  8 16 19  6 30.0000000  0  9G07G08G11G13G17G19G26G24G28
   1007621.47348    801013.18046  20564611.0704                   20564609.7854
  -5088699.33248  -3941332.75446  20316209.2734                   20316208.3054
  -1635145.84447  -1259491.74645  21673044.2424                   21673042.9734
  13123881.91446  10222738.96943  24532422.5394                   24532428.9884
  -9206949.03147  -7130375.02345  22610212.3754                   22610213.6024
  11835172.64146   9221292.83643  24436048.9224                   24436047.5554
  -3678201.69547  -2270891.73843  23165430.8524                   23165431.2274
  -5563673.88747  -4293865.98844  22272193.7114                   22272194.7114
  -2384487.98847  -1840262.90245  22121430.2114                   22121428.6804
 11  8 16 19  7  0.0000000  0  9G07G08G11G13G17G19G26G24G28
    938680.47348    747292.88346  20551491.9304                   20551490.3874
  -5217466.52048  -4041670.83646  20291705.6174                   20291704.9064
  -1721653.96147  -1326900.66845  21656582.4384                   21656581.2384
  13137724.10946  10233524.73443  24535056.8364                   24535063.2464
  -9383340.15647  -7267822.53145  22576646.3054                   22576647.4414
  11843917.77346   9228107.17643  24437712.8054                   24437711.8404
  -3818739.91447  -2380402.05544  23138686.8444                   23138688.1844
  -5695161.96547  -4396324.18444  22247172.0394                   22247173.6214
  -2505185.91047  -1934313.23045  22098462.0944                   22098460.4414
 11  8 16 19  7 30.0000000  0  9G07G08G11G13G17G19G26G24G28
    870102.32448    693855.34046  20538441.8444                   20538440.3524
  -5345922.43748  -4141766.35946  20267261.2584                   20267260.2274
  -1807702.96547  -1393951.85245  21640208.0784                   21640206.3404
  13151382.12546  10244166.95343  24537655.8754                   24537662.2304
  -9559541.75447  -7405122.37145  22543116.0634                   22543117.5824
  11852598.27046   9234871.07443  24439363.9614                   24439363.6524
  -3958823.60247  -2489558.18044  23112029.5864                   23112030.9224
  -5826306.64147  -4498514.79344  22222215.6414                   22222217.1724
  -2625961.84847  -2028424.35245  22075479.2734                   22075477.4104
 11  8 16 19  8  0.0000000  0  9G07G08G11G13G17G19G26G24G28
    801893.82848    640705.83246  20525462.2974                   20525460.9574
  -5474058.77348  -4241612.86746  20242877.5944                   20242876.7584
  -1893286.44147  -1460640.28545  21623921.6724                   21623920.3794
  13164859.69546  10254668.60542  24540220.6254                   24540226.9844
  -9735545.94147  -7542268.40245  22509623.8054                   22509624.5704
  11861218.32846   9241587.94943  24441004.7114                   24441003.9344
  -4098445.04346  -2598354.08643  23085460.8284                   23085461.5904
  -5957099.35947  -4600431.14844  22197326.7664                   22197328.2734
  -2746809.51247  -2122591.36745  22052482.2114                   22052480.5004
 11  8 16 19  8 30.0000000  0  9G07G08G11G13G17G19G26G24G28
    734060.02748    587848.28146  20512554.0784                   20512552.6484
  -5601868.14848  -4341204.59446  20218556.2344                   20218555.3284
  -1978399.23447  -1526961.94145  21607725.4844                   21607723.7734
  13178158.85546  10265031.23042  24542752.0084                   24542759.0124
  -9911346.69947  -7679255.89145  22476169.6804                   22476170.5084
  11869780.00446   9248259.31343  24442633.8524                   24442632.9884
  -4237598.17247  -2706785.08643  23058981.1334                   23058981.1914
  -6087533.30147  -4702067.94144  22172505.7894                   22172507.6914
  -2867724.91447  -2216811.16045  22029473.1954                   22029471.3284
 11  8 16 19  9  0.0000000  0  9G07G08G11G13G17G19G26G24G28
    666618.06648    535296.07046  20499720.5314                   20499718.8054
  -5729331.30947  -4440526.55546  20194301.1174                   20194300.1134
  -2063024.49647  -1592903.71145  21591621.6724                   21591620.4384
  13191294.02745  10275265.89842  24545249.9774                   24545259.0124
 -10086925.63747  -7816070.53545  22442757.9224                   22442758.8244
  11878298.37145   9254896.92243  24444255.3754                   24444253.9024
  -4376264.93047  -2814837.10543  23032593.4454                   23032594.3484
  -6217589.06647  -4803410.06244  22147757.2504                   22147758.5704
  -2988691.46948  -2311070.80945  22006454.1414                   22006452.2504
 11  8 16 19  9 30.0000000  0  9G07G08G11G13G17G19G26G24G28
    599574.33648    483054.13346  20486962.4224                   20486960.6414
  -5856440.61348  -4539572.77746  20170112.9614                   20170111.9884
  -2147156.50847  -1658461.13345  21575612.0164                   21575610.5434
  13204267.980 5                  24547720.836
 -10262276.18047  -7952707.22345  22409390.2664                   22409390.4774
  11886776.51245   9261503.16843  24445868.5164                   24445867.9614
  -4514438.63747  -2922504.94143  23006300.2894                   23006300.8524
  -6347259.10947  -4904451.62944  22123081.6954                   22123082.4804
  -3109704.17247  -2405366.41845  21983425.9304                   21983424.2854
 11  8 16 19 10  0.0000000  0  9G07G08G11G13G17G19G26G24G28
    532931.06347    431124.27346  20474280.6954                   20474278.9694
  -5983191.37948  -4638339.61746  20145992.9384                   20145991.7704
  -2230793.09447  -1723632.50845  21559696.5164                   21559695.2624
  13217080.469 6                  24550159.609
 -10437394.73447  -8089163.14145  22376065.3834                   22376066.8324
  11895214.54745   9268078.16842  24447473.8204                   24447473.5124
  -4652115.63747  -3029785.69543  22980100.8914                   22980101.1524
  -6476539.00447  -5005189.16044  22098480.9144                   22098481.6054
  -3230761.15647  -2499696.53545  21960389.5634                   21960388.1604
 11  8 16 19 10 30.0000000  0  9G07G08G11G13G17G19G26G24G28
    466684.42648    379503.49246  20461674.4384                   20461672.7664
  -6109584.95347  -4736828.14146  20121940.9224                   20121940.1954
  -2313938.31647  -1788420.99645  21543874.5164                   21543873.0514
  13229724.906 6                  24552564.781
 -10612283.87147  -8225440.28945  22342784.6094                   22342786.5784
  11903606.57045   9274617.31342  24449070.9304                   24449070.7424
  -4789298.75847  -3136681.65644  22953995.7274                   22953996.3794
  -6605430.32447  -5105623.90244  22073953.7894                   22073954.6024
  -3351866.33647  -2594064.20345  21937344.1024                   21937342.7234
 11  8 16 19 11  0.0000000  0  9G07G08G11G13G17G19G26G24G28
    400829.93048    328188.25846  20449142.8444                   20449141.1954
  -6235624.53147  -4835040.82046  20097956.5394                   20097955.8674
  -2396596.69147  -1852830.13345  21528145.3444                   21528144.2194
  13242193.965 6                  24554938.023
 -10786947.42247  -8361541.67245  22309547.8754                   22309548.9414
  11911945.31646   9281114.93842  24450658.1644                   24450657.3554
  -4925991.58647  -3243195.53544  22927984.3134                   22927985.4264
  -6733936.16447  -5205758.27744  22049499.9144                   22049499.9734
  -3473025.02747  -2688473.57445  21914288.0394                   21914286.5704
 11  8 16 19 11 30.0000000  0  9G07G08G11G13G17G19G26G24G28
    335365.90247    277177.29346  20436685.3284                   20436683.8284
  -6361309.75448  -4932977.37146  20074039.7584                   20074038.6454
  -2478770.79347  -1916861.91045  21512507.7274                   21512506.9734
  13254482.723 6                  24557277.727
 -10961386.03947  -8497467.76645  22276353.2974                   22276354.3554
                                  24452234.3754                   24452233.2194
  -5062195.27347  -3349328.29344  22902065.1884                   22902066.1804
  -6862056.37947  -5305592.17644  22025119.1334                   22025119.4654
  -3594240.10947  -2782926.88345  21891221.9144                   21891220.6254
 11  8 16 19 12  0.0000000  0  9G07G08G11G13G17G19G26G24G28
    270291.20747    226469.69146  20424301.8524                   20424300.6414
  -6486639.95748  -5030637.28146  20050190.4144                   20050189.0784
  -2560461.73047  -1980517.19545  21496962.8594                   21496961.1414
  13266587.438 6                  24559581.766
 -11135599.78547  -8633218.65645  22243201.2274                   22243202.1604
  11928445.70756   9293972.26653  24453799.2814                   24453796.9844
  -5197910.19146  -3455080.17643  22876239.7194                   22876240.2584
  -6989790.37547  -5405125.12544  22000811.7424                   22000812.7704
  -3715512.64547  -2877424.97345  21868144.5394                   21868142.9614
 11  8 16 19 12 30.0000000  0  8G07G08G11G17G19G26G24G28
    205599.32447    176060.38346  20411991.4694                   20411989.9264
  -6611619.28948  -5128023.79346  20026407.4304                   20026406.5004
  -2641676.60947  -2043801.52745  21481508.3914                   21481506.8404
 -11309594.58247  -8768798.94145  22210091.0084                   22210091.8714
  11936594.91846   9300322.21543  24455348.3444                   24455347.9734
  -5333141.98047  -3560455.60543  22850505.9454                   22850506.5634
  -7117142.99247  -5504360.91044  21976577.7274                   21976578.5944
  -3836850.42647  -2971973.88745  21845054.6024                   21845053.3754
 11  8 16 19 13  0.0000000  0  8G07G08G11G17G19G26G24G28
    141284.69947    125945.04746  20399752.7194                   20399751.6604
  -6736250.93048  -5225139.37146  20002690.8594                   20002689.8484
  -2722420.93447  -2106719.18745  21466142.8674                   21466141.8754
 -11483374.55147  -8904211.82445  22177022.1484                   22177022.9734
  11944666.33246   9306611.54742  24456885.0394                   24456884.2854
  -5467894.78947  -3665457.78144  22824863.5784                   22824863.6524
  -7244117.61347  -5603302.14844  21952415.2344                   21952415.6844
  -3958258.96947  -3066577.94545  21821951.2894                   21821950.1764
 11  8 16 19 13 30.0000000  0  8G07G08G11G17G19G26G24G28
   1652777.66447   1303731.73446  20687380.6804                   20687378.8834
  -5285100.89548  -4094373.12546  20278835.4844                   20278834.6564
  -1227264.39847   -941662.14145  21750661.9144                   21750660.3554
 -10081504.55147  -7811845.51245  22443789.0234                   22443789.6604
  13528085.67246  10540444.72743  24758199.8204                   24758198.1764
  -4026735.33646  -2542476.41443  23099107.6024                   23099107.8674
  -5795280.00447  -4474337.75844  22228120.0474                   22228120.7934
  -2504306.82847  -1933628.21545  22098629.1414                   22098627.8754
 11  8 16 19 14  0.0000000  0  8G07G08G11G17G19G26G24G28
   1589233.28548   1254216.59446  20675288.5234                   20675286.9614
  -5409016.32047  -4190930.60546  20255255.1094                   20255254.2194
  -1307053.50047  -1003835.47745  21735478.2504                   21735476.7424
 -10254836.19147  -7946909.03945  22410804.9304                   22410805.7074
  13536009.75046  10546619.30142  24759708.0004                   24759706.5554
  -4160512.72746  -2646718.53544  23073649.3134                   23073650.1954
  -5921477.62947  -4572673.54744  22204105.3444                   22204106.2584
  -2625843.15247  -2028331.84445  22075501.4534                   22075499.7304
 11  8 16 19 14 30.0000000  0  8G07G08G11G17G19G26G24G28
   1526072.71948   1205000.49246  20663269.1334                   20663268.0744
  -5532572.20347  -4287207.93046  20231743.4774                   20231742.4804
  -1386366.71547  -1065637.98845  21720385.2114                   21720384.1024
 -10427943.93747  -8081798.10945  22377863.2194                   22377864.1214
  13543855.07446  10552732.44542  24761200.6724                   24761199.2464
  -4293802.64847  -2750580.80543  23048284.8364                   23048286.3094
  -6047285.50847  -4670705.63744  22180165.2274                   22180165.6604
  -2747445.79747  -2123087.15645  22052361.3134                   22052359.5514
 11  8 16 19 15  0.0000000  0  8G07G08G11G17G19G26G24G28
   1463286.93048   1156076.44946  20651321.8834                   20651320.8404
  -5655774.88347  -4383210.02746  20208298.6254                   20208297.4344
  -1465213.39147  -1127076.97345  21705381.5234                   21705380.0744
 -10600835.25847  -8216518.52045  22344963.6174                   22344964.0124
  13551610.89546  10558775.91443  24762676.1254                   24762675.4574
  -4426613.03946  -2854069.44943  23023012.5084                   23023013.2384
  -6172710.71147  -4768439.54344  22156297.7194                   22156298.5474
  -2869123.47347  -2217900.90245  22029207.0944                   22029205.3674
 11  8 16 19 15 30.0000000  0  8G07G08G11G17G19G26G24G28
   1400878.19947   1107446.21546  20639445.9224                   20639444.7584
  -5778620.23047  -4478933.68746  20184921.8594                   20184920.9024
  -1543591.77747  -1188151.03945  21690466.5944                   21690465.0274
 -10773506.99647  -8351067.84845  22312105.2034                   22312105.4924
  13559276.96546  10564749.41043  24764136.1954                   24764133.7664
  -4558941.03146  -2957182.16043  22997832.0234                   22997832.4774
  -6297749.27347  -4865872.16444  22132503.3134                   22132503.9304
  -2990874.62947  -2312771.93745  22006038.1954                   22006036.9964
 11  8 16 19 16  0.0000000  0  8G07G08G11G17G19G26G24G28
   1338853.34448   1059115.11346  20627643.2274                   20627641.7814
  -5901099.52348  -4574372.11346  20161615.0084                   20161613.8714
  -1621495.17647  -1248854.98445  21675642.1414                   21675640.4654
 -10945951.18747  -8485439.85945  22279290.0554                   22279290.7974
  13566857.81646  10570656.49243  24765579.5394                   24765576.8674
  -4690778.81247  -3059912.91844  22972743.8834                   22972744.3954
  -6422392.43747  -4962996.67244  22108784.7664                   22108785.0274
  -3112692.83647  -2407695.20345  21982857.2974                   21982856.0744
 11  8 16 19 16 30.0000000  0  8G07G08G11G17G19G26G24G28
   1277213.30548   1011083.86746  20615913.0634                   20615911.7384
  -6023209.68448  -4669522.90246  20138377.8754                   20138377.3484
  -1698922.90247  -1309188.29345  21660908.3134                   21660906.1214
 -11118165.66447  -8619632.85245  22246518.5394                   22246519.4144
  13574352.61746  10576496.53143  24767005.1174                   24767002.5394
  -4822124.59046  -3162260.28543  22947748.9144                   22947750.0124
  -6546637.25447  -5059810.78944  22085141.0394                   22085142.0204
  -3234577.39847  -2502670.18045  21959663.1024                   21959661.3794
 11  8 16 19 17  0.0000000  0  8G07G08G11G17G19G26G24G28
   1215964.12548    963357.20746  20604258.1414                   20604256.7814
  -6144942.78948  -4764379.87546  20115213.0234                   20115211.6804
  -1775869.49647  -1369146.68045  21646265.2814                   21646263.9534
 -11290143.45347  -8753641.42645  22213791.8914                   22213792.9654
  13581765.16046  10582272.48843  24768415.0554                   24768413.8834
  -4952971.69547  -3264219.08244  22922850.1954                   22922850.1524
  -6670476.42647  -5156308.81644  22061575.7734                   22061576.1294
  -3356522.75047  -2597692.53545  21936457.9064                   21936456.1954
 11  8 16 19 17 30.0000000  0  8G07G08G11G17G19G26G24G28
   1155114.10548    915941.55946  20592678.5314                   20592677.7664
  -6266288.07448  -4858934.65646  20092122.1564                   20092120.8364
  -1852326.93447  -1428723.90645  21631716.5784                   21631715.0904
 -11461875.57847  -8887458.57045  22181112.4304                   22181113.0394
  13589101.41446  10587988.96142  24769811.3914                   24769810.5744
  -5083311.12147  -3365782.27344  22898046.9224                   22898047.9224
  -6793899.42647  -5252482.56644  22038089.0084                   22038089.4414
  -3478520.75447  -2692755.90245  21913242.3674                   21913240.7664
 11  8 16 19 18  0.0000000  0  8G07G08G11G17G19G26G24G28
   1094674.28148    868845.54346  20581177.5234                   20581176.2154
  -6387232.73847  -4953177.27046  20069106.9304                   20069105.7304
  -1928284.74247  -1487911.80945  21617262.1254                   21617260.2734
 -11633349.75847  -9021074.72345  22148482.2814                   22148482.4494
  13596370.33245  10593652.99242  24771194.2114                   24771194.2704
  -5213130.94146  -3466940.59443  22873343.3754                   22873343.6604
  -6916893.38747  -5348321.96944  22014683.6094                   22014684.4344
  -3600560.80147  -2787852.03945  21890018.8914                   21890017.1684
 11  8 16 19 18 30.0000000  0  7G07G08G11G17G26G24G28
   1034654.84848    822077.09046  20569756.4614                   20569754.5394
  -6507764.45348  -5047098.10546  20046170.3284                   20046169.3554
  -2003733.09847  -1546702.74245  21602905.0554                   21602903.3984
 -11804554.54347  -9154480.94945  22115902.5234                   22115903.1414
  -5342420.35247  -3567685.61344  22848740.1804                   22848741.0314
  -7039446.47747  -5443817.84845  21991362.8834                   21991363.8714
  -3722632.90647  -2882973.15245  21866789.6024                   21866787.9694
 11  8 16 19 19  0.0000000  0  7G07G08G11G17G26G24G28
    975057.47747    775637.53546  20558415.0164                   20558414.3484
  -6627879.44948  -5140694.22746  20023313.2894                   20023312.3834
  -2078671.00847  -1605095.94145  21588644.0164                   21588643.1174
 -11975487.54347  -9287675.39145  22083374.8984                   22083375.4264
  -5471177.00046  -3668015.50843  22824239.1564                   22824239.5984
  -7161555.53147  -5538967.72345  21968125.9844                   21968126.8554
  -3844735.95747  -2978118.38745  21843553.7664                   21843552.4884
 11  8 16 19 19 30.0000000  0  7G07G08G11G17G26G24G28
    915897.93448    729539.11346  20547157.3594                   20547155.9654
  -6747558.98448  -5233951.01646  20000538.7814                   20000537.9454
  -2153082.34047  -1663078.80545  21574484.3444                   21574483.5084
 -12146130.96547  -9420644.21145  22050902.7274                   22050903.3284
  -5599383.53947  -3767916.70344  22799841.9454                   22799842.4184
  -7283202.15247  -5633757.25444  21944977.4454                   21944978.4614
  -3966853.58647  -3073274.97745  21820315.9064                   21820314.3014
 11  8 16 19 20  0.0000000  0  7G07G08G11G17G26G24G28
    857190.85248    683793.28546  20535986.1414                   20535984.0904
  -6866787.14848  -5326856.09046  19977850.7344                   19977849.2464
  -2226953.31647  -1720640.60945  21560427.2114                   21560426.3634
 -12316469.91447  -9553375.77745  22018488.6724                   22018488.6644
  -5727025.30147  -3867377.81643  22775552.3914                   22775553.2894
  -7404370.32047  -5728173.98444  21921920.1094                   21921921.0354
  -4088971.69147  -3168431.94545  21797077.6334                   21797075.6134
 11  8 16 19 20 30.0000000  0  7G07G08G11G17G26G24G28
    798951.01248    638411.53546  20524903.4534                   20524901.6024
  -6985547.02748  -5419396.26646  19955251.1334                   19955250.5204
  -2300269.53147  -1777770.13345  21546475.7974                   21546474.1374
 -12486488.51247  -9685857.72345  21986134.6564                   21986135.5864
  -5854086.75046  -3966386.75043  22751373.3674                   22751374.8204
  -7525043.63747  -5822205.09844  21898956.3134                   21898957.9694
  -4211075.81647  -3263578.01645  21773841.7344                   21773840.0594
 11  8 16 19 21  0.0000000  0  7G07G08G11G17G26G24G28
    741177.95748    593393.51246  20513909.1174                   20513908.2624
  -7103836.98048  -5511570.27046  19932741.7974                   19932740.5704
  -2373032.04347  -1834468.20345  21532629.2814                   21532628.0314
 -12656185.89147  -9818089.35245  21953842.5314                   21953842.9384
  -5980567.93047  -4064943.55144  22727305.4144                   22727305.7814
  -7645220.97347  -5915849.75044  21876087.7894                   21876088.5864
  -4333166.09047  -3358713.29745  21750608.9844                   21750607.0824
 11  8 16 19 21 30.0000000  0  7G07G08G11G17G26G24G28
   2259291.60548   1776339.15646  20802796.6174                   20802795.7974
  -5646232.75847  -4375774.77046  20210114.6024                   20210113.4344
   -869820.82447   -663134.78545  21818681.1804                   21818679.6024
 -11250137.35247  -8722467.03545  22221404.3674                   22221404.7774
  -4531045.55547  -2935445.59844  23003140.0554                   23003140.6254
  -6189478.31647  -4781504.77345  22153106.4064                   22153107.4184
  -2879820.66847  -2226236.34045  22027171.0554                   22027169.7464
 11  8 16 19 22  0.0000000  0  7G07G08G11G17G26G24G28
   2202447.84048   1732045.26646  20791979.6724                   20791978.9224
  -5763580.28148  -4467214.39846  20187784.1564                   20187782.8754
   -941481.24247   -718974.08645  21805044.6254                   21805043.4734
 -11419193.46147  -8854198.99645  22189233.8674                   22189234.5354
  -4656367.27747  -3033098.91043  22979292.3364                   22979293.2814
  -6308661.84047  -4874375.00844  22130426.1484                   22130427.0864
  -3001888.16847  -2321353.87945  22003942.8674                   22003941.0824
 11  8 16 19 22 30.0000000  0  7G07G08G11G17G26G24G28
   2146063.96948   1688109.73046  20781250.5004                   20781249.3984
  -5880458.03548  -4558287.97746  20165542.7894                   20165541.8444
  -1012595.78947   -774388.01245  21791511.6174                   21791510.8594
 -11587931.57447  -8985683.16445  22157123.9384                   22157124.6954
  -4781113.17247  -3130303.53144  22955553.4384                   22955554.5234
  -6427350.63746  -4966859.75044  22107840.7974                   22107841.6994
  -3123948.75047  -2416466.00845  21980715.3834                   21980713.5234
 11  8 16 19 23  0.0000000  0  7G07G08G11G17G26G24G28
   2090136.06348   1644529.49246  20770607.7344                   20770606.5084
  -5996868.46548  -4648997.41046  20143390.8524                   20143389.6174
  -1083169.33647   -829380.39545  21778082.2974                   21778080.9454
 -11756354.96947  -9116922.10945  22125074.2274                   22125074.1024
  -4905286.57846  -3227062.04344  22931924.6954                   22931924.9774
  -6545547.13747  -5058960.87544  22085348.7114                   22085349.1804
  -3246007.25047  -2511576.52345  21957487.9454                   21957486.8754
 11  8 16 19 23 30.0000000  0  7G07G08G11G17G26G24G28
   2034660.53948   1601301.75046  20760051.1024                   20760050.0434
  -6112812.80148  -4739343.64846  20121327.2894                   20121326.4494
  -1153205.58247   -883954.10945  21764754.6804                   21764753.4884
 -11924465.85947  -9247917.52345  22093083.6024                   22093083.9414
  -5028890.40647  -3323376.72744  22908403.3444                   22908404.6024
  -6663252.67646  -5150679.44144  22062949.2734                   22062950.1524
  -3368066.37947  -2606687.52045  21934260.9614                   21934259.3714
 11  8 16 19 24  0.0000000  0  7G07G08G11G17G26G24G28
   1979630.48448   1558421.13746  20749579.5944                   20749578.1174
  -6228295.60248  -4829330.25446  20099351.7664                   20099350.2854
  -1222711.59847   -938114.65645  21751527.9614                   21751527.2894
 -12092269.94547  -9378673.88745  22061151.8674                   22061151.9654
  -5151930.28947  -3419251.98044  22884989.7194                   22884990.1954
  -6780472.35947  -5242019.43044  22040643.3594                   22040644.3524
  -3490132.75847  -2701804.18045  21911032.2894                   21911031.0474
 11  8 16 19 24 30.0000000  0  7G07G08G11G17G26G24G28
   1925036.84448   1515880.60946  20739190.9614                   20739189.2584
  -6343323.96148  -4918962.74246  20077462.5554                   20077461.1454
  -1291697.33247   -991869.78545  21738400.1724                   21738399.3134
 -12259775.25047  -9509197.42245  22029275.9844                   22029276.3834
  -5274415.24647  -3514694.83244  22861681.9774                   22861682.1914
  -6897213.66446  -5332986.65244  22018428.6414                   22018429.3834
  -3612216.17247  -2796934.10545  21887801.0234                   21887799.4734
 11  8 16 19 25  0.0000000  0  7G07G08G11G17G26G24G28
   1870876.61748   1473677.78146  20728884.1334                   20728882.7424
  -6457898.58248  -5008241.67246  20055659.5944                   20055658.7194
  -1360165.73847  -1045221.80545  21725371.2274                   21725370.1254
 -12426983.73447  -9639489.67645  21997457.5314                   21997457.9304
  -5396347.48047  -3609706.97744  22838478.3444                   22838479.1414
  -7013477.93447  -5423582.16444  21996304.4454                   21996305.3164
  -3734319.35247  -2892079.43445  21864565.6564                   21864564.1254
 11  8 16 19 25 30.0000000  0  7G07G08G11G17G26G24G28
   1817147.96548   1431811.24246  20718660.1254                   20718659.1254
  -6572018.88748  -5097166.59846  20033943.3364                   20033942.4884
  -1428119.82447  -1098173.05545  21712440.0864                   21712438.8324
 -12593895.98447  -9769551.09045  21965694.9384                   21965695.4144
  -5517728.07047  -3704289.26244  22815380.3914                   22815381.4614
  -7129265.07847  -5513805.89545  21974270.8284                   21974271.4774
  -3856443.44547  -2987241.07845  21841326.1024                   21841324.5434
 11  8 16 19 26  0.0000000  0  7G07G08G11G17G26G24G28
   1763845.07848   1390276.48046  20708516.8834                   20708515.7584
  -6685688.62948  -5185740.43746  20012312.9304                   20012311.9184
  -1495565.62547  -1150728.23845  21699605.7814                   21699604.7704
 -12760516.27047  -9899385.00445  21933988.5554                   21933988.8134
  -5638562.14546  -3798445.73044  22792386.6024                   22792387.9964
  -7244579.20347  -5603661.03145  21952327.7114                   21952327.8484
  -3978594.36347  -3082423.61345  21818081.4454                   21818079.7074
 11  8 16 19 26 30.0000000  0  7G07G08G11G17G26G24G28
   1710965.31348   1349071.39546  20698454.4534                   20698453.4414
  -6798908.27348  -5273963.55546  19990767.8984                   19990766.6914
  -1562506.54347  -1202890.02045  21686867.3594                   21686866.2814
 -12926846.39147 -10028992.81245  21902336.7274                   21902336.9844
  -5758851.84447  -3892177.96544  22769496.1724                   22769497.0634
  -7359421.16447  -5693148.25844  21930473.0004                   21930474.7424
  -4100774.60547  -3177628.99645  21794831.1174                   21794829.9304
 11  8 16 19 27  0.0000000  0  7G07G08G11G17G26G24G28
   1658491.54748   1308182.70346  20688469.0704                   20688467.9844
  -6911693.12948  -5361847.86346  19969305.3054                   19969304.3874
  -1628959.51647  -1254671.57445  21674221.9534                   21674220.3954
 -13092902.02347 -10158386.74645  21870737.1644                   21870737.7854
  -5878613.42247  -3985498.69944  22746706.3054                   22746707.6134
  -7473806.12947  -5782279.39144  21908706.6254                   21908707.5124
  -4223000.91447  -3272870.27745  21771572.4384                   21771571.0004
 11  8 16 19 27 30.0000000  0  7G07G08G11G17G26G24G28
   1606420.63748   1267607.92246  20678559.9924                   20678559.1724
  -7024044.17648  -5449394.14846  19947926.1884                   19947924.6024
  -1694928.50847  -1306075.99245  21661668.5004                   21661667.1644
 -13258685.52747 -10287568.62145  21839189.9844                   21839190.0314
  -5997849.74647  -4078410.15244  22724017.2974                   22724017.7854
  -7587735.70347  -5871055.66845  21887026.7504                   21887027.3674
  -4345276.47347  -3368149.93745  21748304.0784                   21748302.8134
 11  8 16 19 28  0.0000000  0  7G07G08G11G17G26G24G28
   1554748.19947   1227343.63746  20668727.1484                   20668726.5004
  -7135963.35948  -5536603.91046  19926628.2274                   19926627.2154
  -1760418.42247  -1357107.13345  21649206.1024                   21649204.7074
 -13424200.05147 -10416540.89545  21807693.1334                   21807693.6524
  -6116564.50847  -4170915.15644  22701425.7034                   22701426.9454
  -7701212.59847  -5959479.20344  21865432.2814                   21865433.4344
  -4467605.18047  -3463471.01645  21725025.7974                   21725024.3794
 11  8 16 19 28 30.0000000  0  7G07G08G11G17G26G24G28
   1503464.74248   1187382.44946  20658968.4454                   20658967.1054
  -7247457.88748  -5623482.78146  19905411.4304                   19905410.6334
  -1825438.83247  -1407772.40645  21636832.8674                   21636831.6524
 -13589453.37547 -10545309.66045  21776246.3914                   21776246.7114
  -6234766.39147  -4263020.55944  22678932.6254                   22678934.0204
  -7814244.19147  -6047555.76644  21843922.8984                   21843924.6054
  -4589995.73447  -3558840.27345  21701735.6884                   21701733.9654
 11  8 16 19 29  0.0000000  0  7G07G08G11G17G26G24G28
   1452565.99248   1147721.03546  20649282.7734                   20649281.2464
  -7358530.12548  -5710032.59446  19884275.0944                   19884274.5824
  -1889994.76647  -1458075.75845  21624548.7584                   21624547.3634
 -13754449.03547 -10673877.62545  21744848.7424                   21744848.9884
  -6352459.23047  -4354729.29744  22656536.2424                   22656537.8204
  -7926833.49647  -6135287.67244  21822498.7424                   21822498.7274
  -4712452.52047  -3654261.14145  21678433.1644                   21678431.4304
 11  8 16 19 29 30.0000000  0  7G07G08G11G17G26G24G28
   2977470.10248   2335957.94546  20939462.3204                   20939461.4534
  -5893757.37948  -4568651.24646  20163012.1254                   20163011.0904
   -378668.11747   -280418.63345  21912144.7274                   21912142.7154
 -12343763.44147  -9574642.04345  22013293.6334                   22013293.2504
  -4894221.96147  -3218440.52344  22934030.0554                   22934031.4574
  -6463558.13747  -4995073.09844  22100950.5164                   22100950.7934
  -3259554.55547  -2522132.86345  21954910.1804                   21954909.1604
 11  8 16 19 30  0.0000000  0  7G07G08G11G17G26G24G28
   2927323.72748   2296882.79346  20929919.6954                   20929918.5904
  -6003995.16048  -4654550.84046  20142034.6254                   20142033.7504
   -442313.78547   -330012.68445  21900033.0234                   21900031.9494
 -12508256.48847  -9702818.36745  21981991.4774                   21981991.9534
  -5010911.78547  -3309367.68044  22911825.0234                   22911825.6884
  -6575274.18447  -5082124.54745  22079691.0474                   22079692.0514
  -3382159.44948  -2617669.14845  21931579.4224                   21931577.6414
 11  8 16 19 30 30.0000000  0  7G07G08G11G17G26G24G28
   2877547.35548   2258095.96546  20920447.6094                   20920447.0434
  -6113818.84048  -4740127.75846  20121135.8914                   20121135.0234
   -505511.39147   -379257.59045  21888007.1724                   21888005.5434
 -12672502.90247  -9830802.52745  21950736.2814                   21950736.1024
  -5127105.75047  -3399908.45744  22889713.7814                   22889714.7034
  -6686557.30947  -5168838.62944  22058514.6954                   22058515.6254
  -3504844.00047  -2713267.50445  21908233.1724                   21908231.7504
 11  8 16 19 31  0.0000000  0  7G07G08G11G17G26G24G28
   2828134.10948   2219592.08246  20911044.3674                   20911043.8674
  -6223233.28148  -4825385.78146  20100315.3444                   20100314.1724
   -568268.22347   -428159.04344  21876064.9844                   21876062.8954
 -12836508.26247  -9958598.85245  21919526.6954                   21919526.7664
  -5242809.86347  -3490067.54344  22867696.0704                   22867696.7544
  -6797412.94147  -5255219.61744  22037419.4774                   22037420.4184
  -3627614.78948  -2808933.05945  21884870.6724                   21884868.7384
 11  8 16 19 31 30.0000000  0  7G07G08G11G17G26G24G28
   2779075.41047   2181364.46546  20901709.0004                   20901708.3714
  -6332244.46948  -4910329.58646  20079570.5634                   20079569.8754
   -630593.07447   -476723.86745  21864204.6254                   21864202.9064
 -13000279.86347 -10086213.01645  21888362.2734                   21888362.3284
  -5358032.32847  -3579851.29744  22845769.4454                   22845770.5354
  -6907847.70747  -5341272.64845  22016404.7424                   22016405.3634
  -3750479.76248  -2904672.00445  21861490.3754                   21861488.9064
 11  8 16 19 32  0.0000000  0  7G07G08G11G17G26G24G28
   2730369.39147   2143411.66846  20892441.2344                   20892440.0634
  -6440851.95748  -4994958.82446  20058903.4144                   20058902.2584
   -692488.61347   -524954.18445  21852426.6024                   21852424.9384
 -13163817.93747 -10213645.22745  21857241.7194                   21857241.9654
  -5472774.33247  -3669260.68744  22823935.4694                   22823936.0044
  -7017861.42647  -5426997.60945  21995469.7114                   21995470.7274
  -3873439.88747  -3000485.09045  21838092.0394                   21838090.0784
 11  8 16 19 32 30.0000000  0  7G07G08G11G17G26G24G28
   2682006.87148   2105726.53946  20883237.7734                   20883236.9144
  -6549062.95748  -5079279.10946  20038311.6724                   20038310.9654
   -753964.40247   -572857.40244  21840727.8364                   21840726.5084
 -13327130.69147 -10340901.84845  21826164.5864                   21826164.4064
  -5587044.37147  -3758302.31644  22802190.4304                   22802191.2584
  -7127461.59847  -5512400.32844  21974613.7664                   21974613.9654
  -3996504.12147  -3096379.30945  21814673.5864                   21814671.7544
 11  8 16 19 33  0.0000000  0  7G07G08G11G17G26G24G28
   2633990.70347   2068311.27346  20874100.5554                   20874099.9304
  -6656872.58648  -5163286.64146  20017796.3364                   20017795.4304
   -815018.20747   -620431.83644  21829109.8754                   21829108.1374
 -13490214.07847 -10467979.75445  21795130.7034                   21795130.6294
  -5700839.31647  -3846973.69944  22780535.9384                   22780536.8094
  -7236644.07847  -5597477.56645  21953836.8524                   21953837.4964
  -4119669.24247  -3192352.12945  21791235.8444                   21791234.1804
 11  8 16 19 33 30.0000000  0  7G07G08G11G17G26G24G28
   2586318.43047   2031164.01246  20865028.9064                   20865027.8014
  -6764281.37948  -5246981.82046  19997356.8524                   19997355.9884
   -875653.17247   -667679.87544  21817571.5474                   21817569.6764
 -13653069.24647 -10594879.80945  21764140.2274                   21764140.5274
  -5814161.12947  -3935276.43444  22758971.2344                   22758972.0164
  -7345409.59447  -5682229.89845  21933139.4064                   21933139.8204
  -4242936.93048  -3288404.88345  21767778.9384                   21767776.9884
 11  8 16 19 34  0.0000000  0  7G07G08G11G17G26G24G28
   2538985.18047   1994280.89846  20856022.0784                   20856021.0234
  -6871291.76648  -5330366.56246  19976993.8284                   19976992.9384
   -935874.44547   -714605.56244  21806111.9614                   21806110.2774
 -13815699.73447 -10721604.81245  21733192.8524                   21733192.8714
  -5927014.14147  -4023213.87944  22737496.6564                   22737497.2114
  -7453761.00047  -5766659.57844  21912521.0944                   21912521.2154
  -4366311.09847  -3384540.59845  21744301.8054                   21744300.3054
 11  8 16 19 34 30.0000000  0  7G07G08G11G17G26G24G28
   2491986.45748   1957658.43846  20847078.3524                   20847077.1724
  -6977905.71147  -5413442.38346  19956705.8364                   19956704.7854
   -995686.77747   -761212.59044  21794729.9224                   21794728.5904
 -13978108.53947 -10848157.05545  21702287.1254                   21702287.4924
  -6039402.07847  -4110788.89544  22716109.3594                   22716110.5704
  -7561701.13347  -5850768.75444  21891980.7344                   21891980.5904
  -4489795.63747  -3480762.31245  21720803.1024                   21720801.6334
 11  8 16 19 35  0.0000000  0  7G07G08G11G17G26G24G28
   2445327.03148   1921300.39146  20838199.5864                   20838198.4414
  -7084116.66048  -5496204.18046  19936494.2664                   19936493.5554
  -1055086.48047   -807498.10244  21783426.1414                   21783424.8404
 -14140290.09847 -10974532.22745  21671425.4144                   21671425.3794
  -6151319.95347  -4197997.66844  22694812.2034                   22694813.8134
  -7669223.82047  -5934552.66844  21871519.5004                   21871520.0124
  -4613385.28948  -3577065.94145  21697284.6724                   21697283.6094
 11  8 16 19 35 30.0000000  0  7G07G08G11G17G26G24G28
   2398999.24647   1885200.75846  20829383.5634                   20829382.6214
  -7189929.36348  -5578655.66046  19916359.0634                   19916358.4384
  -1114081.01247   -853467.88744  21772200.1024                   21772199.2424
 -14302250.21147 -11100734.86745  21640605.1804                   21640605.3484
  -6262774.49647  -4284845.40244  22673603.7974                   22673604.3404
  -7776334.90647  -6018015.82444  21851136.6884                   21851137.4264
  -4737086.78948  -3673456.72345  21673745.1884                   21673743.6524
 11  8 16 19 36  0.0000000  0  7G07G08G11G17G26G24G28
   2352996.01247   1849354.01646  20820629.9614                   20820628.6174
  -7295349.46547  -5660801.20746  19896298.4144                   19896297.6994
  -1172678.61747   -899128.38744  21761049.2974                   21761048.5434
 -14463995.15647 -11226769.82445  21609826.2114                   21609826.5354
  -6373772.91447  -4371337.69944  22652481.0634                   22652482.5664
  -7883039.93447  -6101162.59444  21830831.3754                   21830832.0784
  -4860906.66848  -3769939.74645  21650183.3364                   21650181.7304
 11  8 16 19 36 30.0000000  0  7G07G08G11G17G26G24G28
   2307320.94147   1813762.98846  20811938.1254                   20811936.8284
  -7400371.23447  -5742636.36746  19876313.2344                   19876312.5824
  -1230876.29347   -944477.25044  21749974.5944                   21749973.3404
 -14625519.84447 -11352633.14845  21579089.2424                   21579089.0664
  -6484310.98047  -4457471.27344  22631446.5474                   22631447.1764
  -7989333.67647  -6183988.88344  21810604.0164                   21810604.7114
  -4984840.59848  -3866511.62145  21626599.2664                   21626597.3054
 11  8 16 19 37  0.0000000  0  7G07G08G11G17G26G24G28
   3837395.42247   3006028.76246  21103101.2814                   21103100.3134
  -5929568.93448  -4596556.66446  20156197.4224                   20156196.7504
    286747.47747    238086.70745  22038768.9694                   22038767.8954
 -13211397.55147 -10250719.61745  21848188.1724                   21848187.8444
  -5018964.74647  -3315643.07444  22910292.5704                   22910293.3404
  -6519790.93447  -5038890.62144  22090249.0084                   22090249.0744
  -3533463.77748  -2735568.64545  21902787.8204                   21902785.4144
 11  8 16 19 37 30.0000000  0  7G07G08G11G17G26G24G28
   3792381.73447   2970953.09046  21094535.6884                   21094534.8874
  -6033782.35247  -4677761.93746  20136366.5474                   20136365.6844
    229353.59047    193364.16444  22027847.1724                   22027846.0824
 -13372472.72747 -10376232.66445  21817535.5474                   21817535.7854
  -5128575.89547  -3401054.37944  22889434.3594                   22889435.0164
  -6625252.04747  -5121068.09444  22070180.6334                   22070180.9534
  -3657618.05548  -2832312.23045  21879161.5314                   21879159.5784
 11  8 16 19 38  0.0000000  0  7G07G08G11G17G26G24G28
   3747704.98847   2936139.98846  21086034.0164                   21086033.0744
  -6137581.84048  -4758644.66846  20116614.3754                   20116613.4694
    172366.88747    148958.93844  22017003.2344                   22017001.9534
 -13533314.91847 -10501564.18045  21786928.3594                   21786928.4844
  -5237716.54747  -3486099.05944  22868665.7664                   22868666.1994
  -6730288.13347  -5202914.36744  22050193.4224                   22050193.2624
  -3781875.02048  -2929135.84045  21855516.3054                   21855514.2194
 11  8 16 19 38 30.0000000  0  7G07G08G11G17G26G24G28
   3703376.93847   2901598.57846  21077598.7734                   21077597.8014
  -6240953.58648  -4839194.10246  20096943.1484                   20096942.3834
    115798.55547    104879.69144  22006237.8284                   22006237.5434
 -13693911.17647 -10626704.06245  21756367.9924                   21756367.7584
  -5346374.50047  -3570767.64544  22847988.5634                   22847989.4844
  -6834885.73847  -5284418.98044  22030288.9384                   22030289.1914
  -3906222.00448  -3026029.59445  21831853.7584                   21831851.7234
 11  8 16 19 39  0.0000000  0  7G07G08G11G17G26G24G28
   3659405.23847   2867334.85246  21069231.2814                   21069230.6054
  -6343887.38348  -4919402.27046  20077355.5474                   20077354.6214
     59655.94947     61132.18844  21995554.8984                   21995553.9654
 -13854252.20347 -10751645.06245  21725856.0394                   21725856.1804
  -5454541.74247  -3655053.83244  22827405.4064                   22827405.9654
  -6939035.25047  -5365574.42244  22010469.8754                   22010469.7234
  -4030650.12548  -3122986.57845  21808175.7194                   21808174.1134
 11  8 16 19 39 30.0000000  0  7G07G08G11G17G26G24G28
   3615793.60547   2833351.69546  21060932.1954                   21060931.2974
  -6446377.88748  -4999265.01246  20057852.4224                   20057851.5824
      3942.31347     17718.94544  21984953.1414                   21984952.0864
 -14014333.09447 -10876383.35545  21695393.3444                   21695393.3954
  -5562214.00447  -3738954.32444  22806915.5314                   22806916.6414
  -7042731.60247  -5446376.73044  21990737.5164                   21990737.0784
  -4155155.01647  -3220003.37545  21784483.1024                   21784481.5594
 11  8 16 19 40  0.0000000  0  7G07G08G11G17G26G24G28
   3572558.44547   2799661.90246  21052705.1954                   21052703.9384
  -6548406.52748  -5078767.86746  20038437.2274                   20038436.2074
    -51326.74647    -25347.87944  21974435.7894                   21974434.8284
 -14174136.23047 -11000905.23045  21664984.1094                   21664983.6604
  -5669374.59847  -3822456.11744  22786524.3284                   22786524.8634
  -7145956.72347  -5526811.85244  21971094.2424                   21971094.0004
  -4279719.19148  -3317066.37545  21760779.4534                   21760777.8834
 11  8 16 19 40 30.0000000  0  7G07G08G11G17G26G24G28
   3529705.48847   2766269.92246  21044550.3204                   21044549.4264
  -6649965.52047  -5157904.75846  20019110.7424                   20019110.1414
   -106146.08647    -68064.28544  21964004.0474                   21964002.9184
 -14333654.54347 -11125205.14845  21634628.5084                   21634628.0474
  -5776017.71947  -3905554.68044  22766230.1024                   22766231.2774
  -7248703.56247  -5606874.30144  21951541.6094                   21951542.0904
  -4404335.92648  -3414170.31645  21737066.0084                   21737063.9574
 11  8 16 19 41  0.0000000  0  7G07G08G11G17G26G24G28
   3487248.97347   2733186.85946  21036471.5634                   21036470.5554
  -6751037.97347  -5236662.52746  19999877.2114                   19999876.8594
   -160501.91047   -110419.48844  21953660.8674                   21953659.2774
 -14492872.28547 -11249270.86745  21604330.6564                   21604330.2344
  -5882128.25047  -3988238.24244  22746038.3984                   22746038.8364
  -7350955.96147  -5686551.46145  21932083.8984                   21932083.8404
  -4528990.00848  -3511303.36345  21713344.5314                   21713343.2344
 11  8 16 19 41 30.0000000  0  7G07G08G11G17G26G24G28
   3445194.22747   2700416.86746  21028468.3524                   21028467.8834
  -6851616.59447  -5315035.50446  19980738.0704                   19980737.1564
   -214389.47347   -152409.82044  21943406.0394                   21943404.4144
 -14651782.91447 -11373097.27745  21574090.8134                   21574090.5664
  -5987700.71547  -4070502.49644  22725948.3914                   22725949.3874
  -7452707.31647  -5765838.19945  21912721.1254                   21912721.9614
  -4653675.13348  -3608460.60245  21689618.1254                   21689616.3594
 11  8 16 19 42  0.0000000  0  7G07G08G11G17G26G24G28
   3403554.48447   2667970.25846  21020545.0394                   21020543.7114
  -6951686.24247  -5393011.86346  19961695.0554                   19961694.8244
   -267796.32047   -194025.57444  21933243.1724                   21933241.9694
 -14810371.81247 -11496672.99245  21543912.6024                   21543911.9454
  -6092721.67647  -4152337.06244  22705963.6884                   22705964.1484
  -7553942.80547  -5844722.98445  21893456.6414                   21893456.9104
  -4778376.73447  -3705630.66845  21665888.1024                   21665886.6564
 11  8 16 19 42 30.0000000  0  7G07G08G11G17G26G24G28
   3362331.27747   2635848.23046  21012700.4454                   21012699.5204
  -7051243.14847  -5470588.69946  19942750.4454                   19942750.0234
   -320721.25447   -235265.79744  21923172.0554                   21923170.5204
 -14968636.12947 -11619995.78545  21513795.1954                   21513795.1524
  -6197189.15647  -4233740.32044  22686083.9534                   22686085.4184
  -7654659.11347  -5923203.20744  21874291.1954                   21874291.5704
  -4903092.37947  -3802811.68745  21642155.6174                   21642153.7704
 11  8 16 19 43  0.0000000  0  7G07G08G11G17G26G24G28
   3321528.05547   2604053.43846  21004935.6024                   21004934.9264
  -7150281.50448  -5547761.46546  19923904.0704                   19923903.3524
   -373161.19147   -276128.10944  21913192.8754                   21913191.0314
 -15126570.82447 -11743061.73445  21483741.5004                   21483741.0234
  -6301099.25046  -4314709.26244  22666310.8054                   22666311.4574
  -7754851.19947  -6001274.96144  21855225.0474                   21855225.2934
  -5027817.32847  -3899999.96145  21618421.3204                   21618419.4614
 11  8 16 19 43 30.0000000  0  7G07G08G11G17G26G24G28
   3281138.69947   2572581.13745  20997249.9774                   20997248.9064
  -7248805.12148  -5624533.13746  19905155.8674                   19905154.9414
   -425122.83247   -316617.70344  21903304.8364                   21903302.8834
 -15284180.60947 -11865874.50445  21453749.2894                   21453749.0004
  -6404457.37947  -4395248.06244  22646641.9144                   22646643.5204
  -7854523.41047  -6078941.62544  21836257.9304                   21836258.6684
  -5152556.33647  -3997199.17645  21594683.6414                   21594682.4024
 11  8 16 19 44  0.0000000  0  7G07G08G11G17G26G24G28
   3241163.80947   2541431.79345  20989643.3834                   20989641.9384
  -7346811.68747  -5700901.89846  19886505.8204                   19886504.9694
   -476606.46547   -356734.83644  21893507.7894                   21893506.2304
 -15441463.69147 -11988432.69545  21423819.2584                   21423818.6644
  -6507263.42646  -4475356.70744  22627079.0864                   22627080.2114
  -7953674.07047  -6156201.87144  21817390.2664                   21817390.7074
  -5277308.12547  -4094408.35945  21570944.8984                   21570942.7464
 11  8 16 19 44 30.0000000  0  7G07G08G11G17G26G24G28
   3201601.45747   2510603.91045  20982114.8984                   20982113.9264
  -7444300.78148  -5776867.45346  19867953.8444                   19867953.4304
   -527614.30947   -396481.23044  21883801.1094                   21883800.0784
 -15598420.73447 -12110736.83246  21393951.2034                   21393951.0514
  -6609518.59446  -4555036.07844  22607620.1954                   22607621.3914
  -8052303.07847  -6233055.64545  21798622.1804                   21798622.8244
  -5402072.96947  -4191627.71945  21547202.7114                   21547201.0984
 11  8 16 19 45  0.0000000  0  7G07G08G11G17G26G24G28
   4737860.06647   3707688.46545  21274454.7114                   21274453.8794
  -5965860.15647  -4624835.82046  20149291.9384                   20149291.1564
    997261.62147    791733.76244  22173975.6094                   22173974.2274
 -14179637.93747 -11005191.75446  21663936.1804                   21663936.4534
  -5135812.15647  -3406693.43744  22888057.1254                   22888058.7704
  -6574998.87947  -5081909.52044  22079743.2664                   22079743.8714
  -3951438.35547  -3061263.08645  21823249.6334                   21823247.3554
 11  8 16 19 45 30.0000000  0  7G07G08G11G17G26G24G28
   4699099.45347   3677485.32045  21267079.4844                   21267078.6094
  -6062331.53947  -4700008.34846  20130933.8204                   20130933.2664
    947179.84447    752708.97744  22164445.2814                   22164444.3134
 -14335961.82447 -11127002.53545  21634188.6954                   21634189.0354
  -5236988.19546  -3485531.93044  22868804.3594                   22868805.3204
  -6672603.88747  -5157965.38344  22061169.6024                   22061170.0944
  -4076248.84047  -3158518.01645  21799498.3914                   21799496.5084
 11  8 16 19 46  0.0000000  0  7G07G08G11G17G26G24G28
   4660738.14547   3647593.30945  21259779.0234                   21259778.5004
  -6158292.47747  -4774783.13746  20112672.8674                   20112672.4384
    897558.89147    714043.29744  22155002.7664                   22155001.8914
 -14491968.69947 -11248566.28945  21604502.1724                   21604502.0634
  -5337625.77346  -3563950.85244  22849653.1334                   22849654.9774
  -6769696.27347  -5233621.79744  22042694.1724                   22042694.2894
  -4201082.06647  -3255790.66445  21775743.5474                   21775741.4614
 11  8 16 19 46 30.0000000  0  7G07G08G11G17G26G24G28
   4622772.42647   3618009.56645  21252554.7034                   21252554.3164
  -6253744.11347  -4849161.05946  20094509.1954                   20094508.8164
    848394.57447    675733.41444  22145647.7664                   22145646.3284
 -14647660.63747 -11369884.64545  21574874.3674                   21574874.4414
  -5437728.10546  -3641952.67644  22830605.1724                   22830606.2074
  -6866277.96947  -5308880.26645  22024315.0944                   22024315.4024
  -4325940.05547  -3353082.60545  21751983.5704                   21751981.9024
 11  8 16 19 47  0.0000000  0  7G07G08G11G17G26G24G28
   4585196.61747   3588729.63745  21245404.3054                   21245403.6914
  -6348690.80948  -4923145.53146  20076441.7504                   20076440.6174
    799680.18447    637774.11744  22136376.9694                   22136376.0044
 -14803042.42247 -11490961.32446  21545306.9694                   21545306.1334
  -5537301.17647  -3719542.11744  22811656.9144                   22811658.0314
  -6962353.84847  -5383744.59445  22006032.4064                   22006032.8014
  -4450827.52747  -3450397.52745  21728218.6954                   21728217.2464
 11  8 16 19 47 30.0000000  0  7G07G08G11G17G26G24G28
   4548010.00047   3559752.98445  21238327.8834                   21238327.5514
  -6443130.83248  -4996735.19146  20058470.5234                   20058469.5474
    751414.76647    600164.67644  22127192.6954                   22127191.0554
 -14958113.05547 -11611795.53545  21515797.1414                   21515797.3364
  -5636345.00446  -3796719.17644  22792809.2504                   22792810.7774
  -7057922.44547  -5458213.63345  21987846.0394                   21987846.8794
  -4575743.50047  -3547734.66045  21704448.2274                   21704446.2384
 11  8 16 19 48  0.0000000  0  7G07G08G11G17G26G24G28
   4511208.35947   3531076.30146  21231324.8364                   21231324.0784
  -6537066.27347  -5069931.67246  20040595.1564                   20040594.2734
    703593.79347    562901.55144  22118092.2894                   22118092.1174
 -15112875.21947 -11732389.39845  21486347.3204                   21486347.1054
  -5734863.62946  -3873486.96144  22774062.3594                   22774062.6524
  -7152986.44547  -5532289.47345  21969756.2584                   21969757.4734
  -4700690.42647  -3645095.89845  21680671.1954                   21680669.4804
 11  8 16 19 48 30.0000000  0  7G07G08G11G17G26G24G28
   4474787.60547   3502696.42646  21224394.2894                   21224394.1684
  -6630499.17247  -5142736.56646  20022815.8134                   20022815.0044
    656212.38747    525980.94144  22109075.7274                   22109075.0944
 -15267331.57047 -11852744.95745  21456955.2194                   21456954.8244
  -5832860.77747  -3949848.40644  22755414.0394                   22755414.4884
  -7247548.37547  -5605974.07445  21951762.0234                   21951762.1294
  -4825671.34847  -3742483.64845  21656888.2274                   21656886.6524
 11  8 16 19 49  0.0000000  0  7G07G08G11G17G26G24G28
   4438740.65247   3474607.80146  21217535.2424                   21217534.7274
  -6723434.28947  -5215153.57446  20005130.7734                   20005129.5864
    609262.65247    489396.69944  22100141.5164                   22100140.9804
 -15421487.81647 -11972866.67246  21427620.1564                   21427620.0704
  -5930343.66446  -4025809.12944  22736863.0554                   22736864.6914
  -7341614.16447  -5679272.08244  21933861.6484                   21933862.8674
  -4950692.12547  -3839902.44145  21633098.0474                   21633095.8284
 11  8 16 19 49 30.0000000  0  7G07G08G11G17G26G24G28
   4403062.38347   3446806.47346  21210745.6094                   21210745.0744
  -6815874.91048  -5287185.25846  19987539.6174                   19987539.0634
    562738.96947    453144.45344  22091288.5784                   22091288.1134
 -15575347.93747 -12092757.63345  21398341.9144                   21398341.0634
  -6027317.03947  -4101372.81244  22718410.2034                   22718410.9064
  -7435187.60547  -5752186.44544  21916054.8594                   21916055.7544
  -5075756.13347  -3937354.93045  21609299.0234                   21609296.8594
 11  8 16 19 50  0.0000000  0  7G07G08G11G17G26G24G28
   4367751.19147   3419291.18445  21204025.9844                   21204025.3594
  -6907820.62548  -5358831.30546  19970043.0704                   19970042.1294
    516639.41847    417222.69944  22082516.6024                   22082515.9534
 -15728912.03147 -12212417.92245  21369119.3834                   21369119.2704
  -6123782.35247  -4176540.62544  22700053.7274                   22700054.1374
  -7528268.65247  -5824717.12144  21898342.0864                   21898343.0204
  -5200863.20347  -4034840.96945  21585491.6254                   21585490.1294
 11  8 16 19 50 30.0000000  0  7G07G08G11G17G26G24G28
   4332800.12147   3392056.51245  21197375.2114                   21197374.9104
  -6999276.32047  -5430095.52046  19952639.7194                   19952638.9454
    470956.41047    381625.51244  22073823.0944                   22073822.4104
 -15882185.33247 -12331851.62545  21339952.2894                   21339951.9964
  -6219746.08646  -4251317.60244  22681792.0474                   22681793.5594
  -7620862.60947  -5896868.25444  21880721.9384                   21880723.0704
  -5326018.74647  -4132364.77745  21561675.2194                   21561673.5864
 11  8 16 19 51  0.0000000  0  7G07G08G11G17G26G24G28
   4298210.29747   3365103.31346  21190793.1254                   21190792.6724
  -7090239.05147  -5500975.59846  19935329.7664                   19935329.2704
    425690.51247    346353.34844  22065209.5784                   22065208.7894
 -16035165.59847 -12451056.99245  21310840.8204                   21310840.9574
  -6315207.33647  -4325703.02044  22663626.1174                   22663627.3364
  -7712967.31647  -5968638.14545  21863194.7424                   21863196.1414
  -5451220.33647  -4229924.45745  21537850.0704                   21537848.4774
 11  8 16 19 51 30.0000000  0  7G07G08G11G17G26G24G28
   4263979.59447   3338429.94145  21184278.6024                   21184279.0234
  -7180708.75048  -5571471.50446  19918113.7424                   19918113.2774
    380838.87547    311404.01244  22056674.6644                   22056673.8094
 -16187853.34047 -12570034.41045  21281785.9774                   21281785.5984
  -6410167.90646  -4399698.28944  22645555.4384                   22645556.8714
  -7804583.24647  -6040027.17644  21845761.0394                   21845762.0434
  -5576468.21547  -4327520.21945  21514017.2424                   21514014.7504
 11  8 16 19 52  0.0000000  0  7G07G08G11G17G26G24G28
   4230107.76647   3312036.22345  21177833.7504                   21177833.3054
  -7270683.73047  -5641581.90246  19900992.5554                   19900992.1174
    336400.88747    276776.98444  22048218.4844                   22048216.9964
 -16340247.11347 -12688782.76245  21252786.1484                   21252785.6604
  -6504627.83246  -4473303.49244  22627580.8984                   22627582.1564
  -7895709.39547  -6111034.56244  21828420.5164                   21828421.1334
  -5701761.17247  -4425151.09845  21490173.9064                   21490172.0004
 11  8 16 19 52 30.0000000  0  7G07G08G11G17G26G24G28
   5772015.46947   4513522.66846  21471249.4534                   21471248.8284
  -5784739.15648  -4483703.04746  20183758.2424                   20183757.6294
   1867796.78947   1470072.48044  22339633.1484                   22339632.3134
 -14916921.46547 -11579697.79345  21523635.9144                   21523635.4614
  -5023164.30947  -3318916.36744  22909494.2974                   22909494.9654
  -6410921.75047  -4954057.18044  22110966.2814                   22110966.5354
  -4251673.83648  -3295212.91045  21766116.5474                   21766114.8714
 11  8 16 19 53  0.0000000  0  7G07G08G11G17G26G24G28
   5738855.40247   4487683.56345  21464938.8594                   21464938.4804
  -5873724.10548  -4553041.99646  20166825.1174                   20166824.1954
   1824178.12547   1436083.88744  22331332.9224                   22331331.5984
 -15068730.11347 -11697990.19145  21494747.5704                   21494747.4694
  -5116628.53147  -3391745.67244  22891708.4924                   22891709.3554
  -6501070.01647  -5024302.59444  22093811.8284                   22093812.3984
  -4377057.74647  -3392914.64845  21742256.3834                   21742254.7664
 11  8 16 19 53 30.0000000  0  7G07G08G11G17G26G24G28
   5706041.26647   4462114.02745  21458694.6724                   21458694.4924
  -5962221.28148  -4622000.86346  20149985.0004                   20149984.1484
   1780958.19547   1402406.00044  22323108.1804                   22323106.6914
 -15220253.73847 -11816060.49245  21465913.6564                   21465912.7384
  -5209604.59847  -3464194.59444  22874015.9224                   22874016.8714
  -6590737.23447  -5094173.13344  22076748.5084                   22076749.2194
  -4502494.77047  -3490657.78145  21718386.7584                   21718384.9924
 11  8 16 19 54  0.0000000  0  7G07G08G11G17G26G24G28
   5673568.13747   4436810.20345  21452515.4614                   21452515.3754
  -6050233.12948  -4690581.55946  20133236.4144                   20133235.6174
   1738131.74647   1369034.71144  22314959.0234                   22314957.2234
 -15371495.78147 -11933911.38745  21437132.9844                   21437132.3634
  -5302097.34447  -3536266.91044  22856414.7194                   22856416.0004
  -6679926.86747  -5163671.55544  22059776.3054                   22059776.7504
  -4627987.83647  -3588444.57845  21694505.9844                   21694503.9494
 11  8 16 19 54 30.0000000  0  7G07G08G11G17G26G24G28
   5641434.48447   4411770.91445  21446400.2504                   21446400.6334
  -6137759.08648  -4758783.63746  20116581.3284                   20116580.4024
   1695696.96147   1335968.63344  22306883.7424                   22306882.3634
 -15522456.36347 -12051542.95345  21408406.1094                   21408405.9024
  -5394108.04746  -3607963.60244  22838906.1644                   22838906.3284
  -6768638.83247  -5232797.77744  22042894.9694                   22042895.7544
  -4753536.54348  -3686274.73045  21670614.9304                   21670613.4304
 11  8 16 19 55  0.0000000  0  7G07G08G11G17G26G24G28
   5609625.95747   4386984.95745  21440347.6414                   21440347.5004
  -6224812.19148  -4826617.25846  20100015.7034                   20100014.9694
   1653638.39547   1303195.71144  22298880.4064                   22298878.5984
 -15673148.34047 -12168965.22345  21379730.4924                   21379730.2074
  -5485651.21947  -3679295.98444  22821485.3594                   22821486.8754
  -6856886.44547  -5301562.15244  22026101.8914                   22026102.3284
  -4879153.91448  -3784158.37945  21646711.1954                   21646709.1914
 11  8 16 19 55 30.0000000  0  7G07G08G11G17G26G24G28
   5578148.52747   4362457.00845  21434357.6884                   21434357.5594
  -6311384.29747  -4894076.06646  20083541.5554                   20083540.6644
   1611961.50447   1270720.18844  22290949.2504                   22290948.3204
 -15823564.49247 -12286172.56246  21351107.1724                   21351106.4534
  -5576720.69147  -3750259.26644  22804156.1804                   22804157.2974
  -6944662.26247  -5369958.90244  22009398.4224                   22009398.9344
  -5004831.75048  -3882089.15245  21622794.8834                   21622793.2774
 11  8 16 19 56  0.0000000  0  7G07G08G11G17G26G24G28
   5546981.54347   4338170.94945  21428426.8054                   21428426.8874
  -6397493.69547  -4961174.33246  20067155.2194                   20067154.4344
   1570645.48847   1238525.85544  22283087.6804                   22283085.9774
 -15973723.76647 -12403179.75445  21322532.6644                   21322531.9614
  -5667336.73847  -3820869.22744  22786911.8134                   22786913.1054
  -7031985.44947  -5438002.94544  21992781.9064                   21992781.6844
  -5130588.89548  -3980081.72345  21598864.6564                   21598862.4574
 11  8 16 19 56 30.0000000  0  7G07G08G11G17G26G24G28
   5516127.98447   4314129.10945  21422555.1334                   21422555.7274
  -6483135.75048  -5027908.41846  20050858.2034                   20050857.4694
   1529692.49647   1206614.41044  22275294.7664                   22275293.0394
 -16123621.46547 -12519983.10546  21294008.1644                   21294007.4384
  -5757496.63747  -3891123.73844  22769756.2734                   22769756.3364
  -7118851.94147  -5505691.11344  21976251.1564                   21976251.7664
  -5256420.52048  -4078132.33645  21574919.5004                   21574917.7074
 11  8 16 19 57  0.0000000  0  7G07G08G11G17G26G24G28
   5485584.23447   4290328.69545  21416743.2194                   21416743.2154
  -6568312.07448  -5094279.60946  20034649.6254                   20034649.0204
   1489098.43047   1174982.65244  22267569.4694                   22267568.6024
 -16273260.25847 -12636584.73046  21265532.8054                   21265532.5904
  -5847203.78947  -3961025.47744  22752685.7974                   22752686.3984
  -7205263.91447  -5573025.12144  21959808.0704                   21959808.3714
  -5382328.31648  -4176242.29745  21550959.4454                   21550957.7464
 11  8 16 19 57 30.0000000  0  7G07G08G11G17G26G24G28
   5455345.02347   4266765.59045  21410989.5944                   21410989.1914
  -6653025.97348  -5160290.45346  20018529.1884                   20018528.3134
   1448857.44947   1143625.99644  22259911.6254                   22259910.6174
 -16422643.80548 -12752987.45746  21237106.3054                   21237104.7424
  -5936463.39847  -4030578.46944  22735699.4774                   22735700.7664
  -7291225.21147  -5640007.95344  21943449.4924                   21943450.1994
  -5508315.78148  -4274414.32845  21526985.0164                   21526983.2934
 11  8 16 19 58  0.0000000  0  7G07G08G11G17G26G24G28
   5425406.23848   4243436.58245  21405292.0784                   21405292.7544
  -6737280.15648  -5225943.09846  20002496.1094                   20002495.4064
   1408964.47347   1112540.53944  22252320.3754                   22252319.2074
 -16571775.04348 -12869193.60246  21208727.4384                   21208726.7234
  -6025279.87547  -4099786.16044  22718798.2974                   22718799.3594
  -7376739.04747  -5706642.11344  21927177.4694                   21927177.5704
  -5634385.25048  -4372650.28145  21502995.3524                   21502993.2304
 11  8 16 19 58 30.0000000  0  7G07G08G11G17G26G24G28
   5395763.20747   4220338.02745  21399651.5704                   21399651.1134
  -6821076.76648  -5291239.17646  19986550.4454                   19986549.6254
   1369414.90647   1081722.66444  22244794.2734                   22244793.9144
 -16720656.73447 -12985205.27746  21180396.0164                   21180395.3834
  -6113657.32447  -4168651.77344  22701979.9384                   22701981.5904
  -7461808.32847  -5772929.85544  21910988.9224                   21910989.8014
  -5760539.02748  -4470951.90645  21478988.5084                   21478986.9804
 11  8 16 19 59  0.0000000  0  7G07G08G11G17G26G24G28
   5366414.10247   4197468.51245  21394066.3914                   21394066.2774
  -6904415.71148  -5356178.64546  19970691.6174                   19970690.8594
   1330206.55147   1051170.64544  22237333.4304                   22237332.7544
 -16869289.22348 -13101022.75846  21152111.9144                   21152111.5554
  -6201597.85947  -4237176.91844  22685246.4224                   22685247.2114
  -7546433.68747  -5838871.70744  21894885.8674                   21894885.2974
  -5886777.26248  -4569319.35545  21454966.5084                   21454965.0554
 11  8 16 19 59 30.0000000  0  7G07G08G11G17G26G24G28
   5337350.20347   4174821.21545  21388535.9454                   21388535.7814
  -6987304.23048  -5420767.13346  19954918.1024                   19954917.1254
   1291329.26247   1020876.60244  22229935.3754                   22229934.5824
 -17017680.25447 -13216652.11346  21123874.4304                   21123873.4184
  -6289110.07447  -4305368.31244  22668592.9144                   22668594.5594
  -7630622.80147  -5904473.62544  21878864.6414                   21878865.5594
  -6013106.59848  -4667757.79345  21430927.0164                   21430924.9344
 11  8 16 20  0  0.0000000  0  7G07G08G11G17G26G24G28
   6884001.01647   5380003.57845  21682853.9064                   21682853.7814
  -5494308.60548  -4257393.94546  20239025.6804                   20239024.8284
   2828212.85247   2218448.20744  22522394.5164                   22522393.6374
 -15590394.43048 -12104481.31646  21395477.3054                   21395477.1724
  -4800762.59047  -3145617.11344  22951816.6804                   22951817.3014
  -6138943.01247  -4742125.73844  22162721.9304                   22162722.2974
  -4564091.85548  -3538655.38745  21706665.2424                   21706663.3524
 11  8 16 20  0 30.0000000  0  7G07G08G11G17G26G24G28
   6855518.94147   5357809.66045  21677433.5864                   21677433.9844
  -5576278.35948  -4321266.50846  20223427.6334                   20223426.6644
   2790008.57047   2188678.59844  22515124.1484                   22515123.9694
 -15738285.79747 -12219721.31246  21367334.9304                   21367334.5634
  -4887406.64147  -3213132.00844  22935328.3984                   22935330.3244
  -6222244.27347  -4807035.79744  22146870.1094                   22146870.9184
  -4690585.03148  -3637221.48445  21682593.8594                   21682592.5984
 11  8 16 20  1  0.0000000  0  7G07G08G11G17G26G24G28
   6827319.28947   5335835.80145  21672067.1254                   21672068.0354
  -5657794.69548  -4384785.77046  20207915.2894                   20207914.5744
   2752131.45347   2159163.92244  22507916.2894                   22507916.0004
 -15885933.60948 -12334771.52046  21339238.3364                   21339237.9454
  -4973625.41047  -3280315.55544  22918921.9144                   22918923.2894
  -6305108.22747  -4871605.13345  22131101.5234                   22131102.4024
  -4817165.89148  -3735855.91445  21658507.0474                   21658505.0434
 11  8 16 20  1 30.0000000  0  7G07G08G11G17G26G24G28
   6799400.42647   5314080.76245  21666754.8364                   21666755.4454
  -5738857.35948  -4447951.51246  20192490.1094                   20192489.2424
   2714579.21147   2129902.39144  22500770.8364                   22500770.0474
 -16033338.42648 -12449632.39546  21311188.0004                   21311187.8404
  -5059420.28547  -3347168.75444  22902595.9144                   22902596.7584
  -6387535.28147  -4935834.00844  22115416.3914                   22115417.3554
  -4943833.97748  -3834558.31645  21634402.1174                   21634400.7344
 11  8 16 20  2  0.0000000  0  7G07G08G11G17G26G24G28
   6771756.45347   5292539.90245  21661494.1484                   21661495.0904
  -5819470.40648  -4510766.90246  20177149.8594                   20177148.6484
   2677345.44147   2100889.04744  22493685.7974                   22493684.2464
 -16180504.52347 -12564307.24646  21283183.2664                   21283182.8134
  -5144797.12147  -3413696.21944  22886348.8524                   22886350.3554
  -6469530.23446  -4999726.16844  22099813.0704                   22099814.3094
  -5070592.51648  -3933331.19545  21610280.8204                   21610279.2734
 11  8 16 20  2 30.0000000  0  7G07G08G11G17G26G24G28
   6744390.49647   5271215.68445  21656287.1024                   21656287.5594
  -5899629.08648  -4573228.24646  20161895.9924                   20161895.6644
   2640433.04747   2072126.11344  22486661.2344                   22486660.3204
 -16327427.07048 -12678792.31246  21255225.0554                   21255224.4614
  -5229753.09046  -3479895.75844  22870182.8594                   22870184.1804
  -6551088.59847  -5063278.14144  22084293.3134                   22084294.2814
  -5197436.78948  -4032170.87945  21586143.3834                   21586141.4024
 11  8 16 20  3  0.0000000  0  7G07G08G11G17G26G24G28
   6717300.22347   5250106.28145  21651132.3204                   21651132.6724
  -5979333.59048  -4635335.68746  20146728.8444                   20146728.4224
   2603838.86747   2043611.14144  22479698.0234                   22479696.2974
 -16474106.91447 -12793088.25046  21227312.6334                   21227312.2234
  -5314290.10946  -3545768.83244  22854095.6024                   22854097.2114
  -6632211.36747  -5126490.69944  22068855.5234                   22068856.9224
  -5324366.75048  -4131077.34045  21561989.6724                   21561987.5704
 11  8 16 20  3 30.0000000  0  7G07G08G11G17G26G24G28
   6690483.18447   5229209.78545  21646029.4064                   21646029.0394
  -6058584.15248  -4697089.41046  20131648.0634                   20131647.5594
   2567559.85947   2015341.74644  22472794.4924                   22472792.8324
 -16620545.18448 -12907195.95346  21199446.3444                   21199445.6764
  -5398411.02746  -3611317.66844  22838088.0784                   22838089.9774
  -6712900.08647  -5189365.01644  22053501.8754                   22053502.6564
  -5451382.78948  -4230050.87145  21537819.0784                   21537817.1644
 11  8 16 20  4  0.0000000  0  7G07G08G11G17G26G24G28
   6663938.86347   5208525.80945  21640977.7034                   21640978.2034
  -6137379.90248  -4758488.72746  20116653.9064                   20116652.9144
   2531595.05947   1987317.18844  22465950.7424                   22465949.7154
 -16766740.69948 -13021114.50046  21171626.2814                   21171625.5664
  -5482116.52346  -3676542.80544  22822159.2814                   22822160.9264
  -6793154.19947  -5251900.68744  22038229.5554                   22038230.7304
  -5578482.55148  -4329089.63345  21513633.0234                   21513630.9924
 11  8 16 20  4 30.0000000  0  8G07G08G11G04G17G26G24G28
   6637663.87147   5188051.69945  21635977.7584                   21635978.0634
  -6215722.74648  -4819535.13746  20101745.0944                   20101744.7194
   2495940.59847   1959534.47344  22459165.9454                   22459164.8364
  21787959.77356  17023256.68852  24543683.2814                   24543694.0394
 -16912695.39148 -13134845.38746  21143851.4064                   21143851.2034
  -5565409.71146  -3741446.66844  22806308.9454                   22806310.9614
  -6872975.64547  -5314099.23044  22023040.2034                   22023040.7504
  -5705667.58248  -4428194.84445  21489430.4774                   21489428.9144
 11  8 16 20  5  0.0000000  0  8G07G08G11G04G17G26G24G28
   6611654.40247   5167784.48845  21631028.4454                   21631028.8714
  -6293614.64848  -4880230.16446  20086923.3054                   20086922.5124
   2460591.90647   1931990.01644  22452438.7584                   22452438.4384
  21568070.20346  16851914.47743  24501839.7114                   24501849.9884
 -17058411.61748 -13248390.46546  21116123.1954                   21116122.5354
  -5648294.49647  -3806032.31644  22790536.7114                   22790538.0474
  -6952367.18447  -5375962.77044  22007932.8754                   22007933.3754
  -5832939.53948  -4527367.79346  21465211.5394                   21465209.6024
 11  8 16 20  5 30.0000000  0  8G07G08G11G04G17G26G24G28
   6585894.68047   5147711.89845  21626127.0234                   21626127.0594
  -6371069.29748  -4940584.48046  20072184.1954                   20072183.4844
   2425532.95747   1904671.33244  22445767.3444                   22445766.7304
  21347970.42646  16680408.47343  24459955.3444                   24459966.3484
 -17203903.92248 -13361761.03946  21088436.3984                   21088436.0234
  -5730786.88346  -3870312.18444  22774839.0704                   22774840.7074
  -7031343.49247  -5437502.75444  21992903.1954                   21992904.9264
  -5960311.52348  -4626618.67245  21440973.4144                   21440971.5084
 11  8 16 20  6  0.0000000  0  8G07G08G11G04G17G26G24G28
   6560382.20347   5127831.95745  21621271.9844                   21621272.1884
  -6448087.52348  -5000598.71146  20057528.0784                   20057527.5704
   2390760.60547   1877575.96944  22439150.2114                   22439149.3244
  21127662.15646  16508739.95343  24418032.7664                   24418042.5864
 -17349173.01248 -13474957.71146  21060792.9534                   21060792.1294
  -5812889.44947  -3934288.28144  22759215.3984                   22759216.6644
  -7109905.59847  -5498719.98444  21977954.1174                   21977954.6414
  -6087783.88748  -4725947.77745  21416716.0704                   21416714.1374
 11  8 16 20  6 30.0000000  0  8G07G08G11G04G17G26G24G28
   6535119.68447   5108146.79345  21616464.9614                   21616464.9964
  -6524664.57447  -5060269.18046  20042956.1024                   20042955.8714
   2356277.47747   1850705.96944  22432588.5704                   22432587.8014
  20907152.72746  16336914.70742  24376071.6484                   24376081.1454
 -17494214.62548 -13587977.10246  21033192.5944                   21033191.5984
  -5894599.75046  -3997958.73844  22743666.1414                   22743668.5514
  -7188049.79747  -5559611.56644  21963083.5784                   21963084.2854
  -6215351.68748  -4825351.25845  21392440.7344                   21392438.9304
 11  8 16 20  7  0.0000000  0  8G07G08G11G04G17G26G24G28
   8085529.31647   6316258.10545  21911498.1254                   21911498.1374
  -5025375.50448  -3891992.02046  20328261.1954                   20328260.8874
   3897505.02047   3051662.46944  22725874.7664   22725874.1454   22261875.06346
  17392542.71142                  24633865.7504                   24633875.5824
 -16063601.30548 -12473213.43746  21305429.3284                   21305428.4844
  -4400493.59047  -2833720.25444  23027986.2194                   23027987.8244
  -5690351.12947  -4392573.64844  22248086.1644                   22248086.9734
  -4767586.46948  -3697222.50845  21667941.0864                   21667939.6644
 11  8 16 20  7 30.0000000  0  8G07G08G11G04G17G26G24G28
   8060771.05947   6296965.86345  21906786.5164                   21906786.6524
  -5101062.02347  -3950968.57446  20313858.7584                   20313858.1954
   3863602.32847   3025244.75443  22719422.6094   22719422.2464   22040980.37546
  17220417.19542                  24591830.5084                   24591840.4384
 -16208179.73448 -12585871.92246  21277916.4694                   21277916.0084
  -4481415.06247  -2896776.00844  23012586.4224                   23012588.6214
  -5767652.00047  -4452808.09844  22233376.7034                   22233376.9574
  -4895333.17648  -3796765.38345  21643631.7344                   21643630.1644
 11  8 16 20  8  0.0000000  0  8G07G08G11G04G17G26G24G28
   8036276.16447   6277878.84045  21902125.6724                   21902125.3674
  -5176289.23447  -4009587.21546  20299543.3204                   20299542.6024
   3830000.36347   2999061.37943  22713028.7424   22713027.9964   21819910.91446
  17048155.51242                  24549761.7584                   24549772.7464
 -16352512.87947 -12698339.25846  21250451.0784                   21250450.3794
  -4561931.18047  -2959515.92644  22997265.3444                   22997266.7274
  -5844518.49247  -4512704.07844  22218748.8674                   22218750.0864
  -5023154.52048  -3896366.42646  21619308.3054                   21619306.6094
 11  8 16 20  8 30.0000000  0  8G07G08G11G04G17G26G24G28
   8012046.96147   6258998.85945  21897515.0474                   21897515.2814
  -5251052.66448  -4067844.48446  20285316.2034                   20285316.0594
   3796701.02347   2973113.80943  22706692.4304   22706691.2734   21598673.58246
  16875763.01642                  24507661.3204                   24507672.1414
 -16496596.93748 -12810612.51646  21223032.4614                   21223031.9024
  -4642039.60947  -3021938.13744  22982020.9304                   22982022.1994
  -5920946.94147  -4572258.71144  22204205.1564                   22204206.0204
  -5151045.66848  -3996021.86345  21594971.4064                   21594969.7274
 11  8 16 20  9  0.0000000  0  8G07G08G11G04G17G26G24G28
   7988083.91447   6240326.26245  21892954.9064                   21892955.2814
  -5325350.32847  -4125738.80946  20271178.1884                   20271177.3014
   3763704.28947   2947402.03144  22700413.0164   22700412.2234   21377273.35546
  16703243.58642                  24465530.1174                   24465541.5704
 -16640429.91448 -12922690.12146  21195662.0394                   21195661.2544
  -4721739.93747  -3084042.38744  22966854.9064                   22966856.7034
  -5996935.57446  -4631470.64544  22189744.9774                   22189746.1724
  -5279003.70748  -4095729.41445  21570621.5164                   21570619.8444
 11  8 16 20  9 30.0000000  0  8G07G08G11G04G17G26G24G28
   7964391.51647   6221864.55945  21888446.5554                   21888447.2274
  -5399176.49248  -4183265.73846  20257129.5554                   20257129.0904
   3731014.10247   2921929.15644  22694192.5314   22694191.4534   21155719.30146
  16530604.31342                  24423369.5164                   24423381.4534
 -16784005.91048 -13034567.48046  21168340.3134                   21168339.6374
  -4801027.73447  -3145825.17644  22951767.1414                   22951768.4384
  -6072479.06647  -4690335.70744  22175369.2664                   22175370.0704
  -5407021.47348  -4195483.51245  21546260.9924                   21546259.3954
 11  8 16 20 10  0.0000000  0  8G07G08G11G04G17G26G24G28
   7940976.84847   6203619.27345  21883990.5314                   21883991.7384
  -5472522.22748  -4240418.29746  20243172.2344                   20243171.7074
   3698637.05547   2896700.25044  22688031.3674   22688029.9844   20934022.66846
  16357853.92242                  24381183.2894                   24381193.0124
 -16927316.36748 -13146237.93746  21141069.3914                   21141068.7464
  -4879896.43047  -3207281.37944  22936758.5784                   22936760.2854
  -6147569.50447  -4748847.75444  22161080.5554                   22161080.7704
  -5535089.64848  -4295276.90645  21521890.3284                   21521888.2234
 11  8 16 20 10 30.0000000  0  8G07G08G11G04G17G26G24G28
   7917841.82447   6185591.89845  21879588.5704                   21879589.0904
  -5545384.07847  -4297193.80146  20229307.2034                   20229306.8134
   3666574.84847   2871716.70344  22681930.3524   22681928.8484   20712190.04346
  16184997.59042                  24338969.0704                   24338979.5004
 -17070357.66047 -13257698.64146  21113849.4694                   21113848.3054
  -4958343.95347  -3268409.39144  22921830.1884                   22921831.8054
  -6222203.70746  -4807004.28144  22146878.0314                   22146878.4734
  -5663203.52048  -4395105.89845  21497511.3914                   21497509.3094
 11  8 16 20 11  0.0000000  0  8G07G08G11G04G17G26G24G28
   7895004.32047   6167796.35945  21875242.9304                   21875243.4304
  -5617742.58648  -4353577.10246  20215537.9304                   20215537.5164
   3634844.22747   2846991.54344  22675891.8594   22675890.4144   20490243.71546
  16012052.67643                  24296733.6024                   24296743.4654
 -17213110.91848 -13368934.90646  21086684.3674                   21086683.2304
  -5036353.10947  -3329195.83244  22906986.1174                   22906987.8014
  -6296363.13347  -4864790.84044  22132765.8834                   22132766.1174
  -5791343.33648  -4494955.10245  21473126.6884                   21473124.7704
 11  8 16 20 11 30.0000000  0  8G07G08G11G04G17G26G24G28
   7872471.73047   6150238.39545  21870954.9224                   21870955.8014
  -5689588.82048  -4409561.21946  20201866.0084                   20201865.8014
   3603452.18447   2822530.18444  22669919.3134   22669917.1994   20268195.52346
  15839028.42243                  24254479.8984                   24254489.1054
 -17355566.90648 -13479939.53546  21059575.8444                   21059574.9144
  -5113916.48047  -3389634.90244  22892226.1024                   22892227.8914
  -6370039.24247  -4922200.82444  22118745.6644                   22118746.7854
  -5919498.41048  -4594816.18745  21448739.7114                   21448737.7304
 11  8 16 20 12  0.0000000  0  8G07G08G11G04G17G26G24G28
   7850257.51647   6132928.50045  21866727.6954                   21866728.4414
  -5760907.68047  -4465134.39846  20188294.6414                   20188294.0314
   3572411.89847   2798342.93044  22664011.6954   22664011.2584   20046063.69546
  15665939.03143                  24212209.1484                   24212218.4184
 -17497710.92248 -13590701.06246  21032526.6024                   21032526.1024
  -5191020.92247  -3449716.36744  22877553.8364                   22877555.6484
  -6443217.63746  -4979222.93744  22104820.4534                   22104821.2504
  -6047652.83247  -4694676.77345  21424352.4534                   21424350.7384
 11  8 16 20 12 30.0000000  0  8G07G08G11G04G17G26G24G28
   7828380.05947   6115881.02745  21862564.9454                   21862565.2734
  -5831678.89848  -4520280.83646  20174827.2114                   20174827.0474
   3541741.73447   2774444.08244  22658175.4694   22658175.3834   19823871.32046
  15492802.46543                  24169926.2034                   24169936.7584
 -17639522.62947 -13701203.65646  21005540.2344                   21005539.9494
  -5267647.71946  -3509425.66844  22862972.5554                   22862973.8874
  -6515878.77747  -5035842.00444  22090993.7974                   22090994.0634
  -6175785.59848  -4794520.46945  21399969.3364                   21399968.0204
 11  8 16 20 13  0.0000000  0  8G07G08G11G04G17G26G24G28
   7806852.57847   6099106.29345  21858468.6094                   21858469.1094
  -5901887.81247  -4574989.12946  20161466.9064                   20161466.6454
   3511454.23047   2750843.39844  22652410.8914   22652410.8674   19601636.46546
  15319632.80943                  24127636.0004                   24127646.1954
 -17780987.23847 -13811435.77346  20978621.0864                   20978620.1914
  -5343784.09847  -3568752.81644  22848484.5394                   22848485.9384
  -6588008.41847  -5092046.91844  22077267.7274                   22077268.8634
  -6303880.57447  -4894334.71545  21375594.2114                   21375591.9844
 11  8 16 20 13 30.0000000  0  8G07G08G11G04G17G26G24G28
   7785688.47747   6082614.66845  21854441.3834                   21854441.7544
  -5971519.28948  -4629247.46946  20148216.4774                   20148216.0944
   3481562.15647   2727550.84844  22646723.2974   22646722.2894   19379376.92646
  15146443.92642                  24085341.5314                   24085351.4344
 -17922090.46147 -13921386.29746  20951770.2894                   20951769.0514
  -5419416.74647  -3627687.44944  22834091.5704                   22834093.8244
  -6659592.09047  -5147826.41844  22063646.0084                   22063646.5234
  -6431921.66847  -4994106.98845  21351228.6024                   21351227.3244
 11  8 16 20 14  0.0000000  0  8G07G08G11G04G17G26G24G28
   7764893.14147   6066410.42245  21850483.8594                   21850484.8834
  -6040566.59448  -4683050.60246  20135077.2814                   20135077.0204
   3452070.85547   2704570.55544  22641111.7974   22641111.1804   19157102.61346
  14973243.55542                  24043043.6414                   24043052.9454
 -18062824.92248 -14031049.46146  20924989.2814                   20924987.9224
  -5494540.62947  -3686225.66444  22819796.2584                   22819797.9654
  -6730623.37147  -5203175.47744  22050129.0634                   22050130.1914
  -6559900.97748  -5093831.10545  21326875.2584                   21326873.0314
 11  8 16 20 14 30.0000000  0  8G07G08G11G04G17G26G24G28
   9319898.32447   7278102.66045  22146392.2274                   22146392.2814
  -4533594.88748  -3508786.97346  20421844.5394                   20421844.0514
   4998411.03547   3909510.93443  22935369.8984   22935369.6214   20510256.74646
  16027649.73843                  24300539.6564                   24300549.4304
 -16627753.45348 -12912811.91846  21198074.0784                   21198073.1294
  -3993722.85947  -2516757.37544  23105392.4064                   23105394.6214
  -5225668.26647  -4030483.19544  22336512.7584                   22336513.3954
  -5112380.83248  -3965893.32045  21602328.7814                   21602326.6804
 11  8 16 20 15  0.0000000  0  8G07G08G11G04G17G26G24G28
   9299863.37547   7262490.92245  22142578.5784                   22142579.5554
  -4601446.54748  -3561658.43446  20408932.9844                   20408932.1764
   4969741.66847   3887171.13343  22929914.4614   22929913.8794   20287989.87146
  15854455.15643                  24258244.1174                   24258253.0554
 -16767723.34848 -13021879.32846  21171438.4924                   21171437.9804
  -4067807.63347  -2574485.88344  23091294.6414                   23091297.3634
  -5295569.53547  -4084951.69944  22323210.7734                   22323211.5204
  -5240205.83247  -4065497.20345  21578004.9774                   21578003.0634
 11  8 16 20 15 30.0000000  0  8G07G08G11G04G17G26G24G28
   9280206.32847   7247173.62545  22138838.9224                   22138839.8094
  -4668700.55947  -3614064.19946  20396134.4144                   20396134.3984
   4941480.32447   3865149.28944  22924536.4454   22924536.2504   20065731.39846
  15681267.06643                  24215949.2814                   24215958.0354
 -16907311.03548 -13130648.91046  21144875.8674                   21144875.0904
  -4141375.31647  -2631811.48044  23077295.9384                   23077297.4414
  -5364906.73046  -4138980.67244  22310016.0704                   22310016.9414
  -5367951.82048  -4165039.52046  21553695.3284                   21553693.4384
 11  8 16 20 16  0.0000000  0  8G07G08G11G04G17G26G24G28
   9260934.62947   7232156.63745  22135171.5474                   22135171.8834
  -4735347.88348  -3665997.22746  20383452.3524                   20383451.9184
   4913634.04347   3843450.86343  22919237.5234   22919237.0634   19843493.27746
  15508094.86342                  24173658.6334                   24173667.8484
 -17046507.59448 -13239113.72746  21118387.5704                   21118386.9654
  -4214418.64147  -2688728.49244  23063395.9534                   23063398.0084
  -5433671.46547  -4192563.57444  22296930.4844                   22296931.3594
  -5495608.34848  -4264512.12945  21529403.3984                   21529401.4024
 11  8 16 20 16 30.0000000  0  8G07G08G11G04G17G26G24G28
   9242048.52747   7217440.07445  22131577.8834                   22131578.6024
  -4801386.53148  -3717455.95746  20370885.1174                   20370885.3594
   4886202.62147   3822075.68843  22914017.3754   22914016.8094   19621280.78146
  15334942.66442                  24131372.6094                   24131381.7274
 -17185311.15248 -13347272.30146  21091974.0634                   21091973.2424
  -4286937.81247  -2745237.04343  23049595.3524                   23049598.1254
  -5501862.37547  -4245699.34844  22283954.0784                   22283954.9534
  -5623172.67648  -4363912.90245  21505128.6024                   21505126.5594
 11  8 16 20 17  0.0000000  0  8G07G08G11G04G17G26G24G28
   9223553.53147   7203028.27745  22128058.4534                   22128059.5704
  -4866809.62948  -3768435.03546  20358436.1094                   20358435.5864
   4859191.44147   3801027.95743  22908877.5164   22908876.7664   19399104.47346
  15161818.68442                  24089093.6174                   24089102.6454
 -17323714.50848 -13455119.02046  21065637.0704                   21065636.1954
  -4358927.39547  -2801332.92244  23035896.6484                   23035898.9384
  -5569472.96547  -4298382.92244  22271088.8364                   22271089.2734
  -5750636.13347  -4463235.07445  21480873.1254                   21480871.3364
 11  8 16 20 17 30.0000000  0  8G07G08G11G04G17G26G24G28
   9205454.60247   7188925.09845  22124613.9844                   22124615.2974
  -4931611.09848  -3818929.73046  20346104.4614                   20346104.8014
   4832604.87146   3780311.15243  22903818.2814   22903817.2854   19176973.64146
  14988730.09043                  24046823.5394                   24046831.8954
 -17461711.10248 -13562648.79346  21039376.9774                   21039376.2504
  -4430382.70747  -2857012.49644  23022300.0164                   23022301.4964
  -5636497.78547  -4350610.05544  22258334.4694                   22258334.6564
  -5877991.34848  -4562472.88745  21456638.3674                   21456636.1724
 11  8 16 20 18  0.0000000  0  8G07G08G11G04G17G26G24G28
   9187759.80547   7175136.81645  22121247.4924                   22121248.0744
  -4995781.08648  -3868932.36346  20333893.9534                   20333893.2894
   4806450.23447   3759930.86743  22898841.6724   22898840.0594   18954901.51246
  14815687.26243                  24004563.9534                   24004572.5664
 -17599292.19948 -13669854.81246  21013196.3984                   21013195.1684
  -4501296.20347  -2912269.87144  23008804.6564                   23008807.5554
  -5702927.60547  -4402373.52744  22245693.1024                   22245693.7344
  -6005226.89147  -4661617.46945  21432426.0864                   21432423.9964
 11  8 16 20 18 30.0000000  0  8G07G08G11G04G17G26G24G28
   9170471.08247   7161664.96145  22117957.0554                   22117958.1054
  -5059316.65648  -3918440.64546  20321802.7664                   20321802.8364
   4780729.21147   3739888.50843  22893947.0864   22893945.5124   18732894.54346
  14642695.23043                  23962317.5084                   23962326.0744
 -17736454.17247 -13776734.23846  20987094.7114                   20987094.0904
  -4571665.95346  -2967103.54344  22995414.0164                   22995416.4224
  -5768759.75447  -4453671.31244  22233166.0004                   22233166.1684
  -6132338.05548  -4760665.12146  21408237.4064                   21408235.7424
 11  8 16 20 19  0.0000000  0  8G07G08G11G04G17G26G24G28
   9153588.97747   7148509.93845  22114745.2584                   22114745.9144
  -5122215.19947  -3967452.53946  20309833.9144                   20309833.5784
   4755442.37147   3720184.44943  22889135.1644   22889133.8054   18510958.32846
  14469758.30143                  23920082.9844                   23920092.4144
 -17873194.18448 -13883284.85946  20961073.8834                   20961072.9884
  -4641491.93046  -3021513.49644  22982126.8524                   22982129.5664
  -5833992.64847  -4504502.12944  22220752.7424                   22220752.7234
  -6259321.39847  -4859613.18445  21384073.5474                   21384071.2734
 11  8 16 20 19 30.0000000  0  8G07G08G11G04G17G26G24G28
   9137118.43047   7135675.60945  22111610.6414                   22111611.8484
  -5184471.15248  -4015963.71146  20297987.0314                   20297986.7664
   4730593.76646   3700821.87143  22884406.0634   22884405.5164   18289102.47346
  14296884.00843                  23877865.9304                   23877874.3984
 -18009506.45348 -13989502.18046  20935134.8984                   20935133.9224
  -4710769.27747  -3075495.95343  22968943.7424                   22968946.6294
  -5898620.72747  -4554861.67644  22208453.6954                   22208454.8324
  -6386169.19148  -4958455.61745  21359935.6174                   21359933.5084
 11  8 16 20 20  0.0000000  0  8G07G08G11G04G17G26G24G28
   9121066.05147   7123167.12145  22108556.7894                   22108557.2544
  -5246076.46947  -4063967.89846  20286263.7734                   20286264.0204
   4706189.41846   3681805.46143  22879762.5474   22879761.5394   18067338.15646
  14124081.03143                  23835665.4454                   23835673.3554
 -18145382.73448 -14095379.77046  20909278.4384                   20909277.4924
  -4779492.10247  -3129046.30144  22955866.3204                   22955868.8554
  -5962636.78146  -4604744.30144  22196272.0234                   22196272.9144
  -6512872.17648  -5057185.19945  21335824.6644                   21335822.5204
 11  8 16 20 20 30.0000000  0  8G07G08G11G04G17G26G24G28
   9105430.89547   7110983.75445  22105580.7664                   22105582.1604
  -5307030.56248  -4111464.64846  20274664.7194                   20274664.6374
   4682228.33647   3663134.45743  22875202.9774   22875202.1054   17845669.81646
  13951352.82443                  23793482.4844                   23793490.5824
 -18280822.42648 -14200917.16846  20883505.3134                   20883504.0594
  -4847661.51247  -3182165.42644  22942894.9064                   22942897.1644
  -6026040.70747  -4654149.96544  22184206.5474                   22184207.5204
  -6639427.98848  -5155800.11745  21311741.7664                   21311739.9694
 11  8 16 20 21  0.0000000  0  8G07G08G11G04G17G26G24G28
   9090213.60947   7099126.00045  22102685.9454                   22102686.7504
  -5367331.12148  -4158452.14546  20263190.5634                   20263189.6414
   4658710.90246   3644809.12943  22870727.1644   22870726.8364   17624102.68846
  13778703.50043                  23751319.9774                   23751327.3984
 -18415823.50448 -14306112.78146  20857815.1954                   20857814.3794
  -4915276.93047  -3234852.85944  22930027.6484                   22930030.3874
  -6088830.80147  -4703077.32044  22172258.3754                   22172258.6644
  -6765832.78548  -5254297.35945  21287687.2274                   21287685.6454
 11  8 16 20 21 30.0000000  0  8G07G08G11G04G17G26G24G28
  10650834.06347   8315193.74645  22399662.1484                   22399662.6914
  -3851555.97748  -2977328.70346  20551631.9144                   20551632.5234
   6211056.46946   4854429.02043  23166129.2584   23166128.4534   18978068.38746
  14833742.09843                  24008970.2194                   24008978.1954
 -16974960.80948 -13183362.59846  21132002.3984                   21132001.1374
  -3406917.49647  -2059507.95344  23217059.0164                   23217061.5314
  -4575585.05547  -3523924.80544  22460218.8914                   22460219.4264
  -5316660.37148  -4125072.10246  21563456.0864                   21563454.1454
 11  8 16 20 22  0.0000000  0  8G07G08G11G04G17G26G24G28
  10636453.74247   8303988.17245  22396925.2974                   22396926.5434
  -3910545.41848  -3023294.55146  20540407.4304                   20540407.0824
   6188425.72746   4836794.62943  23161822.7584   23161822.2424   18756719.80946
  14661263.11343                  23966848.7584                   23966856.9884
 -17109079.10248 -13287870.32846  21106480.5164                   21106479.4884
  -3473425.34847  -2111332.33644  23204403.3754                   23204405.8954
  -4637144.37147  -3571893.09844  22448505.1564                   22448505.1884
  -5442753.60948  -4223326.54745  21539461.0394                   21539459.0594
 11  8 16 20 22 30.0000000  0  8G07G08G11G04G17G26G24G28
  10622493.96547   8293110.29345  22394269.0314                   22394269.7624
  -3968874.68448  -3068745.97746  20529307.6094                   20529307.5234
   6166240.13346   4819507.10543  23157601.1254   23157600.0554   18535490.35546
  14488876.94543                  23924750.1954                   23924757.6174
 -17242751.09448 -13392030.28146  21081043.2344                   21081042.6054
  -3539377.46947  -2162723.68444  23191852.5704                   23191855.1024
  -4698084.77347  -3619379.13344  22436908.1334                   22436908.5824
  -5568683.90648  -4321454.05145  21515497.6024                   21515495.6484
 11  8 16 20 23  0.0000000  0  8G07G08G11G04G17G26G24G28
  10608958.52347   8282563.05945  22391693.1414                   22391694.0354
  -4026538.81248  -3113679.11346  20518334.2274                   20518334.2934
   6144503.03146   4802569.05943  23153465.4534   23153463.8914   18314388.44146
  14316590.12543                  23882675.4614                   23882682.7274
 -17375971.92248 -13495838.68446  21055692.3444                   21055691.1174
  -3604770.63747  -2213679.49244  23179409.4844                   23179411.8484
  -4758401.98047  -3666379.56644  22425429.8594                   22425431.1334
  -5694445.08248  -4419449.76245  21491565.7034                   21491563.7274
 11  8 16 20 23 30.0000000  0  8G07G08G11G04G17G26G24G28
  10595858.28147   8272354.94545  22389201.0634                   22389202.0664
  -4083525.69548  -3158084.52746  20507490.5164                   20507489.8094
   6123224.64846   4785988.46543  23149414.9454   23149414.7114   18093429.65646
  14144414.89843                  23840627.6804                   23840635.5124
 -17508729.29348 -13599285.95746  21030429.4694                   21030428.3984
  -3669594.41446  -2264191.62144  23167073.3834                   23167076.1214
  -4818084.43447  -3712885.38344  22414073.4694                   22414073.5864
  -5820022.70748  -4517302.45345  21467669.4304                   21467667.3164
 11  8 16 20 24  0.0000000  0  8G07G08G11G04G17G26G24G28
  10583191.27047   8262484.43045  22386789.8364                   22386791.2074
  -4139836.59848  -3201963.21146  20496774.4534                   20496774.8594
   6102402.64546   4769763.47743  23145452.9844   23145452.5474   17872617.35546
  13972353.78143                  23798608.7814                   23798615.9574
 -17641023.47348 -13702372.29346  21005254.2344                   21005253.6054
  -3733851.14846  -2314261.90243  23154846.0084                   23154848.0704
  -4877133.14847  -3758897.40244  22402836.9304                   22402837.4144
  -5945415.94948  -4615011.44946  21443807.6484                   21443805.8794
 11  8 16 20 24 30.0000000  0  8G07G08G11G04G17G26G24G28
  10570965.66447   8252957.85244  22384463.7114                   22384465.1804
  -4195461.85248  -3245307.60946  20486189.6334                   20486189.4844
   6082044.84446   4753900.19943  23141578.8594   23141578.5274   17651964.45346
  13800416.81343                  23756619.2114                   23756626.7734
 -17772845.00448 -13805090.32446  20980169.5784                   20980169.0704
  -3797533.20746  -2363884.37144  23142727.8054                   23142730.5744
  -4935539.46147  -3804408.79744  22391722.5084                   22391723.1254
  -6070613.35548  -4712567.86745  21419983.5084                   21419981.6524
 11  8 16 20 25  0.0000000  0  8G07G08G11G04G17G26G24G28
  10559185.52047   8243778.38345  22382222.7344                   22382223.4414
  -4250395.97348  -3288113.46946  20475736.2114                   20475735.7304
   6062155.36346   4738401.85543  23137794.6024   23137793.8674   17431480.18446
  13628611.28943                  23714663.0084                   23714669.9224
 -17904188.35548 -13907435.77346  20955175.6414                   20955174.7464
  -3860636.60547  -2413055.94144  23130719.6484                   23130721.8634
  -4993298.43747  -3849415.81644  22380730.7974                   22380731.2734
  -6195607.89148  -4809966.19145  21396197.7734                   21396195.6844
 11  8 16 20 25 30.0000000  0  8G07G08G11G04G17G26G24G28
  10547854.59047   8234948.94145  22380065.8444                   22380067.6094
  -4304634.17248  -3330377.05546  20465414.6254                   20465414.6294
   6042737.00046   4723270.67643  23134099.3984   23134099.0904   17211173.39146
  13456944.06343                  23672739.6884                   23672746.6054
 -18035048.13348 -14009404.38746  20930274.0394                   20930273.0164
  -3923158.28947  -2461774.22344  23118822.2814                   23118824.9734
  -5050405.56247  -3893914.87544  22369863.6564                   22369864.0554
  -6320392.76648  -4907201.14546  21372451.9844                   21372450.1644
 11  8 16 20 26  0.0000000  0  8G07G08G11G04G17G26G24G28
  10536977.28947   8226472.96944  22377996.2194                   22377997.5164
  -4358171.03148  -3372094.14546  20455227.3834                   20455227.0904
   6023793.98046   4708509.83243  23130494.8134   23130494.2624   16991053.19946
  13285422.18843                  23630851.4844                   23630858.5944
 -18165418.55948 -14110991.68446  20905465.3984                   20905464.3244
  -3985094.09047  -2510035.97744  23107036.5634                   23107038.8674
  -5106856.06247  -3937902.28544  22359121.9304                   22359122.5124
  -6444960.40648  -5004266.82446  21348747.4694                   21348745.2074
 11  8 16 20 26 30.0000000  0  8G07G08G11G04G17G26G24G28
  10526560.60247   8218355.91844  22376013.9304                   22376015.6994
  -4410998.03948  -3413258.10546  20445174.5234                   20445174.3674
   6005333.23846   4694124.81643  23126981.7194   23126981.3714   16771132.12146
  13114055.49643                  23589001.6954                   23589008.8794
 -18295290.74248 -14212190.75446  20880751.3054                   20880750.4924
  -4046437.34047  -2557836.02044  23095363.0164                   23095365.7234
  -5162641.68747  -3981371.60244  22348506.1024                   22348506.9024
  -6569300.14548  -5101154.92645  21325086.8594                   21325084.6024
 11  8 16 20 27  0.0000000  0  8G07G08G11G04G17G26G24G28
  10516607.97347   8210600.45745  22374120.3914                   22374122.2934
  -4463110.68747  -3453865.42246  20435258.1024                   20435257.7074
   5987357.75046   4680117.89843  23123561.1644   23123560.4264   16551418.62147
  12942850.54743                  23547191.6254                   23547198.6094
 -18424660.55948 -14312998.35546  20856133.1254                   20856131.9774
  -4107185.00847  -2605171.96144  23083804.1644                   23083805.6414
  -5217758.49647  -4024319.76244  22338017.4924                   22338018.1334
  -6693405.59448  -5197860.44145  21301469.8914                   21301468.3244
 11  8 16 20 27 30.0000000  0  8G07G08G11G04G17G26G24G28
  10507124.03547   8203210.22345  22372315.4844                   22372317.3634
  -4514503.91848  -3493912.16445  20425478.2814                   20425478.1094
   5969871.21547   4666491.99643  23120234.1174   23120232.8364   16331921.58246
  12771814.27043                  23505422.7584                   23505429.5984
 -18553522.13748 -14413409.93746  20831611.4924                   20831610.8524
  -4167333.64547  -2652041.10944  23072356.8594                   23072360.0784
  -5272201.71147  -4066743.04744  22327657.9454                   22327658.2304
  -6817269.71948  -5294377.92645  21277899.3444                   21277897.5744
 11  8 16 20 28  0.0000000  0  8G07G08G11G04G17G26G24G28
  10498105.96147   8196183.00045  22370600.0634                   22370601.7624
  -4565178.44948  -3533398.87146  20415834.9774                   20415835.0744
   5952871.34046   4653245.33943  23116998.6254   23116997.4304   16112644.49646
  12600949.36743                  23463694.9144                   23463701.3874
 -18681875.70348 -14513425.66046  20807186.9454                   20807185.9694
  -4226885.29747  -2698445.10944  23061025.7584                   23061028.2034
  -5325972.68047  -4108642.52344  22317425.7974                   22317425.8204
  -6940890.81248  -5390706.03546  21254375.1724                   21254373.1054
 11  8 16 20 28 30.0000000  0  8G07G08G11G04G17G26G24G28
  10489558.50847   8189522.48445  22368974.1174                   22368975.5944
  -4615128.64848  -3572321.15646  20406329.7894                   20406329.9414
   5936362.28946   4640381.09043  23113857.6334   23113856.0984   15893596.71146
  12430263.16443                  23422011.0084                   23422016.8284
 -18809715.09048 -14613040.72746  20782859.7974                   20782858.2854
  -4285836.09047  -2744380.89144  23049807.3054                   23049810.5274
  -5379066.27347  -4150014.15244  22307322.0004                   22307322.7664
  -7064260.70348  -5486838.40646  21230898.1254                   21230896.3404
 11  8 16 20 29  0.0000000  0  8G07G08G11G04G17G26G24G28
  12056908.60947   9410834.09844  22667230.3054                   22667232.0204
  -3088924.89148  -2383071.53146  20696756.6724                   20696756.6994
   7495770.66846   5855504.49143  23410602.1174   23410601.2464   17250217.30146
  13487370.52043                  23680167.2734                   23680172.9964
 -17361608.18048 -13484645.69546  21058425.1414                   21058424.0394
  -2768757.86747  -1562242.12543  23338497.9844                   23338500.8754
  -3856053.49647  -2963250.96944  22597141.6484                   22597141.7304
  -5611946.48848  -4355164.96946  21507264.3134                   21507262.6604
 11  8 16 20 29 30.0000000  0  8G07G08G11G04G17G26G24G28
  12049321.54347   9404921.92645  22665787.2664                   22665788.5204
  -3137404.05148  -2420847.55546  20687531.5634                   20687531.8834
   7480260.98046   5843418.99643  23407651.2664   23407650.4064   17031662.48846
  13317068.46143                  23638577.2194                   23638583.4694
 -17488396.46948 -13583441.72346  21034298.2274                   21034296.9884
  -2826489.31647  -1607227.79744  23327512.0634                   23327514.6094
  -3907771.62947  -3003550.82044  22587300.3914                   22587300.8324
  -5734787.07048  -4450884.88345  21483888.6644                   21483886.6914
 11  8 16 20 30  0.0000000  0  8G07G08G11G04G17G26G24G28
  12042218.89547   9399387.23044  22664435.4384                   22664436.6804
  -3185142.19947  -2458046.17245  20678447.4694                   20678447.0314
   7465254.87546   5831725.92243  23404795.9844   23404794.6054   16813366.05146
  13146967.74643                  23597036.0864                   23597042.3244
 -17614652.88747 -13681823.32046  21010272.5084                   21010271.5904
  -2883607.59047  -1651735.64544  23316642.8054                   23316645.5234
  -3958796.91047  -3043310.78544  22577589.9534                   22577590.6884
  -5857353.50448  -4546391.18045  21460565.1724                   21460563.2304
 11  8 16 20 30 30.0000000  0  8G07G08G11G04G17G26G24G28
  12035594.41047   9394225.14144  22663174.7034                   22663176.2664
  -3232144.18747  -2494671.15246  20669503.0704                   20669503.3014
   7450746.09046   5820420.32043  23402034.5234   23402034.0204   16595327.12546
  12977067.66043                  23555545.2194                   23555550.9964
 -17740381.62948 -13779793.74246  20986346.6724                   20986345.6604
  -2940119.00047  -1695770.62144  23305889.7814                   23305891.9614
  -4009134.72347  -3082535.07844  22568011.8054                   22568012.0864
  -5979648.75848  -4641686.18046  21437292.6334                   21437291.4144
 11  8 16 20 31  0.0000000  0  8G07G08G11G04G17G26G24G28
  12029445.32847   9389433.47344  22662004.7974                   22662006.2274
  -3278412.03148  -2530724.07445  20660699.0864                   20660699.1724
   7436731.10946   5809499.51643  23399368.0084   23399367.0274   16377547.97746
  12807370.02343                  23514102.2344                   23514109.1214
 -17865584.62947 -13877354.49646  20962521.3674                   20962520.3054
  -2996027.22747  -1739335.57444  23295250.1254                   23295253.0984
  -4058787.56247  -3121225.62144  22558562.7194                   22558563.3674
  -6101672.23047  -4736769.38345  21414073.0164                   21414070.8594
 11  8 16 20 31 30.0000000  0  8G07G08G11G04G17G26G24G28
  12023769.46547   9385010.56344  22660924.6254                   22660926.4144
  -3323946.95748  -2566205.88346  20652034.1564                   20652033.8524
   7423207.50846   5798961.62943  23396794.4454   23396794.0084   16160031.51646
  12637877.07843                  23472710.1484                   23472716.0594
 -17990262.37948 -13974505.96546  20938796.3984                   20938795.1214
  -3051334.73847  -1782432.45744  23284726.1254                   23284728.2154
  -4107756.98847  -3159383.64144  22549243.7894                   22549244.6214
  -6223422.51248  -4831639.71945  21390904.3364                   21390902.8164
 11  8 16 20 32  0.0000000  0  8G07G08G11G04G17G26G24G28
  12018556.64147   9380948.43444  22659932.7974                   22659934.2114
  -3368758.00048  -2601123.62946  20643506.7424                   20643507.1054
   7410164.99646   5788798.60543  23394312.6414   23394312.0004   15942772.94146
  12468585.05143                  23431366.2894                   23431372.9454
 -18114423.42248 -14071254.80546  20915169.2974                   20915168.1684
  -3106052.06247  -1825069.43044  23274313.6024                   23274316.6564
  -4156052.41847  -3197016.43744  22540053.7894                   22540054.3094
  -6344906.60548  -4926302.63746  21367786.7504                   21367785.2664
 11  8 16 20 32 30.0000000  0  8G07G08G11G04G17G26G24G28
  12013801.74247   9377243.14844  22659028.1024                   22659030.3634
  -3412849.38748  -2635480.61346  20635116.4534                   20635116.8714
   7397597.99646   5779006.09043  23391920.9304   23391921.0984   15725772.10547
  12299493.85543                  23390072.5704                   23390078.3554
 -18238071.78148 -14167604.15646  20891639.7114                   20891638.8834
  -3160185.42247  -1867251.37544  23264012.7424                   23264014.9964
  -4203678.70747  -3234127.86344  22530990.5004                   22530991.3554
  -6466126.82048  -5020759.93446  21344719.4844                   21344717.5354
 11  8 16 20 33  0.0000000  0  8G07G08G11G04G17G26G24G28
  12009495.33647   9373887.30144  22658208.5084                   22658210.7704
  -3456229.52047  -2669283.35946  20626861.5784                   20626862.1994
   7385496.87546   5769576.62143  23389617.6884   23389618.1884   15509024.83646
  12130600.24643                  23348827.0554                   23348832.6644
 -18361215.21947 -14263560.05146  20868206.1414                   20868205.0164
  -3213743.93747  -1908985.39843  23253820.2114                   23253823.4494
  -4250644.50847  -3270724.61344  22522053.8444                   22522054.1334
  -6587088.62547  -5115015.87146  21321700.8134                   21321699.5944
 11  8 16 20 33 30.0000000  0  8G07G08G11G04G17G26G24G28
  12005626.05547   9370872.11344  22657473.1414                   22657474.7274
  -3498908.50448  -2702539.78146  20618740.0944                   20618740.3714
   7373850.24246   5760501.28143  23387401.5704   23387401.6054   15292525.40647
  11961899.72743                  23307628.7894                   23307633.6884
 -18483863.11348 -14359129.81246  20844866.6334                   20844865.7234
  -3266739.73047  -1950280.93444  23243735.6564                   23243738.1604
  -4296960.18746  -3306814.77344  22513239.5864                   22513240.9344
  -6707799.95748  -5209076.63346  21298730.6414                   21298728.8364
 11  8 16 20 34  0.0000000  0  8G07G08G11G04G17G26G24G28
  12002172.49247   9368180.85544  22656815.8444                   22656817.7304
  -3540907.52047  -2735266.33246  20610748.0004                   20610748.0474
   7362636.09447   5751762.95743  23385268.0084   23385267.8754   15076257.20746
  11793379.43043                  23266472.8444                   23266478.6684
 -18606036.23848 -14454329.60946  20821618.1884                   20821617.1724
  -3319194.68047  -1991155.03944  23233753.7424                   23233756.4804
  -4342647.18047  -3342415.05144  22504545.9224                   22504546.8634
  -6828278.75848  -5302956.21146  21275804.2114                   21275802.5784
 11  8 16 20 34 30.0000000  0  8G07G08G11G04G17G26G24G28
  11999129.94547   9365809.84844  22656237.1644                   22656239.2074
  -3582230.06248  -2767465.77046  20602885.0084                   20602884.5904
   7351849.32446   5743357.67243  23383215.5784   23383215.6564   14860220.96947
  11625039.84843                  23225362.9844                   23225367.8204
 -18727737.32048 -14549161.59846  20798459.2974                   20798458.3874
  -3371113.89547  -2031611.70743  23223874.4384                   23223876.7974
  -4387709.52347  -3377528.58644  22495970.9144                   22495971.5824
  -6948526.39548  -5396655.64846  21252921.5634                   21252920.3094
 11  8 16 20 35  0.0000000  0  8G07G08G11G04G17G26G24G28
  11996484.56347   9363748.33244  22655733.6174                   22655735.7274
  -3622888.87948  -2799148.03546  20595147.8284                   20595147.6054
   7341476.26246   5735274.71943  23381241.9454   23381241.7734   14644408.04347
  11456874.27343                  23184294.5704                   23184299.8094
 -18848979.13748 -14643635.69946  20775387.4384                   20775386.7304
  -3422511.89547  -2071662.21544  23214093.8134                   23214096.2934
  -4432160.47347  -3412165.71544  22487511.6724                   22487512.7934
  -7068553.34048  -5490183.13346  21230081.4774                   21230079.3634
 11  8 16 20 35 30.0000000  0  8G07G08G11G04G17G26G24G28
  11994227.04347   9361989.05944  22655303.7584                   22655306.1524
  -3662892.46547  -2830319.71546  20587535.1414                   20587535.0354
   7331507.12946   5727506.50043  23379345.2034   23379344.2624   14428814.34447
  11288879.55143                  23143267.7194                   23143273.5044
 -18969769.22348 -14737757.80946  20752401.8834                   20752401.1914
  -3473398.52747  -2111314.25043  23204410.6174                   23204413.0634
  -4476009.08647  -3446333.48844  22479167.8054                   22479168.8714
  -7188365.28148  -5583543.06645  21207281.8364                   21207279.7774
 11  8 16 20 36  0.0000000  0  8G07G08G11G04G17G26G24G28
  11992341.83247   9360519.87544  22654945.9454                   22654948.0904
  -3702255.34447  -2860992.15645  20580044.8674                   20580044.7194
   7321925.95346   5720040.60543  23377521.2344   23377521.0354   14213429.61746
  11121047.61343                  23102281.5554                   23102286.5944
 -19090121.78548 -14831538.98446  20729499.5784                   20729498.5044
  -3523789.67247  -2150580.21143  23194821.5554                   23194824.0394
  -4519270.33247  -3480043.57044  22470935.6564                   22470936.2894
  -7307974.53148  -5676745.07045  21184521.0084                   21184519.2544
 11  8 16 20 36 30.0000000  0  8G07G08G11G04G17G26G24G28
  13566241.28147  10586934.86344  22954448.3054                   22954450.9494
  -2165563.45748  -1663569.96145  20872467.6334                   20872467.6954
   8888145.25846   6940471.22743  23675563.1564   23675562.6454   15573678.59846
  12180982.21943                  23361128.4614                   23361132.4454
 -17634618.76648 -13697380.73846  21006472.0554                   21006471.8164
  -1998272.00046   -961865.27743  23485117.2424                   23485120.5554
  -2986529.86747  -2285700.34844  22762606.6564                   22762607.2664
  -5851961.17248  -4542189.18745  21461591.4454                   21461589.2424
 11  8 16 20 37  0.0000000  0  8G07G08G11G04G17G26G24G28
  13565070.50047  10586022.39144  22954226.4384                   22954228.3164
  -2203673.44548  -1693266.12145  20865215.6024                   20865215.6454
   8879309.21946   6933586.00843  23673881.7344   23673881.4384   15358697.20346
  12013464.54343                  23320218.1484                   23320223.2074
 -17754122.03948 -13790500.12946  20983732.1094                   20983731.0744
  -2047704.59047  -1000384.32443  23475710.9924                   23475714.4884
  -3028644.98447  -2318517.32444  22754592.2034                   22754593.4574
  -5971184.52348  -4635090.51246  21438903.5944                   21438901.3874
 11  8 16 20 37 30.0000000  0  8G07G08G11G04G17G26G24G28
  13564233.90647  10585370.31644  22954067.2274                   22954068.9344
  -2241177.99647  -1722490.51245  20858078.3674                   20858078.3444
   8870822.75846   6926973.11743  23672266.7194   23672266.7384   15143902.82046
  11846092.60243                  23279344.3054                   23279348.7774
 -17873221.52348 -13883304.87946  20961067.6174                   20961066.9494
  -2096680.97747  -1038547.86343  23466391.7584                   23466394.4844
  -3070209.09847  -2350904.94944  22746683.1644                   22746684.2774
  -6090232.52348  -4727855.17645  21416249.7114                   21416247.8054
 11  8 16 20 38  0.0000000  0  8G07G08G11G04G17G26G24G28
  13563721.80147  10584971.07844  22953970.1094                   22953971.8954
  -2278086.50048  -1751250.45345  20851055.3284                   20851055.0744
   8862675.63746   6920624.68043  23670716.9534   23670715.9064   14929291.05946
  11678862.96943                  23238504.5394                   23238509.4304
 -17991925.30548 -13975801.27346  20938479.6024                   20938478.3834
  -2145212.02047  -1076364.39543  23457156.0944                   23457159.8444
  -3111231.66847  -2382870.59044  22738876.7034                   22738877.6844
  -6209111.31248  -4820487.98846  21393627.7424                   21393625.6804
 11  8 16 20 38 30.0000000  0  8G07G08G11G04G17G26G24G28
  13563516.77347  10584811.14844  22953931.1564                   22953932.7274
  -2314415.61748  -1779558.92245  20844141.7664                   20844142.0394
   8854850.42246   6914527.08643  23669227.9224   23669226.4264   14714849.55947
  11511766.02343                  23197697.8914                   23197702.6604
 -18110249.49248 -14068001.89146  20915962.7274                   20915961.7814
  -2193315.34046  -1113847.62944  23448002.2274                   23448006.2194
  -3151729.63747  -2414427.45344  22731170.2194                   22731170.6024
  -6327834.73048  -4912999.74646  21371035.5234                   21371033.8204
 11  8 16 20 39  0.0000000  0  8G07G08G11G04G17G26G24G28
  13563613.10946  10584886.03944  22953949.2344                   22953951.5434
  -2350170.44547  -1807419.89845  20837338.4064                   20837338.1914
   8847340.96546   6908675.55942  23667798.7114   23667797.1054   14500577.91447
  11344801.41444                  23156923.2584                   23156928.0394
 -18228198.46548 -14159910.12946  20893517.9924                   20893516.8554
  -2240997.50846  -1151002.69943  23438929.3834                   23438932.1254
  -3191708.39547  -2445579.74244  22723562.1564                   22723563.0824
  -6446405.00048  -5005392.14845  21348472.4534                   21348470.4534
 11  8 16 20 39 30.0000000  0  8G07G08G11G04G17G26G24G28
  13563999.25847  10585186.73844  22954023.0704                   22954024.9184
  -2385361.96948  -1834841.92245  20830641.6884                   20830641.7624
   8840135.55146   6903060.87142  23666428.5864   23666426.1644   14286470.13747
  11177964.48843                  23116179.3444                   23116183.8554
 -18345782.25048 -14251533.81246  20871142.4844                   20871141.3834
  -2288270.33246  -1187838.81643  23429933.4304                   23429936.8054
  -3231178.96147  -2476336.03144  22716051.5944                   22716052.1374
  -6564830.17248  -5097671.49645  21325936.5164                   21325934.9614
 11  8 16 20 40  0.0000000  0  8G07G08G11G04G17G26G24G28
  13564665.43447  10585705.67244  22954149.8054                   22954151.7114
  -2419998.96948  -1861831.85945  20824050.3834                   20824051.0204
   8833224.34446   6897675.54743  23665112.6564   23665111.0204   14072521.45747
  11011251.52044                  23075465.4304                   23075470.7934
 -18463009.27348 -14342879.50846  20848834.9614                   20848834.0664
  -2335144.28146  -1224364.09443  23421013.0634                   23421016.9654
  -3270150.82847  -2506703.71544  22708634.9304                   22708636.0314
  -6683116.44948  -5189842.61346  21303427.5004                   21303425.9144
 11  8 16 20 40 30.0000000  0  8G07G08G11G04G17G26G24G28
  13565606.58646  10586438.82844  22954329.1334                   22954331.3634
  -2454085.80148  -1888393.10245  20817564.0164                   20817564.5634
   8826601.81346   6892515.12143  23663852.3054   23663851.3284   13858732.19147
  10844662.76243                  23034782.4694                   23034787.6484
 -18579883.12948 -14433950.00846  20826594.4384                   20826593.3554
  -2381625.16446  -1260583.13343  23412168.8524                   23412172.3014
  -3308628.77747  -2536686.55944  22701313.3834                   22701314.2304
  -6801265.50048  -5281906.79745  21280944.6884                   21280942.6804
 11  8 16 20 41  0.0000000  0  8G07G08G11G04G17G26G24G28
  13566812.65647  10587378.43844  22954559.4064                   22954561.3444
  -2487631.53548  -1914532.70345  20811180.4304                   20811180.4184
   8820258.18846   6887571.95743  23662645.2424   23662643.6884   13645098.22347
  10678195.00443                  22994129.1884                   22994133.5164
 -18696411.87548 -14524751.59446  20804419.7894                   20804418.6334
  -2427723.20346  -1296503.79744  23403397.0784                   23403400.8674
  -3346622.10547  -2566291.74644  22694083.0634                   22694084.0004
  -6919283.26648  -5373868.68045  21258486.3444                   21258484.4454
 11  8 16 20 41 30.0000000  0  8G07G08G11G04G17G26G24G28
  13568270.56346  10588514.29744  22954836.4844                   22954838.8914
  -2520648.77048  -1940260.49645  20804897.7274                   20804897.8634
   8814179.81646   6882835.50843  23661488.0864   23661487.2814   13431611.39546
  10511841.90643                  22953503.3364                   22953508.6884
 -18812607.80148 -14615293.82446  20782308.2664                   20782307.3324
  -2473452.34846  -1332137.02343  23394694.3754                   23394698.4924
  -3384143.57847  -2595529.26244  22686943.3134                   22686943.6884
  -7037179.49648  -5465735.87146  21236051.4694                   21236049.7304
 11  8 16 20 42  0.0000000  0  8G07G08G11G04G17G26G24G28
  13569976.93047  10589843.73444  22955161.5394                   22955163.9224
  -2553140.14848  -1965578.52045  20798714.7194                   20798715.1804
   8808363.24246   6878303.06343  23660381.1174   23660380.6884   13218273.89846
  10345605.13743                  22912907.5864                   22912911.0204
 -18928472.61747 -14705578.06246  20760259.7584                   20760259.0234
  -2518816.04746  -1367485.49243  23386062.7504                   23386065.9224
  -3421196.17247  -2624401.42244  22679893.1174                   22679893.2034
  -7154953.77747  -5557508.03146  21213639.8674                   21213637.5274
 11  8 16 20 42 30.0000000  0  8G07G08G11G04G17G26G24G28
  13571923.83247  10591360.60944  22955532.5394                   22955535.0594
  -2585112.81247  -1990492.35245  20792630.6334                   20792631.1414
   8802800.39546   6873968.33243  23659323.4844   23659323.0084   13005083.07447
  10179482.67244                  22872337.6724                   22872341.9924
 -19044012.55148 -14795609.15246  20738273.6174                   20738272.6024
  -2563823.14546  -1402556.09443  23377497.9614                   23377502.1414
  -3457787.43047  -2652914.10244  22672929.2424                   22672930.0204
  -7272610.17248  -5649188.32445  21191250.4144                   21191248.4694
 11  8 16 20 43  0.0000000  0  8G07G08G11G04G17G26G24G28
  13574120.18847  10593071.87544  22955949.5004                   22955952.9024
  -2616557.30948  -2014994.61745  20786646.8524                   20786647.4104
   8797499.90246   6869838.07442  23658314.6414   23658313.7504   12792053.18447
  10013485.57044                  22831799.7734                   22831803.6414
 -19159217.81248 -14885379.44546  20716350.7504                   20716349.4104
  -2608465.31246  -1437342.34044  23369002.9304                   23369007.0234
  -3493908.30547  -2681060.25444  22666056.2034                   22666056.6254
  -7390136.85248  -5740767.55145  21168885.8914                   21168884.0944
 11  8 16 20 43 30.0000000  0  8G07G08G11G04G17G26G24G28
  13576565.10547  10594976.80144  22956415.4454                   22956418.5004
  -2647474.03947  -2039085.65645  20780763.7034                   20780764.3634
   8792460.64546   6865911.34442  23657355.9614   23657354.9304   12579188.65647
   9847617.31644                  22791292.9064                   22791296.9104
 -19274087.83648 -14974888.52346  20694492.0784                   20694490.0784
  -2652744.13346  -1471845.44544  23360577.5784                   23360580.7194
  -3529559.34847  -2708840.27044  22659271.5784                   22659272.4224
  -7507530.64547  -5832243.22345  21146546.6094                   21146545.0554
 11  8 16 20 44  0.0000000  0  8G07G08G11G04G17G26G24G28
  15154679.16446  11824675.84844  23256720.8444                   23256723.5314
  -1102440.87547   -835163.77745  21074773.4534                   21074774.1684
  10363103.58646   8089788.93442  23956238.2974   23956238.3594   13941922.82446
  10909488.28543                  23050611.8524                   23050615.8404
 -17813196.41847 -13836531.55146  20972489.8524                   20972488.9104
  -1121237.84847   -278464.05944  23652013.4774                   23652017.0784
  -1989318.13347  -1508652.28944  22952370.2424                   22952370.4574
  -6049363.27047  -4696008.88345  21424026.3444                   21424024.7504
 11  8 16 20 44 30.0000000  0  8G07G08G11G04G17G26G24G28
  15157621.52747  11826968.38344  23257280.5394                   23257283.8054
  -1132299.79347   -858430.54345  21069091.9384                   21069092.1254
  10358587.16846   8086269.60242  23955379.5554   23955379.2854   13729405.80946
  10743890.78544                  23010171.4774                   23010175.7664
 -17927390.63748 -13925514.03146  20950759.6724                   20950758.3444
  -1164790.91846   -312401.63743  23643725.2504                   23643729.1294
  -2024027.52747  -1535698.60244  22945765.1644                   22945766.0784
  -6166479.75047  -4787268.46945  21401739.7274                   21401737.8874
 11  8 16 20 45  0.0000000  0  8G07G08G11G04G17G26G24G28
  15160813.73046  11829455.59444  23257888.1174                   23257890.8594
  -1161627.65647   -881283.48845  21063511.0474                   21063511.7504
  10354332.96145   8082954.65242  23954569.6954   23954571.6414   13517071.68047
  10578435.80144                  22969765.2894                   22969770.0084
 -18041244.18048 -14014231.05146  20929094.0394                   20929092.6604
  -1207980.99647   -346056.38743  23635507.0394                   23635510.6914
  -2058264.78147  -1562376.97744  22939250.0944                   22939249.9694
  -6283451.18047  -4878415.01645  21379481.1024                   21379479.3014
 11  8 16 20 45 30.0000000  0  8G07G08G11G04G17G26G24G28
  15164251.15647  11832133.90644  23258542.9224                   23258545.7074
  -1190428.76247   -903725.97345  21058030.2974                   21058030.9264
  10350336.02745   8079840.04342  23953809.0474   23953811.3914   13304921.47347
  10413124.09444                  22929394.9614                   22929398.5984
 -18154759.80548 -14102684.76246  20907492.5554                   20907491.1294
  -1250813.28547   -379432.32444  23627356.9224                   23627360.0594
  -2092033.93447  -1588690.60244  22932823.6094                   22932824.5274
  -6400278.09447  -4969448.95745  21357249.7194                   21357247.9224
 11  8 16 20 46  0.0000000  0  8G07G08G11G04G17G26G24G28
  15167927.22746  11834998.16444  23259242.3524                   23259246.0514
  -1218708.80547   -925762.43745  21052649.0944                   21052649.6414
  10346590.02745   8076921.09442  23953096.5944   23953098.8984   13092954.07847
  10247954.85544                  22889058.3054                   22889062.2974
 -18267942.68048 -14190879.19146  20885955.2664                   20885953.4844
  -1293294.89147   -412535.01244  23619272.7274                   23619276.5044
  -2125341.18747  -1614644.29744  22926484.7114                   22926486.7304
  -6516963.22748  -5060372.41846  21335045.0944                   21335043.5084
 11  8 16 20 46 30.0000000  0  8G07G08G11G04G17G26G24G28
  15171842.07047  11838048.45744  23259987.5784                   23259990.2424
  -1246467.56647   -947392.71145  21047366.3834                   21047366.8794
  10343094.87545   8074197.58242  23952430.2894   23952433.8284   12881174.84847
  10082932.21544                  22848757.5704                   22848761.8874
 -18380791.38748 -14278813.21946  20864480.1174                   20864479.1414
  -1335426.25447   -445364.77044  23611255.1484                   23611259.2934
  -2158186.37147  -1640237.95744  22920234.9144                   22920236.0314
  -6633502.29348  -5151182.06645  21312868.4144                   21312866.5634
 11  8 16 20 47  0.0000000  0  8G07G08G11G04G17G26G24G28
  15175990.87146  11841281.05544  23260776.9304                   23260780.4304
  -1273709.26647   -968620.07045  21042182.7974                   21042183.0634
  10339845.67246   8071665.56642  23951812.9384   23951815.5434   12669584.65647
   9918056.87944                  22808493.9064                   22808497.4064
 -18493309.14548 -14366489.36346  20843068.7894                   20843067.3484
  -1377212.60946   -477925.71144  23603303.2584                   23603307.2424
  -2190573.56647  -1665474.74244  22914071.3914                   22914073.0354
  -6749897.21948  -5241879.38746  21290718.8364                   21290717.5984
 11  8 16 20 47 30.0000000  0  8G07G08G11G04G17G26G24G28
  15180372.84046  11844695.34843  23261611.5084                   23261614.6524
  -1300434.24648   -989444.79745  21037097.0784                   21037097.2704
  10336841.359 5                  23951241.703                    12458187.99647
   9753332.36744                  22768266.4064                   22768270.1054
 -18605495.74248 -14453907.46946  20821720.5474                   20821718.9844
  -1418655.68746   -510219.14143  23595417.2664                   23595421.0434
  -2222503.77347  -1690355.42244  22907995.5234                   22907996.8164
  -6866145.07848  -5332462.10946  21268597.8914                   21268596.3874
 11  8 16 20 48  0.0000000  0  8G07G08G11G04G17G26G24G28
  15184992.47346  11848294.85543  23262490.7344                   23262493.5634
  -1326637.11748  -1009862.69545  21032111.6334                   21032111.6484
  10334086.355 6                  23950717.375                    12246994.84047
   9588766.39844                  22728077.4534                   22728080.7814
 -18717344.99648 -14541062.71146  20800436.0164                   20800434.6134
  -1459751.36346   -542241.89143  23587597.3284                   23587601.0474
  -2253972.17247  -1714876.23444  22902007.6804                   22902009.1294
  -6982237.31648  -5422923.57845  21246506.1174                   21246504.5744
 11  8 16 20 48 30.0000000  0  8G07G08G11G04G17G26G24G28
  15189849.04747  11852079.00044  23263414.7584                   23263418.0744
  -1352318.00847  -1029873.83645  21027224.2194                   21027224.7894
  10331580.086 6                  23950241.016                    12036010.03947
   9424362.83244                  22687927.7344                   22687931.5664
 -18828856.00848 -14627954.37946  20779216.2114                   20779215.1884
  -1500500.93747   -573994.95343  23579843.2814                   23579847.4384
  -2284979.10547  -1739037.47343  22896107.1334                   22896108.2734
  -7098170.76248  -5513261.30545  21224445.1174                   21224442.8554
 11  8 16 20 49  0.0000000  0  8G07G08G11G04G17G26G24G28
  15194942.99647  11856048.12944  23264384.0864                   23264387.0044
  -1377476.39847  -1049477.83645  21022437.1724                   21022437.0354
  10329322.609 6                  23949810.875                    11825239.23847
   9260125.99244                  22647820.2974                   22647823.4964
 -18940027.16848 -14714581.22346  20758061.2664                   20758059.8984
  -1540904.82046   -605478.63743  23572155.1644                   23572158.3444
  -2315523.78547  -1762838.52044  22890294.8054                   22890295.7584
  -7213941.56648  -5603472.30546  21202414.7344                   21202412.6214
 11  8 16 20 49 30.0000000  0  8G07G08G11G04G17G26G24G28
  15200274.08647  11860201.98844  23265399.5314                   23265401.6764
  -1402111.89847  -1068674.39145  21017748.8834                   21017749.3404
  10327313.504 6                  23949428.180                    11614687.84847
   9096060.15244                  22607752.9144                   22607756.2344
 -19050857.31648 -14800942.34446  20736970.5784                   20736969.6684
  -1580963.63746   -636693.44943  23564531.4144                   23564535.0124
  -2345606.29747  -1786279.42643  22884570.2974                   22884571.2274
  -7329545.88348  -5693553.57845  21180415.3284                   21180413.8054
 11  8 16 20 50  0.0000000  0  8G07G08G11G04G17G26G24G28
  15205843.17647  11864541.32444  23266458.7734                   23266461.6294
  -1426223.34047  -1087462.58645  21013160.8444                   21013161.3874
  10325553.859 5                  23949093.430                    11404362.25847
   8932170.28144                  22567728.8524                   22567732.6414
 -19161344.21548 -14887036.00846  20715945.8364                   20715944.5474
  -1620677.22746   -667639.22343  23556974.5164                   23556979.1724
  -2375225.46947  -1809359.31243  22878933.7584                   22878934.3834
  -7444978.84847  -5783501.32446  21158449.3754                   21158447.6884
 11  8 16 20 50 30.0000000  0  8G07G08G11G04G17G26G24G28
  15211645.64146  11869062.48444  23267563.0784                   23267566.8164
  -1449815.08647  -1105845.82845  21008671.3984                   21008671.5004
  10324038.680 6                  23948805.391                    11194263.03947
   8768456.78944                  22527748.1024                   22527751.9494
 -19271491.26648 -14972864.85246  20694985.2504                   20694984.3054
  -1660051.07046   -698320.27743  23549482.0314                   23549486.2504
  -2404385.76647  -1832081.63744  22873384.9304                   22873385.4924
  -7560241.78947  -5873316.58245  21136515.5474                   21136513.9964
 11  8 16 20 51  0.0000000  0  8G07G08G11G04G17G26G24G28
  15217678.08646  11873762.84844  23268711.1174                   23268715.6334
  -1472889.98447  -1123826.32845  21004280.7274                   21004281.0904
  10322764.652 5                  23948563.453                    10984392.57447
   8604921.57444                  22487811.0314                   22487814.6604
 -19381300.26648 -15058430.27346  20674089.3914                   20674088.0634
  -1699088.67246   -728739.34043  23542053.1564                   23542057.5234
  -2433090.14147  -1854448.68043  22867922.3054                   22867923.3554
  -7675333.87948  -5962998.71545  21114614.1564                   21114612.5204
 11  8 16 20 51 30.0000000  0  8G07G08G11G04G17G26G24G28
  15223931.26646  11878635.21544  23269901.2424                   23269905.8874
  -1495456.51247  -1141410.70745  20999986.1724                   20999986.5984
  10321722.641 5                  23948365.078                    10774747.20747
   8441561.76244                  22447916.3834                   22447919.9414
 -19490778.78548 -15143738.19146  20653256.2344                   20653255.2584
  -1737800.01646   -758904.21143  23534686.8754                   23534691.2544
  -2461347.58246  -1876467.48443  22862545.9304                   22862545.6214
  -7790260.32048  -6052551.77345  21092744.4844                   21092742.4654
 11  8 16 20 52  0.0000000  0  8G07G08G11G04G17G26G24G28
  16805821.48046  13111276.68444  23570925.2664                   23570929.7304
     57902.14147     68998.56345  21295580.5084                   21295581.2384
  11896328.746 5                  24248001.734                    12140755.40647
   9505983.94144                  22707858.2974                   22707862.5354
 -18024505.76248 -14001187.76246  20932278.5704                   20932277.7704
   -200768.37146    438782.63743  23827174.5314                   23827178.7384
   -913740.88747   -670540.17243  23157045.7734                   23157045.5944
  -6329597.43748  -4914372.89545  21370699.8134                   21370697.3674
 11  8 16 20 52 30.0000000  0  8G07G08G11G04G17G26G24G28
  16812509.77046  13116488.06644  23572197.7734                   23572202.6604
     36345.73847     52201.30945  21291478.3674                   21291479.4184
  11895743.750 5                  24247891.688                    11931569.59447
   9342982.22344                  22668052.8914                   22668056.0744
 -18133326.31648 -14085982.98446  20911570.7424                   20911569.6454
   -238836.04746    409119.35543  23819931.0164                   23819934.5784
   -941110.82847   -691867.40643  23151837.1254                   23151837.6954
  -6444188.26648  -5003664.43446  21348893.8054                   21348891.9734
 11  8 16 20 53  0.0000000  0  8G07G08G11G04G17G26G24G28
  16819403.18046  13121859.27744  23573510.6334                   23573514.4844
     15282.99247     35788.70345  21287470.4144                   21287471.4224
  11895375.11714                  24247817.305                    11722609.41047
   9180156.34444                  22628288.4224                   22628291.2344
 -18241828.01248 -14170529.73446  20890923.7584                   20890922.7384
   -276594.79346    379696.80143  23812745.8444                   23812749.7034
   -968048.96946   -712858.15643  23146710.7584                   23146711.4964
  -6558617.84848  -5092830.32446  21327118.7974                   21327116.5744
 11  8 16 20 53 30.0000000  0  8G07G08G11G04G17G26G24G28
  16826496.70346  13127386.47344  23574860.2274                   23574864.1564
     -5290.60547     19757.25845  21283555.7034                   21283555.9734
  11895217.84014                  24247787.273                    11513875.77047
   9017506.96944                  22588567.7504                   22588570.3484
 -18350014.28948 -14254830.70346  20870336.1724                   20870335.4654
   -314050.35546    350510.46143  23805618.1024                   23805621.9534
   -994559.92646   -733516.06643  23141666.0474                   23141667.0664
  -6672886.94147  -5181871.16446  21305373.5704                   21305371.9304
 11  8 16 20 54  0.0000000  0  8G07G08G11G04G17G26G24G28
  16833785.82847  13133066.08644  23576247.9844                   23576251.1644
    -25379.52047      4103.49645  21279732.7194                   21279733.4844
  11895266.82415                  24247800.492                    11305369.34047
   8855034.66044                  22548890.0164                   22548893.3134
 -18457888.70348 -14338888.66446  20849808.3594                   20849807.5824
   -351208.08646    321556.21543  23798547.4614                   23798550.9384
  -1020648.34446   -753844.73443  23136701.6724                   23136702.9344
  -6786996.52748  -5270787.71145  21283659.6884                   21283657.6954
 11  8 16 20 54 30.0000000  0  8G07G08G11G04G17G26G24G28
  16841263.78946  13138892.86343  23577671.1484                   23577673.9614
    -44990.45747    -11177.83645  21276001.1024                   21276001.5204
  11895515.77015                  24247847.023                    11097088.75447
   8692738.35544                  22509255.0234                   22509258.9654
 -18565456.53547 -14422707.73046  20829339.1884                   20829337.7344
   -388075.31246    292828.36743  23791531.3444                   23791536.1334
  -1046320.77346   -773849.24243  23131816.2584                   23131817.2854
  -6900949.38348  -5359582.12145  21261975.0004                   21261972.9414
 11  8 16 20 55  0.0000000  0  8G07G08G11G04G17G26G24G28
  16848920.99646  13144859.30943  23579127.5084                   23579131.0314
    -64132.78947    -26094.01645  21272358.6884                   21272358.9494
  11895954.598 5                  24247931.695                    10889029.92647
   8530614.83244                  22469663.1334                   22469666.0164
 -18672725.84847 -14506294.18746  20808926.7114                   20808925.3014
   -424662.48446    264318.71543  23784569.1804                   23784573.5864
  -1071586.77046   -793537.04743  23127008.0784                   23127009.3324
  -7014751.30148  -5448258.92245  21240318.9694                   21240317.1214
 11  8 16 20 55 30.0000000  0  8G07G08G11G04G17G26G24G28
  16856753.47347  13150962.34043  23580619.0704                   23580622.2384
    -82810.36747    -40648.03545  21268804.3674                   21268804.5634
  11896579.574 5                  24248051.859                    10681194.05147
   8368665.03544                  22430112.3284                   22430115.7504
 -18779699.16048 -14589649.98446  20788570.2424                   20788568.5594
   -460974.17646    236023.71943  23777659.0474                   23777664.3244
  -1096450.09846   -812911.08644  23122276.6334                   23122277.2384
  -7128402.64548  -5536818.38746  21218691.9384                   21218689.8954
 11  8 16 20 56  0.0000000  0  8G07G08G11G04G17G26G24G28
  16864754.93046  13157197.00043  23582141.7424                   23582145.0704
   -101028.47747    -54844.05145  21265337.3594                   21265338.3444
  11897384.316 5                  24248204.258                    10473580.86747
   8206888.77044                  22390605.3364                   22390608.4264
 -18886381.89148 -14672779.36346  20768269.0864                   20768267.4384
   -497017.05547    207938.20343  23770801.6644                   23770804.9844
  -1120916.40246   -831975.78543  23117620.4694                   23117621.6254
  -7241905.15648  -5625261.88745  21197092.7814                   21197090.6174
 11  8 16 20 56 30.0000000  0  8G07G08G11G04G17G26G24G28
  16872917.38346  13163557.14543  23583694.9454                   23583699.1174
   -118795.23447    -68688.35545  21261956.7344                   21261957.4964
  11898360.980 5                  24248389.445                    10266187.84447
   8045284.03544                  22351139.4844                   22351142.4024
 -18992780.10948 -14755687.04746  20748022.2194                   20748020.7664
   -532799.87147    180055.30943  23763992.5394                   23763996.6914
  -1144994.04747   -850737.60543  23113039.3134                   23113040.1724
  -7355263.39148  -5713592.96145  21175521.7894                   21175519.6094
 11  8 16 20 57  0.0000000  0  8G07G08G11G04G17G26G24G28
  16881234.35246  13170037.61743  23585277.0634                   23585281.8204
   -136117.05947    -82185.95345  21258660.9534                   21258661.2774
  11899503.160 5                  24248606.602                    10059013.86747
   7883850.00444                  22311715.2274                   22311717.6994
 -19098899.04748 -14838377.10246  20727828.1024                   20727827.0434
   -568329.55146    152369.67243  23757231.1024                   23757235.7584
  -1168689.34047   -869201.48044  23108530.5314                   23108531.0434
  -7468479.85948  -5801813.57045  21153977.4224                   21153974.8874
 11  8 16 20 57 30.0000000  0  8G07G08G11G04G17G26G24G28
  16889703.33646  13176636.55543  23586889.4534                   23586894.1564
   -152995.83647    -95338.32045  21255448.1954                   21255449.7384
  11900808.191 5                  24248855.539
   9852061.94147   7722589.00844  22272333.0704                   22272336.8794
 -19204739.95748 -14920850.50846  20707687.6724                   20707686.1454
   -603609.27346    124878.78543  23750518.7344                   23750522.7304
  -1192004.47347   -887369.13743  23104093.7034                   23104094.2384
  -7581552.83648  -5889922.37945  21132460.3594                   21132458.1374
 11  8 16 20 58  0.0000000  0  8G07G08G11G04G17G26G24G28
  16898311.43446  13183343.88343  23588526.6484                   23588532.6484
   -169444.73447   -108155.73845  21252318.5634                   21252319.4844
  11902262.914 5                  24249132.141
   9645324.36347   7561495.00844  22232992.9304                   22232995.4384
 -19310314.81247 -15003116.59446  20687597.5084                   20687595.8874
   -638653.18447     97571.69143  23743849.4144                   23743854.3094
  -1214952.39147   -905250.65643  23099727.3524                   23099727.2234
  -7694491.74648  -5977926.71945  21110968.6644                   21110966.6294
 11  8 16 20 58 30.0000000  0  8G07G08G11G04G17G26G24G28
  16907057.46946  13190158.65243  23590192.4534                   23590196.9614
   -185464.51247   -120638.74645  21249270.1884                   21249270.8364
  11903866.70315                  24249436.688
   9438805.84447   7400571.70344  22193692.9454                   22193695.6334
 -19415622.77748 -15085174.72346  20667557.9614                   20667556.5394
   -673462.44547     70447.42243  23737225.0864                   23737230.1764
  -1237533.85547   -922846.64544  23095429.8524                   23095430.5434
  -7807293.35248  -6065824.06645  21089503.6174                   21089501.2344
 11  8 16 20 59  0.0000000  0  8G07G08G11G04G17G26G24G28
  16915937.15246  13197077.60944  23591882.5394                   23591887.0984
   -201059.14147   -132790.48445  21246302.5864                   21246303.7974
  11905615.348 5                  24249770.156
   9232507.44547   7239819.91844  22154435.9924                   22154438.3134
 -19520666.81647 -15167027.18746  20647568.4774                   20647567.2234
   -708042.18747     43501.95343  23730645.1094                   23730650.1564
  -1259753.02747   -940160.31643  23091201.7974                   23091201.7934
  -7919958.32848  -6153614.94145  21068063.7274                   21068061.7584
 11  8 16 20 59 30.0000000  0  8G07G08G11G04G17G26G24G28
  18500366.78946  14431697.84044  23893389.2424                   23893394.4184
   1359188.55947   1082986.85545  21543207.8524                   21543208.8244
  13482925.125 5                  24549921.438
  10601858.33647   8306846.81644  22415014.5314                   22415016.9104
 -18050025.25448 -14021072.70746  20927422.3754                   20927420.8444
    833024.97347   1244333.35244  24023900.8204                   24023905.9694
    293807.33646    270406.20343  23386834.4064                   23386834.4414
  -6457061.95348  -5013695.68746  21346443.9064                   21346441.5164
 11  8 16 21  0  0.0000000  0  8G07G08G11G04G17G26G24G28
  18509506.00446  14438819.00844  23895129.4694                   23895133.3554
   1344436.43047   1071491.59845  21540400.8594                   21540401.6994
  13484954.87515                  24550308.953
  10396008.80547   8146444.80144  22375841.8914                   22375844.9414
 -18154545.60548 -14102517.10546  20907533.1414                   20907531.6884
    798894.30147   1217737.84044  24017406.8054                   24017411.6564
    272304.35247    253650.60943  23382742.3914                   23382742.5514
  -6569449.47748  -5101270.37145  21325057.0864                   21325054.6764
 11  8 16 21  0 30.0000000  0  8G07G08G11G04G17G26G24G28
  18518766.31347  14446034.54344  23896891.9384                   23896895.8554
   1330097.54347   1060318.35945  21537672.6564                   21537673.0204
  13487117.504 5                  24550719.797
  10190383.56347   7986217.56344  22336712.8524                   22336715.8404
 -18258810.85548 -14183762.73846  20887691.7504                   20887690.1884
    764978.89546   1191310.06644  24010952.8754                   24010957.7194
    251151.55547    237167.87943  23378717.2504                   23378717.5474
  -6681700.64148  -5188738.79346  21303696.6334                   21303694.1454
 11  8 16 21  1  0.0000000  0  8G07G08G11G04G17G26G24G28
  18528144.57447  14453341.99644  23898676.2274                   23898681.1604
   1316168.73047   1049464.65645  21535022.1414                   21535023.5204
  13489409.133 5                  24551155.570
   9984984.94947   7826166.91844  22297626.4844                   22297629.0394
 -18362822.36748 -14264810.64546  20867898.8914                   20867897.3284
    731274.85247   1165046.98043  24004538.9614                   24004544.1374
    230345.75847    220955.59044  23374758.1094                   23374758.5204
  -6793814.97747  -5276100.61345  21282361.9304                   21282359.6954
 11  8 16 21  1 30.0000000  0  8G07G08G11G04G17G26G24G28
  18537638.43047  14460739.54344  23900482.7114                   23900488.3874
   1302647.66047   1038928.68045  21532448.7424                   21532449.8444
  13491827.473 5                  24551616.078
   9779815.97747   7666295.19144  22258583.8284                   22258586.8164
 -18466581.05148 -14345661.55546  20848154.1954                   20848152.5314
    697779.32847   1138946.41444  23998165.1094                   23998170.1334
    209884.72347    205011.90244  23370864.6564                   23370865.6844
  -6905790.51648  -5363354.27346  21261053.4924                   21261051.3444
 11  8 16 21  2  0.0000000  0  8G07G08G11G04G17G26G24G28
  18547245.85546  14468225.51643  23902311.6094                   23902316.5634
   1289532.13347   1028708.71145  21529953.3594                   21529954.3554
  13494370.62915                  24552100.180
   9574879.93047   7506604.96544  22219585.5864                   22219588.3594
 -18570088.02748 -14426316.32046  20828457.4924                   20828456.3054
    664489.06346   1113005.76643  23991829.6024                   23991835.1214
    189766.10947    189335.04343  23367036.0394                   23367036.9184
  -7017625.77048  -5450498.61745  21239772.2734                   21239769.8754
 11  8 16 21  2 30.0000000  0  7G07G08G04G17G26G24G28
  18556959.23846  14475794.12543  23904159.4224                   23904164.3404
   1276814.53147   1018798.80145  21527532.9454                   21527534.3954
   9370174.66847   7347094.57844  22180632.0004                   22180634.2154
 -18673349.65648 -14506779.91846  20808807.7194                   20808806.0234
    631395.92646   1087218.70743  23985533.7664                   23985538.5354
    169982.43047    173919.15644  23363271.2424                   23363272.1724
  -7129324.48047  -5537536.57046  21218516.4924                   21218514.2814
 11  8 16 21  3  0.0000000  0  7G07G08G04G17G26G24G28
  18566773.31346  14483441.17642  23906027.7194                   23906032.6094
   1264489.84447   1009195.06345  21525188.0084                   21525189.3014
   9165700.35547   7187764.14844  22141721.5474                   22141723.6914
 -18776369.48848 -14587055.09046  20789203.6954                   20789201.9264
    598494.37146   1061580.93043  23979271.2424                   23979277.9304
    150528.57046    158760.30543  23359568.8364                   23359570.4344
  -7240887.35948  -5624468.68445  21197286.6564                   21197284.7974
 11  8 16 21  3 30.0000000  0  7G07G08G04G17G26G24G28
  18576693.76646  14491171.06342  23907915.8914                   23907920.4804
   1252563.96147    999902.07445  21522919.0394                   21522919.4384
   8961468.63347   7028622.75445  22102857.4774                   22102859.3714
 -18879140.47748 -14667136.36346  20769646.7734                   20769645.6484
    565789.41446   1036096.35243  23973049.0234                   23973054.1294
    131410.53146    143863.10243  23355931.8444                   23355932.4964
  -7352304.89548  -5711287.53146  21176084.7424                   21176082.0554
 11  8 16 21  4  0.0000000  0  7G07G08G04G17G26G24G28
  18586721.90646  14498984.86743  23909823.3674                   23909829.6334
   1241038.06347    990920.76645  21520725.6024                   21520726.0234
   8757485.87547   6869675.33244  22064040.9534                   22064042.5314
 -18981660.36348 -14747021.97346  20750137.9614                   20750136.4224
    533281.19946   1010765.09443  23966862.9454                   23966867.7664
    112629.45346    129228.48043  23352356.5634                   23352358.6214
  -7463572.09047  -5797989.23845  21154911.2584                   21154909.1994
 11  8 16 21  4 30.0000000  0  7G07G08G04G17G26G24G28
  18596852.24646  14506878.28143  23911751.0554                   23911758.3444
   1229906.89147    982247.04345  21518607.4224                   21518607.7114
   8553752.25847   6710922.05544  22025271.4694                   22025272.8484
 -19083933.16048 -14826715.03946  20730676.0394                   20730674.5474
    500963.91046    985582.59443  23960713.3754                   23960718.1174
     94179.97346    114852.22743  23348847.5634                   23348847.5824
  -7574689.99248  -5884574.60945  21133766.0084                   21133764.0664
 11  8 16 21  5  0.0000000  0  7G07G08G04G17G26G24G28
  18607082.99246  14514849.98043  23913699.1884                   23913704.7544
   1219168.85247    973879.64845  21516564.1334                   21516564.6374
   8350271.34047   6552365.68445  21986550.0314                   21986551.8754
 -19185959.21948 -14906215.83246  20711261.1954                   20711259.8484
    468835.12146    960546.96543  23954599.5704                   23954605.3484
     76060.49646    100733.13743  23345398.4064                   23345399.1134
  -7685656.75048  -5971042.20745  21112650.2814                   21112647.8094
 11  8 16 21  5 30.0000000  0  7G07G08G04G17G26G24G28
  18617412.03946  14522898.27044  23915665.4064                   23915670.7774
   1208821.50847    965816.69945  21514594.1724                   21514595.7624
   8147046.65247   6394008.98045  21947877.5164                   21947879.3484
 -19287739.39548 -14985525.03546  20691893.0554                   20691891.7974
    436892.25046    935656.25043  23948521.4304                   23948525.9734
     58268.78946     86869.44543  23342012.9694                   23342013.6954
  -7796470.25847  -6057390.38345  21091562.5784                   21091560.9614
 11  8 16 21  6  0.0000000  0  7G07G08G04G17G26G24G28
  18627831.54346  14531017.05144  23917648.3444                   23917653.9964
   1198856.98447    958052.05145  21512698.3204                   21512699.8524
   7944075.68047   6235849.95344  21909253.0164                   21909254.7974
 -19389280.10548 -15064647.64846  20672570.5784                   20672568.7344
    405126.62546    910903.61743  23942476.2894                   23942481.6764
     40796.84846     73254.91043  23338687.9144                   23338688.8594
  -7907134.43747  -6143622.20746  21070504.3524                   21070501.8954
 11  8 16 21  6 30.0000000  0  7G07G08G04G17G26G24G28
  18638340.86746  14539205.80943  23919648.0634                   23919654.1174
   1189273.92247    950584.63345  21510875.2424                   21510876.5704
   7741362.94947   6077892.15644  21870678.3834                   21870679.9344
 -19490581.00848 -15143583.39146  20653293.5634                   20653291.9224
    373536.29746    886287.59443  23936465.0784                   23936470.5704
     23643.62546     59888.73043  23335423.8204                   23335424.5274
  -8017646.31648  -6229735.35246  21049474.6094                   21049471.9574
 11  8 16 21  7  0.0000000  0  7G07G08G04G17G26G24G28
  20224361.10246  15775065.39844  24221458.5234                   24221464.5434
   2755494.78547   2171016.37945  21808917.1334                   21808918.3324
   9114342.51247   7147746.54745  22131947.2344                   22131949.2194
 -18016215.46948 -13994727.10246  20933856.1094                   20933854.5744
   1917543.87946   2089410.20343  24230280.1644                   24230285.0514
   1582231.79746   1274373.00443  23632013.0234                   23632013.8444
  -6552576.14847  -5088122.23045  21328267.6414                   21328265.7344
 11  8 16 21  7 30.0000000  0  7G07G08G04G17G26G24G28
  20235050.54746  15783394.49244  24223493.0634                   24223498.6484
   2746676.68847   2164145.04345  21807239.3364                   21807240.4654
   8912164.03547   6990205.05145  22093473.7274                   22093475.9694
 -18117031.49648 -14073285.01646  20914671.4144                   20914670.0984
   1886304.06346   2065067.30143  24224334.9534                   24224340.5124
   1565717.89546   1261505.00843  23628871.6724                   23628871.7114
  -6662769.68748  -5173987.31245  21307298.7504                   21307296.7114
 11  8 16 21  8  0.0000000  0  7G07G08G04G17G26G24G28
  20245833.31346  15791796.31343  24225545.2274                   24225551.2544
   2738244.31647   2157574.25445  21805634.9144                   21805636.4734
   8710263.93847   6832880.47344  22055053.1954                   22055054.9614
 -18217599.86748 -14151649.94146  20895533.7034                   20895532.4574
   1855241.88746   2040862.82443  24218424.5634                   24218429.7854
   1549526.82846   1248888.59043  23625789.7974                   23625790.9224
  -6772794.99648  -5259721.30945  21286361.9924                   21286359.7814
 11  8 16 21  8 30.0000000  0  7G07G08G04G17G26G24G28
  20256709.78546  15800271.12143  24227614.5864                   24227620.6294
   2730197.65247   2151304.02345  21804103.6954                   21804104.9104
   8508648.05947   6675777.36744  22016686.7034                   22016688.4144
 -18317918.76648 -14229820.49246  20876443.7114                   20876441.9414
   1824356.67646   2016796.22343  24212548.0554                   24212552.7504
   1533658.94546   1236523.98043  23622770.3674                   23622771.0124
  -6882647.50848  -5345320.64846  21265457.4384                   21265455.3284
 11  8 16 21  9  0.0000000  0  7G07G08G04G17G26G24G28
  20267683.43446  15808821.64843  24229702.8674                   24229709.1484
   2722540.52347   2145337.32845  21802646.3054                   21802647.9024
   8307325.32847   6518902.66444  21978376.3204                   21978378.0354
 -18417983.86348 -14307793.25846  20857401.8914                   20857400.2384
   1793651.43047   1992869.86743  24206705.1564                   24206709.6764
   1518117.63746   1224413.86343  23619813.4454                   23619814.1844
  -6992319.89148  -5430779.64545  21244587.3834                   21244585.2114
 11  8 16 21  9 30.0000000  0  7G07G08G04G17G26G24G28
  20278761.00446  15817453.12142  24231811.3364                   24231817.7854
   2715279.39847   2139679.20745  21801265.2974                   21801265.8324
   8106307.83647   6362265.81644  21940124.0944                   21940125.2034
 -18517786.80548 -14385561.75846  20838409.8914                   20838408.3364
   1763132.18046   1969088.45743  24200897.3594                   24200902.9694
   1502909.83247   1212563.58243  23616919.3054                   23616920.2934
  -7101801.45348  -5516089.93445  21223754.1254                   21223751.6804
 11  8 16 21 10  0.0000000  0  8G07G08G04G17G20G26G24G28
  20289943.95346  15826166.79342  24233939.7734                   24233945.4924
   2708415.27747   2134330.42245  21799959.5004                   21799960.0514
   7905602.31347   6205872.05944  21901930.8204                   21901932.0944
 -18617324.97348 -14463123.93746  20819468.3914                   20819467.0474
  35690395.80915                  24508364.047
   1732799.50046   1945452.43843  24195125.2114                   24195131.1804
   1488036.55147   1200973.98043  23614089.6484                   23614090.0044
  -7211086.69548  -5601247.25045  21202957.5394                   21202955.2194
 11  8 16 21 10 30.0000000  0  8G07G08G04G17G20G26G24G28
  20301230.46946  15834961.10942  24236088.8524                   24236093.7854
   2701946.70347   2129289.86345  21798727.4774                   21798729.1294
   7705212.75847   6049724.51244  21863797.9064                   21863799.0354
 -18716598.51648 -14540479.93046  20800577.4224                   20800575.7384
  35548372.33615                  24481338.352
   1702651.34447   1921960.12143  24189388.5864                   24189393.8834
   1473496.28546   1189643.89843  23611322.0864                   23611323.5704
  -7320173.10947  -5686249.64545  21182199.1334                   21182196.9104
 11  8 16 21 11  0.0000000  0  8G07G08G04G17G20G26G24G28
  20312637.28146  15843849.19543  24238258.3364                   24238264.5274
   2695889.96547   2124570.22345  21797575.4694                   21797576.8484
   7505161.30947   5893840.38345  21825729.3914                   21825730.4964
 -18815589.49248 -14617615.73446  20781740.1094                   20781738.1844
                                  24454372.539
   1672703.64846   1898624.05143  24183689.6414                   24183695.3444
   1459305.84446   1178586.37143  23608621.2974                   23608622.7384
  -7429039.89848  -5771080.89846  21161482.2504                   21161480.0944
 11  8 16 21 11 30.0000000  0  8G07G08G04G17G20G26G24G28
  20324160.13346  15852827.67243  24240451.9694                   24240457.3244
   2690240.82847   2120168.18845  21796500.3054                   21796501.7934
   7305448.94547   5738220.51245  21787725.1804                   21787726.5514
 -18914301.02348 -14694533.78546  20762955.9144                   20762954.0784
  35265292.96115                  24427470.813
   1642951.50847   1875440.35543  24178028.6334                   24178034.5904
   1445460.87546   1167798.08243  23605986.6414                   23605988.4964
  -7537687.59048  -5855741.42245  21140807.5474                   21140805.2734
 11  8 16 21 12  0.0000000  0  8G07G08G04G17G20G26G24G28
  20335804.05546  15861900.54343  24242667.5864                   24242674.4844
   2685004.12947   2116087.52345  21795503.8754                   21795505.5664
   7106085.99247   5582872.88745  21749787.4304                   21749789.1134
 -19012727.15248 -14771229.44546  20744226.0394                   20744224.1484
  35124246.11315                  24400629.250
   1613399.29746   1852412.43443  24172404.8284                   24172411.7384
   1431966.41046   1157282.87943  23603419.6724                   23603420.4694
  -7646107.05948  -5940224.12545  21120176.0004                   21120173.3484
 11  8 16 21 12 30.0000000  0  8G07G08G04G17G20G26G24G28
  20347562.10247  15871062.27343  24244905.9384                   24244912.7304
   2680172.61347   2112322.59444  21794584.6414                   21794585.9774
   6907071.04347   5427796.43845  21711916.5554                   21711917.6054
 -19110872.79747 -14847706.54346  20725549.0944                   20725547.4774
  34983528.92615                  24373852.469
   1584039.30546   1829534.30543  24166818.6094                   24166824.5474
   1418815.40246   1147035.34843  23600917.4844                   23600917.7854
  -7754301.32048  -6024531.34046  21099587.2344                   21099585.0904
 11  8 16 21 13  0.0000000  0  8G07G08G04G17G20G26G24G28
  20359436.78147  15880314.86743  24247166.3594                   24247172.5394
   2675748.58647   2108875.20744  21793742.8984                   21793744.2464
   6708411.80547   5272997.14845  21674112.3914                   21674113.7974
 -19208734.50048 -14923962.39546  20706927.1174                   20706925.5004
  34843149.352 5                  24347140.047
   1554873.41846   1806807.39543  24161268.2194                   24161274.9844
   1406010.30546   1137057.32842  23598479.7894                   23598480.8754
  -7862263.73848  -6108657.87145  21079042.6954                   21079040.2504
 11  8 16 21 13 30.0000000  0  8G07G08G04G17G20G26G24G28
  20371420.43446  15889652.38743  24249446.4924                   24249452.9924
   2671724.34447   2105739.32844  21792977.4224                   21792978.0394
   6510106.35247   5118473.53145  21636376.1414                   21636377.2424
 -19306318.49648 -15000001.85246  20688357.3594                   20688355.8554
  34703104.563 4                  24320488.781
   1525893.29746   1784225.25843  24155753.4454                   24155759.7854
   1393543.56346   1127343.00442  23596107.7584                   23596108.0394
  -7969997.49248  -6192606.25446  21058541.7274                   21058539.2974
 11  8 16 21 14  0.0000000  0  8G07G08G04G17G20G26G24G28
  20383519.11146  15899079.52343  24251748.8134                   24251755.9654
   2668105.84447   2102919.60944  21792288.4064                   21792289.3794
   6312165.86747   4964234.33245  21598709.1884                   21598710.4654
 -19403617.68448 -15075819.38346  20669841.6644                   20669840.0594
                                  24293906.180
   1497104.34846   1761792.10243  24150275.1484                   24150281.9064
   1381421.00046   1117896.83242  23593800.5704                   23593801.9304
  -8077493.03548  -6276369.00446  21038086.0004                   21038083.6684
 11  8 16 21 14 30.0000000  0  7G07G08G04G17G26G24G28
  20395721.75446  15908587.64543  24254070.9844                   24254078.1294
   2664881.53947   2100407.04744  21791675.9614                   21791676.9224
   6114584.63347   4810275.03545  21561110.5474                   21561111.9884
 -19500641.71148 -15151422.49646  20651378.7034                   20651377.2934
   1468494.81346   1739498.69543  24144831.4454                   24144837.2584
   1369631.48846   1108710.15242  23591557.2664                   23591558.4574
  -8184757.25048  -6359951.50845  21017673.8984                   21017671.9224
 11  8 16 21 15  0.0000000  0  7G07G08G04G17G26G24G28
  21983449.57046  17145777.69143  24556205.8444                   24556212.8984
   4237473.27047   3325803.10544  22090929.5234                   22090931.0514
   7492796.37947   5884206.37145  21823375.7194                   21823376.9964
 -18021964.13748 -13999206.18746  20932761.7344                   20932760.1094
   3015486.66446   2944946.62143  24439213.6724                   24439220.3134
   2933597.18846   2327384.70742  23889169.6414                   23889171.3484
  -6716360.90648  -5215746.55945  21297101.0004                   21297098.2664
 11  8 16 21 15 30.0000000  0  7G07G08G04G17G26G24G28
  21995866.13345  17155452.52743  24558568.9924                   24558576.2154
   4235043.61347   3323909.76644  22090466.7974                   22090469.0944
   7295956.09447   5730824.44545  21785917.3054                   21785919.0744
 -18118427.48448 -14074372.40646  20914405.2194                   20914403.6764
   2987240.28146   2922936.20743  24433839.3054                   24433845.1604
   2922480.00446   2318721.96142  23887054.4694                   23887056.2584
  -6823143.92648  -5298954.10546  21276780.9534                   21276778.1524
 11  8 16 21 16  0.0000000  0  7G07G08G04G17G26G24G28
  22008393.49645  17165213.65642  24560954.2894                   24560959.9844
   4233014.18447   3322328.28545  22090081.6334                   22090083.5044
   7099497.76647   5577740.13745  21748533.1484                   21748534.5664
 -18214605.13748 -14149316.02046  20896103.2814                   20896101.9454
   2959178.07846   2901069.29743  24428499.4774                   24428506.3714
   2911702.25046   2310323.74643  23885003.7504                   23885005.6214
  -6929676.98848  -5381966.88745  21256507.6724                   21256505.6764
 11  8 16 21 16 30.0000000  0  7G07G08G04G17G26G24G28
  22021027.93846  17175058.20743  24563358.4924                   24563365.5824
   4231381.23847   3321055.74245  22089770.9694                   22089772.1684
   6903423.18047   5424954.86745  21711221.6174                   21711222.5394
 -18310499.25848 -14224038.69546  20877855.2664                   20877853.5474
   2931295.67646   2879342.49243  24423192.9454                   24423200.0664
   2901260.31646   2302187.08643  23883016.6804                   23883018.7194
  -7035959.44148  -5464784.37145  21236283.1334                   21236281.3554
 11  8 16 21 17  0.0000000  0  7G07G08G04G17G26G24G28
  22033768.80546  17184985.72343  24565782.7894                   24565790.0274
   4230143.92647   3320091.49244  22089535.1644                   22089537.5594
   6707737.28547   5272472.46545  21673983.5394                   21673984.7424
 -18406109.11747 -14298539.85546  20859661.4304                   20859659.3554
   2903592.15246   2857755.07443  24417921.7894                   24417929.0594
   2891153.70746   2294311.77343  23881094.0784                   23881095.0784
  -7141987.60548  -5547403.71546  21216106.5164                   21216104.5434
 11  8 16 21 17 30.0000000  0  7G07G08G04G17G26G24G28
  22046609.52346  17194991.08243  24568225.8674                   24568233.7234
   4229295.15247   3319430.01644  22089373.8674                   22089375.3594
   6512438.32847   5120291.57045  21636819.1024                   21636820.4144
 -18501440.38348 -14372823.94546  20841520.3524                   20841518.5744
   2876060.00046   2836301.20343  24412683.6024                   24412689.9574
   2881375.37546   2286692.25443  23879233.0554                   23879233.6374
  -7247764.67648  -5629827.39845  21195977.8914                   21195975.4534
 11  8 16 21 18  0.0000000  0  7G07G08G04G17G26G24G28
  22059543.65646  17205069.25042  24570688.5944                   24570695.9104
   4228828.74647   3319066.46144  22089285.2424                   22089286.7624
   6317525.53947   4968411.57845  21599728.6254                   21599729.6134
 -18596497.93448 -14446894.74246  20823431.6564                   20823430.3094
   2848692.11346   2814975.30543  24407474.8984                   24407481.4694
   2871919.27046   2279323.85943  23877433.4224                   23877433.8714
  -7353292.62947  -5712056.96945  21175896.6094                   21175894.3834
 11  8 16 21 18 30.0000000  0  7G07G08G04G17G26G24G28
  22072566.64546  17215216.66042  24573166.8204                   24573174.2304
   4228739.34447   3318996.68444  22089267.2664                   22089269.6994
   6122999.49647   4816832.95745  21562712.0394                   21562712.5634
 -18691285.14548 -14520754.89546  20805394.3444                   20805392.2734
   2821483.12546   2793773.25843  24402297.4144                   24402304.4144
   2862780.40645   2272202.64142  23875694.0704                   23875695.6484
  -7458572.00848  -5794092.85945  21155862.7814                   21155860.7034
 11  8 16 21 19  0.0000000  0  6G08G04G17G26G24G28
   4229025.73847   3319219.72744  22089322.7034                   22089324.7814
   5928864.63347   4665559.14145  21525768.6954                   21525769.4304
 -18785801.55948 -14594404.02746  20787408.6724                   20787406.6994
   2794431.77346   2772694.04343  24397150.5394                   24397157.6844
   2853957.80146   2265327.83242  23874015.1724                   23874017.6174
  -7563599.66048  -5875932.59445  21135876.7664                   21135874.3554
 11  8 16 21 19 30.0000000  0  6G08G04G17G26G24G28
   4229677.32447   3319727.33244  22089446.5704                   22089448.5634
   5735115.71947   4514586.08645  21488899.6094                   21488900.4964
 -18880056.52048 -14667849.41446  20769472.1954                   20769470.7154
   2767526.47346   2751728.61743  24392031.1884                   24392037.2544
   2845440.77346   2258691.19142  23872394.7114                   23872396.3674
  -7668382.38748  -5957581.45746  21115936.7974                   21115934.6804
 11  8 16 21 20  0.0000000  0  6G08G04G17G26G24G28
   4230698.50447   3320522.92644  22089641.5314                   22089642.7584
   5541762.31347   4363921.21545  21452105.3284                   21452106.5314
 -18974044.15248 -14741086.52346  20751586.7504                   20751585.3754
   2740771.49646   2730880.32843  24386940.2584                   24386945.9024
   2837233.82845   2252296.18842  23870833.5394                   23870834.5044
  -7772911.27748  -6039032.54345  21096045.7114                   21096043.6454
 11  8 16 21 20 30.0000000  0  6G08G04G17G26G24G28
   4232091.18047   3321608.00044  22089906.6804                   22089907.5044
   5348812.38747   4213570.74245  21415388.1024                   21415389.4964
 -19067760.89548 -14814112.53546  20733753.1724                   20733751.4264
   2714168.60546   2710150.55143  24381877.8364                   24381884.3634
   2829339.60545   2246144.80142  23869330.1094                   23869332.1954
  -7877179.98047  -6120280.87945  21076203.9454                   21076201.8484
 11  8 16 21 21  0.0000000  0  6G08G04G17G26G24G28
   4233841.57847   3322971.82844  22090239.4144                   22090241.0634
   5156257.66447   4063528.22345  21378745.8364                   21378746.9694
 -19161218.64848 -14886936.73846  20715968.6884                   20715966.9384
   2687703.62146   2689528.28543  24376840.7114                   24376848.6764
   2821744.54345   2240226.53542  23867884.9454                   23867887.3054
  -7981197.78947  -6201333.71945  21056410.2504                   21056407.8404
 11  8 16 21 21 30.0000000  0  6G08G04G17G26G24G28
   4235948.27047   3324613.28544  22090640.4454                   22090642.0944
   4964102.31647   3913796.90645  21342180.2894                   21342181.1174
 -19254417.18748 -14959558.96146  20698233.5704                   20698231.9804
   2661375.02346   2669012.23042  24371831.8134                   24371838.5234
   2814447.39845   2234540.38742  23866495.9064                   23866500.0004
  -8084961.74247  -6282188.73846  21036664.3834                   21036662.5744
 11  8 16 21 22  0.0000000  0  6G08G04G17G26G24G28
   4238391.93047   3326517.31644  22091106.3284                   22091107.4614
   4772332.77047   3764366.21545  21305687.5314                   21305688.1254
 -19347374.07848 -15031992.87546  20680544.3674                   20680542.6174
   2635163.10546   2648587.12943  24366843.7664                   24366851.0434
   2807428.94145   2229071.44142  23865160.0784                   23865164.7934
  -8188486.67248  -6362857.50846  21016964.3444                   21016962.5354
 11  8 16 21 22 30.0000000  0  6G08G04G17G26G24G28
   5816599.19947   4556289.10244  22391428.6094                   22391430.9574
   6156387.49647   4842850.52345  21569064.1644                   21569064.7974
 -17864658.22348 -13876629.84446  20962695.7734                   20962693.5904
   4184495.03546   3855858.56643  24661672.2664                   24661678.6954
   4376116.46945   3451425.35542  24163672.3444                   24163676.0124
  -6716338.25048  -5215728.87146  21297104.5634                   21297103.0044
 11  8 16 21 23  0.0000000  0  6G08G04G17G26G24G28
   5819715.27047   4558717.09444  22392021.6954                   22392023.7464
   5965404.21947   4694032.50045  21532721.4534                   21532722.0514
 -17957129.12948 -13948685.07846  20945099.4064                   20945097.1764
   4158513.86346   3835613.19943  24656727.8674                   24656735.3754
   4369654.72746   3446390.14142  24162442.9144                   24162447.4344
  -6819373.88347  -5296016.37546  21277498.0234                   21277495.8984
 11  8 16 21 23 30.0000000  0  6G08G04G17G26G24G28
   5823146.16047   4561390.39144  22392674.5554                   22392677.0664
   5774801.37547   4545510.93445  21496450.5314                   21496451.2464
 -18049375.64848 -14020565.46146  20927545.2424                   20927543.5354
   4132626.56646   3815440.98443  24651802.3364                   24651809.5354
   4363450.551 6                  24161263.078
  -6922179.50448  -5376124.64146  21257934.9144                   21257932.5634
 11  8 16 21 24  0.0000000  0  6G08G04G17G26G24G28
   5826879.54747   4564299.41844  22393385.0084                   22393386.7424
   5584571.84447   4397280.25045  21460251.3754                   21460251.6524
 -18141408.52748 -14092279.36746  20910031.6414                   20910030.2584
   4106820.34846   3795331.96543  24646891.9224                   24646899.4144
   4357491.582 6                  24160128.453
  -7024763.19548  -5456059.99645  21238413.8674                   21238411.3164
 11  8 16 21 24 30.0000000  0  6G08G04G17G26G24G28
   5830922.68447   4567449.78544  22394154.9774                   22394156.4654
   5394728.49647   4249350.48045  21424124.9144                   21424125.3954
 -18233218.80548 -14163819.82446  20892561.1024                   20892559.3444
   4081102.09846   3775291.47343  24641997.0004                   24642005.4184
   4351785.512 6                  24159043.156
  -7127113.34448  -5535813.35945  21218937.2114                   21218934.6764
 11  8 16 21 25  0.0000000  0  6G08G04G17G26G24G28
   5835261.70347   4570830.70744  22394980.3054                   22394982.2234
   5205263.18847   4101715.29345  21388070.6484                   21388071.3914
 -18324818.78948 -14235196.41846  20875129.9534                   20875128.3164
   4055457.98046   3755308.76243  24637118.1804                   24637126.3324
   4346318.887 6                  24158002.586
  -7229239.27748  -5615392.00046  21199503.1024                   21199501.0984
 11  8 16 21 25 30.0000000  0  6G08G04G17G26G24G28
   5839885.56647   4574433.58244  22395860.0554                   22395862.6294
   5016170.41847   3954370.39545  21352087.5084                   21352088.4184
 -18416218.02048 -14306416.58246  20857737.4224                   20857735.8444
   4029876.93046   3735375.17643  24632250.9144                   24632258.7304
   4341080.871 6                  24157005.852
  -7331147.37147  -5694800.91446  21180110.6024                   21180108.9734
 11  8 16 21 26  0.0000000  0  6G08G04G17G26G24G28
   5844786.25847   4578252.18444  22396792.6174                   22396795.5234
   4827447.57047   3807313.75045  21316174.8524                   21316175.2934
 -18507422.48048 -14377484.97746  20840381.8984                   20840379.8984
   4004350.40646   3715484.09843  24627391.9304                   24627400.6804
   4336063.582 6                  24156051.039
  -7432841.48448  -5774043.08645  21160759.1174                   21160757.1724
 11  8 16 21 26 30.0000000  0  7G09G08G04G17G26G24G28
  39020154.28156  30448761.11753  24148303.4304                   24148304.2384
   5849956.87947   4582281.07844  22397776.9384                   22397779.4574
   4639093.19547   3660544.21545  21280331.7814                   21280332.8984
 -18598437.71948 -14448405.93046  20823062.1174                   20823061.0474
   3978871.16846   3695629.82442  24622544.1724                   24622553.0084
   4331260.250 6                  24155137.461
  -7534324.17247  -5853120.51246  21141447.6804                   21141444.8794
 11  8 16 21 27  0.0000000  0  7G09G08G04G17G26G24G28
  38816754.62946  30290267.92643  24109597.9844                   24109598.5784
   5855385.64847   4586511.14144  22398810.0234                   22398812.4774
   4451101.31347   3514057.15245  21244557.9144                   21244558.8634
 -18689273.67648 -14519187.17246  20805776.5314                   20805774.4414
   3953427.51246   3675803.28543  24617703.9614                   24617710.8834
   4326659.602 6                  24154261.656
  -7635602.86748  -5932038.96945  21122174.7814                   21122172.2974
 11  8 16 21 27 30.0000000  0  7G09G08G04G17G26G24G28
  38613615.73846  30131977.96943  24070942.1334                   24070943.0084
   5861060.92647   4590933.27744  22399890.2274                   22399893.2894
   4263465.51247   3367847.55545  21208852.3204                   21208852.9844
 -18779940.41848 -14589836.57846  20788523.4384                   20788521.7504
   3928007.33646   3655995.06643  24612865.7274                   24612873.5744
   4322250.500 6                  24153422.719
  -7736684.48048  -6010803.86746  21102939.8674                   21102937.2664
 11  8 16 21 28  0.0000000  0  7G09G08G04G17G26G24G28
  38410737.39146  29973890.99643  24032335.6484                   24032336.6484
   5866976.15647   4595542.40244  22401016.0394                   22401018.8634
   4076185.26647   3221915.00445  21173213.6254                   21173214.3874
 -18870442.49248 -14660357.66046  20771301.0474                   20771299.9734
   3902604.19946   3636200.10943  24608032.5164                   24608040.4614
   4318026.785 6                  24152618.602
  -7837571.09048  -6089416.81645  21083741.6804                   21083739.2194
 11  8 16 21 28 30.0000000  0  7G09G08G04G17G26G24G28
  38208130.92646  29816015.87143  23993780.8204                   23993781.2274
   5873136.66847   4600342.63744  22402188.4924                   22402191.7234
   3889271.13747   3076267.75445  21137645.1644                   21137645.9924
 -18960772.77348 -14730744.88346  20754111.9304                   20754110.3244
   3877223.40646   3616422.58243  24603202.7894                   24603210.3324
   4313994.020 6                  24151851.750
  -7938252.99248  -6167870.25045  21064582.6024                   21064579.9924
 11  8 16 21 29  0.0000000  0  7G09G08G04G17G26G24G28
  38005789.83246  29658347.57043  23955276.7194                   23955277.6024
   5879529.91047   4605324.23844  22403405.0554                   22403407.3484
   3702716.36347   2930900.51245  21102144.7664                   21102145.5124
 -19050942.07048 -14801006.66046  20736953.3984                   20736951.5274
   3851852.34046   3596652.62543  24598375.1414                   24598383.2974
   4310140.008 5                  24151117.523
  -8038738.18748  -6246170.39846  21045460.7734                   21045458.0084
 11  8 16 21 29 30.0000000  0  7G09G08G04G17G26G24G28
  37803713.56346  29500885.57843  23916822.6024                   23916823.4344
   5886149.27047   4610482.05144  22404664.6954                   22404667.0474
   3516519.73848   2785812.33645  21066712.4844                   21066713.2424
 -19140954.91448 -14871146.52346  20719824.3444                   20719822.8014
   3826484.20746   3576884.95343  24593547.6334                   24593556.4064
   4306458.563 5                  24150417.625
  -8139028.55947  -6324318.74645  21026375.7034                   21026373.6604
 11  8 16 21 30  0.0000000  0  7G09G08G04G17G26G24G28
  37601906.84446  29343633.66443  23878420.0554                   23878421.6644
   5892993.80147   4615815.28544  22405967.9454                   22405969.9964
   3330685.45348   2641006.49645  21031349.4614                   21031349.9924
 -19230811.05148 -14941164.27746  20702725.1484                   20702723.1724
   3801117.46146   3557118.39543  24588721.0784                   24588729.0204
   4302948.770 5                  24149749.258
  -8239121.30148  -6402313.09046  21007329.0164                   21007326.3874
 11  8 16 21 30 30.0000000  0  7G09G08G04G17G26G24G28
  38975802.18045  30414201.55542  24139863.5864                   24139865.0944
   7475482.99647   5848923.59844  22707105.8984                   22707107.1334
   4720644.79748   3724091.80145  21295850.1564                   21295850.2624
 -17745086.50048 -13783456.82446  20985449.8204                   20985447.6024
   5351172.57846   4764953.29343  24883685.9224                   24883695.7504
   5875031.039 5                  24448905.781
  -6763588.54348  -5252547.30146  21288113.9534                   21288111.6294
 11  8 16 21 31  0.0000000  0  8G09G08G02G04G17G26G24G28
  38774548.27045  30257380.39542  24101565.2114                   24101568.6024
   7482773.29747   5854604.19544  22708493.0004                   22708495.1644
  40668132.26656  31738471.76253  24835726.0634                   24835734.9774
   4535547.16848   3579859.96145  21260627.0314                   21260627.2424
 -17834629.22348 -13853230.36746  20968409.8364                   20968407.9734
   5325804.07846   4745185.34043  24878859.4224                   24878868.0164
   5871861.289 5                  24448303.969
  -6863276.64148  -5330226.34045  21269143.5944                   21269141.3834
 11  8 16 21 31 30.0000000  0  8G09G08G02G04G17G26G24G28
  38573570.78146  30100774.66842  24063321.1334                   24063323.9774
   7490277.18847   5860451.20744  22709920.4384                   22709922.9884
  40462902.95746  31578553.53143  24796670.8914                   24796680.5044
   4350817.15648   3435914.58645  21225474.2034                   21225474.1724
 -17924021.37548 -13922886.57846  20951399.3984                   20951397.3954
   5300425.49246   4725409.56343  24874029.6334                   24874039.4104
   5868852.977 6                  24447731.422
  -6962764.78148  -5407749.56246  21250211.8754                   21250209.2624
 11  8 16 21 32  0.0000000  0  8G09G08G02G04G17G26G24G28
  38372865.52746  29944380.99242  24025127.1804                   24025130.7384
   7497983.89847   5866456.27044  22711387.1884                   22711390.0514
  40257671.30146  31418633.43843  24757616.8674                   24757625.5044
   4166449.47348   3292251.53545  21190390.0234                   21190390.0984
 -18013271.55948 -13992432.16446  20934415.5784                   20934413.5474
   5275025.89146   4705617.36742  24869196.8914                   24869205.9884
   5865995.660 6                  24447187.352
  -7062059.23048  -5485121.87546  21231316.2814                   21231314.8714
 11  8 16 21 32 30.0000000  0  8G09G08G02G04G17G26G24G28
  38172430.441 6                  23986986.773
   7505885.91847   5872613.50044  22712890.8834                   22712894.2234
  40052434.20746  31258709.14843  24718560.4144                   24718569.4694
   3982441.62148   3148868.88345  21155374.2344                   21155374.6454
 -18102386.05948 -14061872.02346  20917457.5864                   20917456.1644
   5249597.59446   4685802.87542  24864358.3204                   24864367.0514
   5863281.805 6                  24446671.297
  -7161163.38747  -5562345.89146  21212457.6954                   21212455.2034
 11  8 16 21 33  0.0000000  0  8G09G08G02G04G17G26G24G28
  37972274.18446  29701954.96152  23948897.4454                   23948898.1174
   7513985.93047   5878925.00444  22714432.2974                   22714435.4694
  39847199.59846  31098786.76243  24679505.5314                   24679513.8834
   3798801.82048   3005773.02345  21120428.4534                   21120429.2464
 -18191360.48048 -14131202.72746  20900526.4614                   20900524.4454
   5224142.82846   4665967.68442  24859516.1644                   24859524.1684
   5860714.496 6                  24446182.867
  -7260070.01648  -5639415.98846  21193636.4064                   21193634.2234
 11  8 16 21 33 30.0000000  0  8G09G08G02G04G17G26G24G28
  37772400.42646  29546209.21543  23910862.9774                   23910863.6414
   7522281.32047   5885388.77744  22716012.0474                   22716014.7154
  39641970.18046  30938868.46543  24640451.3674                   24640460.1024
   3615532.82848   2862966.10245  21085553.7034                   21085554.2074
 -18280195.50048 -14200424.81646  20883621.3204                   20883619.3874
   5198659.61345   4646110.27042  24854665.0704                   24854675.4924
   5858291.867 6                  24445722.156
  -7358777.17648  -5716330.66046  21174852.9384                   21174850.8094
 11  8 16 21 34  0.0000000  0  8G09G08G02G04G17G26G24G28
  37572810.82446  29390684.92643  23872882.9304                   23872883.6644
   7530767.56347   5892001.25444  22717627.3984                   22717629.8014
  39436746.36746  30778954.45743  24601397.7664                   24601406.2974
   3432636.03148   2720449.21545  21050749.6414                   21050750.0744
 -18368893.66848 -14269540.25446  20866742.9224                   20866740.9694
   5173143.10945   4626227.01242  24849811.1804                   24849820.6054
   5856009.742 6                  24445287.461
  -7457284.86748  -5793089.90245  21156107.6094                   21156105.5824
 11  8 16 21 34 30.0000000  0  8G09G08G02G04G17G26G24G28
  37373517.48046  29235391.48843  23834957.9774                   23834958.5004
   7539450.89147   5898767.33644  22719279.3134                   22719282.4344
  39231539.25046  30619053.43843  24562347.5084                   24562355.3874
   3250122.52048   2578230.97745  21016018.4614                   21016018.5204
 -18457447.28548 -14338543.05946  20849891.6094                   20849889.9144
   5147599.38745   4606322.59442  24844950.0784                   24844959.3014
   5853874.340 6                  24444881.719
  -7555582.57048  -5869685.51646  21137402.3444                   21137400.0864
 11  8 16 21 35  0.0000000  0  8G09G08G02G04G17G26G24G28
  37174528.71146  29080335.38343  23797091.6484                   23797092.9384
   7548333.28947   5905688.53144  22720969.4694                   22720972.4064
  39026356.18046  30459171.12943  24523302.1334                   24523310.1024
   3068000.24248   2436317.59845  20981362.1334                   20981361.5004
 -18545852.31248 -14407430.07846  20833068.3674                   20833066.3164
   5122030.72345   4586398.69142  24840084.2114                   24840094.1844
   5851888.66046   4669134.93452  24444503.3594                   24444504.2734
  -7653663.62148  -5946112.31645  21118737.6804                   21118735.3284
 11  8 16 21 35 30.0000000  0  8G09G08G02G04G17G26G24G28
  36975837.69146  28925511.29343  23759281.2274                   23759283.1294
   7557402.19947   5912755.02344  22722695.1564                   22722698.3554
  38821189.71946  30299301.70743  24484259.0634                   24484267.8094
   2886261.83648   2294703.34445  20946777.8284                   20946777.9344
 -18634119.61348 -14476209.77046  20816271.9064                   20816269.6804
   5096424.37146   4566445.39842  24835211.3364                   24835221.8554
   5850040.22746   4667694.53143  24444151.9304                   24444151.9964
  -7751536.32048  -6022376.75446  21100113.5944                   21100110.9454
 11  8 16 21 36  0.0000000  0  8G09G08G02G04G17G26G24G28
  36777449.39846  28770923.07443  23721530.1254                   23721531.1644
   7566656.59847   5919966.09844  22724456.3834                   22724459.0514
  38616043.69146  30139448.23443  24445221.5004                   24445229.1884
   2704911.23848   2153391.28145  20912268.1254                   20912268.2344
 -18722248.57848 -14544881.67646  20799501.2194                   20799499.9064
   5070778.79346   4546461.50442  24830331.7114                   24830341.5044
   5848328.34846   4666360.55142  24443826.0634                   24443826.8444
  -7849197.32848  -6098476.23846  21081529.3134                   21081526.6134
 11  8 16 21 36 30.0000000  0  8G09G08G02G04G17G26G24G28
  36579373.71146  28616578.46543  23683836.7194                   23683838.0234
   7576099.47347   5927324.01643  22726252.9534                   22726256.3134
  38410926.70346  29979617.35242  24406187.9614                   24406196.0274
   2523957.32047   2012388.31345  20877833.3284                   20877833.8674
 -18810233.68448 -14613441.48046  20782758.6024                   20782756.9064
   5045097.57046   4526449.92642  24825445.1884                   24825454.1374
   5846756.63346   4665135.83642  24443527.3674                   24443528.2854
  -7946638.58248  -6174404.49246  21062986.7814                   21062984.7464
 11  8 16 21 37  0.0000000  0  8G09G08G02G04G17G26G24G28
  36381602.80946  28462471.33243  23646201.1254                   23646203.3094
   7585717.52347   5934818.42243  22728084.0944                   22728087.0004
  38205830.34046  29819802.53143  24367159.6094                   24367167.3204
   2343392.01647   1871688.16045  20843472.6884                   20843473.2624
 -18898086.74648 -14681898.39846  20766041.0634                   20766038.9304
   5019367.44946   4506400.15242  24820548.9384                   24820558.1214
   5845312.25446   4664010.31342  24443251.3754                   24443253.6914
  -8043869.30148  -6250168.69546  21044484.3834                   21044482.3244
 11  8 16 21 37 30.0000000  0  8G09G08G02G04G17G26G24G28
  36184155.71146  28308616.51643  23608629.7734                   23608630.5474
   7595523.31347   5942459.09443  22729950.3204                   22729953.0084
  38000772.46546  29660017.68443  24328138.3674                   24328145.8984
   2163233.74248   1731305.17245  20809190.0314                   20809190.2304
 -18985793.29348 -14750241.14546  20749350.6334                   20749348.7464
   4993601.13746   4486322.20343  24815646.5234                   24815655.8484
   5844008.36346   4662994.22742  24443003.5634                   24443005.9454
  -8140872.05948  -6325755.25845  21026025.0704                   21026022.6174
 11  8 16 21 38  0.0000000  0  8G09G08G02G04G17G26G24G28
  37562452.41446  29382614.08243  23870910.7114                   23870912.0904
   9180924.50046   7177836.48843  23031641.7664                   23031644.5124
  39371172.53946  30727862.41043  24588916.2664                   24588923.5474
   3558901.16447   2818838.31645  21074776.5084                   21074776.6644
 -17497940.83247 -13590875.56646  21032479.2814                   21032477.8404
   6543207.38346   5693807.29743  25110526.7734                   25110535.9064
   7418253.09845   5889678.38342  24742572.7034                   24742574.7974
  -6662231.49248  -5173567.80945  21307401.0704                   21307398.9104
 11  8 16 21 38 30.0000000  0  8G09G08G02G04G17G26G24G28
  37365650.46546  29229261.96943  23833459.7194                   23833461.3244
   9191086.07847   7185754.43043  23033575.7194                   23033579.4454
  39166186.66046  30568133.66843  24549907.6174                   24549915.9064
   3379552.22348   2679085.97345  21040647.8984                   21040647.5314
 -17585368.81648 -13659001.26646  21015842.3674                   21015840.7504
   6517348.68846   5673657.34843  25105605.8674                   25105615.7074
   7417211.41445   5888866.57042  24742374.1884                   24742376.9694
  -6758785.09448  -5248804.39146  21289027.6484                   21289025.2154
 11  8 16 21 39  0.0000000  0  7G09G08G02G04G17G26G28
  37169177.34846  29076166.10243  23796073.0394                   23796074.2274
   9201422.55547   7193808.66844  23035542.9454                   23035545.6644
  38961241.53146  30408436.62943  24510908.4924                   24510914.9804
   3200612.97747   2539652.87545  21006596.1804                   21006596.2544
 -17672657.59447 -13727018.47346  20999232.0314                   20999230.0864
   6491440.59846   5653468.90243  25100676.6954                   25100686.0164
  -6855110.41848  -5323863.07445  21270697.4454                   21270694.9384
 11  8 16 21 39 30.0000000  0  7G09G08G02G04G17G26G28
  36973035.68846  28923328.55143  23758748.2344                   23758749.0824
   9211930.64147   7201996.56344  23037542.9384                   23037545.8834
  38756338.96146  30248772.79343  24471915.8134                   24471922.5784
   3022085.46948   2400540.61345  20972624.2814                   20972623.4574
 -17759808.73047 -13794928.44546  20982648.0164                   20982645.7894
   6465480.00046   5633239.56343  25095736.1024                   25095747.0944
  -6951206.68448  -5398743.27346  21252411.1094                   21252408.8914
 11  8 16 21 40  0.0000000  0  7G09G08G02G04G17G26G28
  36777233.54746  28770755.52743  23721487.8364                   23721489.2664
   9222612.04347   7210319.55944  23039575.8594                   23039578.7114
  38551485.64546  30089147.33243  24432933.3674                   24432940.1254
   2843976.70348   2261754.65245  20938730.7584                   20938730.7814
 -17846818.64548 -13862728.36746  20966090.0864                   20966088.4734
   6439468.78546   5612970.76643  25090786.8134                   25090797.1484
  -7047067.34448  -5473439.90246  21234169.3204                   21234167.1094
 11  8 16 21 40 30.0000000  0  7G09G08G02G04G17G26G28
  36581776.64846  28618451.51643  23684293.8444                   23684294.5434
   9233466.57847   7218777.45744  23041641.5164                   23041644.6374
  38346686.60246  29929564.14543  24393960.9614                   24393968.2034
   2666291.66048   2123298.85245  20904918.0314                   20904918.1054
 -17933685.64848 -13930416.94146  20949560.1174                   20949558.0164
   6413406.66446   5592662.32043  25085827.6564                   25085838.3594
  -7142688.20748  -5547949.66845  21215973.5554                   21215971.2034
 11  8 16 21 41  0.0000000  0  7G09G08G02G04G17G26G28
  36386665.01046  28466416.53943  23647165.2424                   23647165.9774
   9244488.50847   7227365.76644  23043738.0474                   23043741.6524
  38141941.37546  29770022.92243  24354999.3054                   24355005.9224
   2489029.96148   1985172.94145  20871186.2664                   20871186.2704
 -18020413.46548 -13997997.04746  20933056.5474                   20933054.5784
   6387288.00746   5572309.77443  25080857.8364                   25080867.9064
  -7238070.50448  -5622273.52045  21197822.6564                   21197820.4844
 11  8 16 21 41 30.0000000  0  8G09G08G02G04G17G20G26G28
  36191905.66046  28314656.12143  23610102.8134                   23610104.3404
   9255678.64147   7236085.14844  23045868.6644                   23045871.5314
  37937255.48846  29610527.90243  24316047.8204                   24316054.3204
   2312197.48048   1847381.47345  20837536.0944                   20837536.2974
 -18106999.49248 -14065466.66046  20916579.7584                   20916577.5474
                                  24134792.828
   6361113.96946   5551914.07043  25075877.1804                   25075887.1604
  -7333208.84048  -5696407.28145  21179718.1254                   21179716.1254
 11  8 16 21 42  0.0000000  0  8G09G08G02G04G17G20G26G28
  35997492.27746  28163165.23443  23573107.7504                   23573108.6214
   9267024.95746   7244926.19943  23048027.1564                   23048030.9884
  37732622.02046  29451073.73843  24277106.7814                   24277113.2114
   2135787.28148   1709919.05946  20803966.6254                   20803966.7344
 -18193454.12548 -14132833.91446  20900127.2504                   20900125.7074
  42225641.902 5                  24111994.211
   6334872.03546   5531465.47343  25070883.8594                   25070893.8524
  -7428111.18448  -5770357.15245  21161659.1174                   21161656.7274
 11  8 16 21 42 30.0000000  0  8G09G08G02G04G17G20G26G28
  35803428.78946  28011947.01643  23536179.0474                   23536179.4304
   9278525.07846   7253887.12143  23050216.3134                   23050219.6254
  37528043.98846  29291662.84043  24238176.9774                   24238183.1844
   1959802.57048   1572788.19145  20770477.2894                   20770478.0274
 -18279777.57848 -14200098.93446  20883700.8284                   20883699.1604
  42106215.297 5                  24089267.016
   6308560.09046   5510962.30543  25065877.0084                   25065887.2854
  -7522775.49248  -5844121.55945  21143645.0234                   21143643.1134
 11  8 16 21 43  0.0000000  0  7G09G08G02G04G17G20G28
  35609716.12946  27861002.13743  23499316.3524                   23499316.7934
   9290173.55546   7262963.64543  23052432.8754                   23052436.5124
  37323521.13346  29132294.89143  24199256.7734                   24199262.8484
   1784243.11348   1435988.69945  20737069.5234                   20737069.4494
 -18365973.24248 -14267264.38346  20867298.1804                   20867296.6374
  41987172.504 5                  24066614.297
  -7617202.37948  -5917700.94946  21125676.1804                   21125674.1414
 11  8 16 21 43 30.0000000  0  7G09G08G02G04G17G20G28
  35416356.43446  27710332.30943  23462521.5634                   23462522.2114
   9301966.80546   7272152.97343  23054677.3134                   23054680.3874
  37119054.76646  28972970.96943  24160348.4064                   24160353.8914
   1609110.50048   1299521.80545  20703742.7504                   20703743.0084
 -18452042.77348 -14334331.54746  20850919.4774                   20850917.9694
  41868514.613 5                  24044034.422
  -7711390.92648  -5991094.62945  21107752.6954                   21107751.1724
 11  8 16 21 44  0.0000000  0  7G09G08G02G04G17G20G28
  35223359.47346  27559945.11743  23425796.0474                   23425795.6724
   9313908.67246   7281458.14543  23056949.1484                   23056953.0474
  36914653.72746  28813697.93043  24121451.8984                   24121457.2304
   1434413.57448   1163394.41046  20670499.4694                   20670498.7894
 -18537980.65647 -14401296.11746  20834566.4304                   20834564.5004
  41750249.789 5                  24021530.438
  -7805333.19148  -6064296.39845  21089876.0164                   21089873.9414
 11  8 16 21 44 30.0000000  0  7G09G08G02G04G17G20G28
  35030737.02046  27409849.77743  23389139.8204                   23389141.0554
   9326004.97346   7290883.63743  23059251.7114                   23059255.1484
  36710329.26246  28654484.58243  24082569.5234                   24082575.1414
   1260163.49648   1027615.19946  20637340.3284                   20637340.4654
 -18623779.13348 -14468152.07046  20818239.4304                   20818237.6254
  41632389.098 5                  23999101.313
  -7899018.80548  -6137298.16445  21072048.1564                   21072046.0234
 11  8 16 21 45  0.0000000  0  7G09G08G02G04G17G20G28
  34838485.90246  27260043.77343  23352556.1804                   23352556.7304
   9338246.40246   7300422.20743  23061581.1954                   23061585.5314
  36506077.03946  28495327.54343  24043701.2504                   24043706.6804
   1086355.94948    892180.82046  20604266.0944                   20604265.5704
 -18709445.44147 -14534905.02746  20801937.6804                   20801935.8674
  41514927.453 5                  23976748.523
  -7992452.48448  -6210103.62945  21054268.8284                   21054266.3324
 11  8 16 21 45 30.0000000  0  7G09G08G02G04G17G20G28
  36222040.66046  28338138.45743  23615837.1884                   23615838.5274
  10926054.84446   8537675.36343  23363731.5944                   23363735.1094
  37877330.87146  29563837.55143  24304642.1644                   24304646.4534
   2488423.78148   1984701.28945  20871070.7894                   20871070.5274
 -17219552.72348 -13373949.64546  21085454.8364                   21085453.0234
  42973295.73415                  24254266.086
  -6510204.85948  -5055105.48445  21336331.0394                   21336328.8054
 11  8 16 21 46  0.0000000  0  7G09G08G02G04G17G20G28
  36030554.08646  28188928.21143  23579398.6414                   23579399.9534
  10938590.80147   8547443.44544  23366118.2114                   23366121.0204
  37673242.32846  29404808.03143  24265804.1024                   24265809.6414
   2315521.00448   1849971.92646  20838168.1334                   20838167.9924
 -17304944.85248 -13440488.95346  21069205.6024                   21069203.6564
  42856650.71915                  24232070.945
  -6603117.35948  -5127504.84045  21318650.0314                   21318648.0044
 11  8 16 21 46 30.0000000  0  7G09G08G02G04G17G20G28
  35839452.87146  28040018.21943  23543033.6484                   23543034.7034
  10951267.97347   8557321.54743  23368530.2034                   23368533.5634
  37469237.57446  29245843.87143  24226982.5084                   24226988.5004
   2143072.36748   1715596.42646  20805352.5704                   20805352.3874
 -17390202.78548 -13506923.69146  21052981.2584                   21052979.2464
  42740415.16015                  24209952.367
  -6695768.67248  -5199700.66445  21301019.0634                   21301017.2154
 11  8 16 21 47  0.0000000  0  7G09G08G02G04G17G20G28
  35648743.01246  27891413.22343  23506742.5474                   23506744.5004
  10964086.23047   8567309.61744  23370969.7114                   23370973.4144
  37265321.59446  29086948.82443  24188179.3754                   24188184.5234
   1971082.81648   1581578.66846  20772623.8284                   20772623.4144
 -17475324.69147 -13573252.43746  21036782.9384                   21036781.1024
  42624593.40615                  24187911.641
  -6788154.31248  -5271689.48845  21283439.0944                   21283436.7114
 11  8 16 21 47 30.0000000  0  7G09G08G02G04G17G20G28
  35458430.28946  27743117.65244  23470528.2974                   23470528.3284
  10977045.73046   8577407.71543  23373435.5864                   23373439.5234
  37061499.21946  28928126.70343  24149391.6804                   24149397.3754
   1799557.07048   1447922.30546  20739983.1564                   20739983.1844
 -17560308.95747 -13639473.93046  21020611.0864                   21020609.2934
  42509189.906 5                  24165949.469
  -6880270.23848  -5343468.14845  21265909.8134                   21265907.4064
 11  8 16 21 48  0.0000000  0  7G09G08G02G04G17G20G28
  35268520.50046  27595136.05543  23434388.6254                   23434389.6604
  10990146.46146   8587615.84443  23375929.0554                   23375932.4774
  36857775.15246  28769381.19543  24110624.9694                   24110630.1724
   1628500.48448   1314631.53146  20707432.1954                   20707432.0234
 -17645153.37548 -13705586.45346  21004465.5864                   21004463.9844
  42394209.309 5                  24144069.688
  -6972112.12948  -5415033.26245  21248432.7344                   21248430.6134
 11  8 16 21 48 30.0000000  0  7G09G08G02G04G17G20G28
  35079024.92646  27447477.22743  23398329.2424                   23398329.6684
  11003393.58246   8597938.03943  23378449.0864                   23378454.1134
  36654159.95746  28610720.46943  24071877.1254                   24071882.6764
   1457923.06648   1181714.14146  20674972.5314                   20674972.2114
 -17729850.89548 -13771584.50446  20988348.4384                   20988346.2504
  42279661.13315                  24122273.094
  -7063670.28948  -5486377.29345  21231009.8834                   21231007.6374
 11  8 16 21 49  0.0000000  0  7G09G08G02G04G17G20G28
  34889943.33246  27300141.00843  23362347.5784                   23362348.3914
  11016781.01246   8608369.56343  23380996.7344                   23381001.8984
  36450652.75046  28452143.87543  24033150.3364                   24033156.5234
   1287823.93048   1049169.42246  20642603.6174                   20642604.2234
 -17814405.73848 -13837471.38746  20972258.0234                   20972256.1954
  42165544.133 5                  24100556.797
  -7154945.96548  -5557501.20346  21213640.2114                   21213638.5904
 11  8 16 21 49 30.0000000  0  7G09G08G02G04G17G20G28
  34701284.84846  27153134.44143  23326447.1564                   23326447.7814
  11030311.91046   8618912.88343  23383572.0004                   23383577.0084
  36247261.82846  28293657.88344  23994446.7974                   23994452.0124
   1118211.25448    917003.77046  20610327.4454                   20610327.0824
 -17898812.46148 -13903242.84446  20956196.2274                   20956193.8634
  42051866.180 5                  24078924.047
  -7245932.03948  -5628399.44945  21196326.9144                   21196324.6644
 11  8 16 21 50  0.0000000  0  7G09G08G02G04G17G20G28
  34513056.74246  27006463.25443  23290628.3984                   23290628.9024
  11043987.90646   8629569.26243  23386174.7344                   23386179.8094
  36043993.56346  28135267.44943  23955765.8054                   23955770.8674
    949091.25848    785222.03146  20578145.1174                   20578144.5164
 -17983067.76248 -13968896.32046  20940162.6414                   20940160.5204
  41938632.980 5                  24057377.328
  -7336622.64148  -5699067.46146  21179068.6414                   21179066.7704
 11  8 16 21 50 30.0000000  0  7G09G08G02G04G17G20G28
  34325269.26646  26860135.42643  23254893.7344                   23254894.4384
  11057813.18046   8640341.98843  23388806.0394                   23388811.0514
  35840857.35946  27976979.93843  23917110.1724                   23917114.5634
    780473.12148    653831.33246  20546057.8134                   20546057.6484
 -18067165.53948 -14034427.03946  20924159.2734                   20924157.4064
  41825853.172 5                  24035914.070
  -7427009.24248  -5769498.57845  21161868.7974                   21161866.5864
